GFSMW_850_rhum_000.txt.gz
RH
39 34 34 32 32 31 30 30 36 64 71 83 95 98 92 100 100 100 100 91 74 24 34 40 45 46 41 30 23 23 24 24 24 20 16 12 13 14 11 21 29 11 13
40 37 38 34 33 37 33 35 45 69 67 80 97 96 91 94 92 98 86 61 27 35 42 49 50 49 45 36 28 26 27 26 21 14 14 13 12 13 16 9 10 9 9
40 36 36 34 35 43 35 40 55 82 74 99 99 99 93 91 95 85 68 30 36 41 51 52 52 51 50 44 34 29 28 23 14 11 16 17 19 18 15 11 12 12 11
37 39 37 35 35 36 44 46 56 81 94 86 97 93 84 86 87 68 35 35 39 50 52 52 52 53 53 47 37 30 24 13 10 13 16 18 20 20 23 17 13 14 13
34 36 34 35 35 43 44 49 57 74 88 87 94 95 91 88 82 42 34 38 44 51 52 51 52 53 53 48 37 25 14 9 13 17 18 16 14 16 30 24 17 14 14
36 36 34 35 41 47 50 58 68 90 88 95 98 95 92 87 65 35 37 38 46 51 52 50 52 54 53 45 32 16 9 10 16 19 17 15 18 20 28 37 31 35 25
38 40 37 37 42 47 56 72 85 93 98 98 100 99 98 91 51 35 37 39 46 50 50 50 53 54 50 40 23 11 10 15 19 16 15 17 21 24 29 35 33 39 26
35 39 38 39 40 50 68 81 100 98 100 100 98 96 91 63 36 38 38 41 47 50 49 51 54 53 45 30 16 11 15 20 18 17 20 21 22 26 34 40 45 43 47
36 40 43 45 48 56 76 87 100 100 100 93 82 77 56 37 39 41 40 42 47 48 49 53 54 49 38 24 14 16 22 20 20 23 23 23 26 29 33 39 44 54 75
39 41 48 53 63 70 85 98 98 98 93 75 67 49 38 41 44 42 41 46 47 49 52 55 53 43 28 18 19 24 22 23 26 26 26 26 28 31 38 47 54 58 63
43 46 51 58 67 80 92 95 97 98 82 69 50 45 43 46 46 42 45 48 49 52 56 56 48 35 23 22 26 26 26 30 31 30 28 27 33 38 52 64 71 77 76
56 65 71 72 78 84 88 90 92 84 76 58 54 50 47 47 44 46 49 50 52 57 59 53 41 28 24 27 29 31 34 34 32 29 28 29 40 48 61 78 83 88 81
78 74 72 80 81 80 78 77 74 68 62 61 56 50 48 45 46 50 52 53 57 60 58 47 32 25 27 30 34 36 36 33 29 27 30 37 42 51 66 78 87 85 94
80 76 75 76 76 72 67 65 64 62 60 55 50 47 45 47 50 52 54 58 61 60 50 35 27 27 30 34 37 37 33 27 24 28 28 30 39 49 80 88 89 88 80
79 74 68 64 61 57 56 55 53 52 49 48 46 45 46 49 51 53 57 62 60 51 39 28 26 29 32 34 37 32 27 25 32 29 32 44 52 59 86 90 84 88 92
79 72 65 60 58 56 55 53 50 48 46 45 45 46 48 50 52 57 60 59 52 40 30 26 25 27 30 37 34 25 32 35 37 41 56 62 66 67 80 76 89 100 98
76 67 62 59 58 55 52 52 52 51 49 48 47 47 48 52 56 60 59 53 43 34 27 23 24 26 36 36 25 19 32 45 53 64 70 75 77 67 73 77 87 96 91
73 66 60 59 58 57 57 56 56 55 54 49 48 48 51 56 60 59 54 48 40 31 22 18 22 33 38 26 19 19 31 60 74 76 79 90 74 87 96 97 97 83 75
64 62 62 60 60 60 60 60 61 57 53 51 50 53 58 62 60 55 53 48 34 21 14 19 33 38 27 19 17 22 63 82 84 82 88 81 95 91 98 96 98 94 74
60 60 64 64 63 63 64 64 61 58 55 53 55 60 64 61 60 59 50 36 22 12 18 33 38 25 19 17 23 60 94 94 86 97 88 87 98 96 100 95 97 91 75
61 62 65 65 66 66 66 64 62 58 56 58 64 66 65 64 62 51 38 22 12 20 38 36 24 17 17 22 30 66 96 92 98 91 88 86 95 97 92 94 93 91 97
65 66 68 69 68 67 66 63 61 60 61 67 69 70 68 63 51 40 22 15 30 40 33 22 15 15 20 28 39 79 96 94 91 93 86 93 99 98 95 91 99 100 100
70 71 68 68 67 64 65 65 62 65 70 72 73 69 64 54 40 22 23 38 40 30 20 16 18 22 25 33 48 77 90 93 95 92 96 86 97 65 61 76 100 96 84
70 69 67 66 66 65 65 66 69 74 76 75 70 65 54 37 24 32 42 40 28 19 18 24 30 32 39 50 78 91 88 95 94 95 94 82 66 62 74 78 79 84 92
66 66 66 64 62 64 67 73 79 80 76 70 66 52 32 28 39 46 41 27 21 21 31 32 38 56 67 84 96 92 97 93 95 97 86 68 64 69 80 81 84 89 92
58 58 56 56 60 65 72 80 82 75 68 65 46 30 33 44 49 43 28 22 18 19 24 29 41 48 66 98 98 99 97 97 100 91 72 69 71 83 90 91 91 90 92

GFSMW_850_rhum_003.txt.gz
RH
41 40 38 38 36 34 31 31 30 31 35 56 83 95 87 97 100 100 100 96 88 74 22 35 46 49 48 47 42 34 26 20 16 11 9 9 11 14 16 21 15 8 12
40 38 35 35 37 35 33 34 35 34 40 52 66 81 86 99 100 100 100 96 70 25 35 48 51 51 52 54 51 45 31 20 14 10 11 11 11 14 11 10 10 10 12
35 34 34 36 35 35 34 39 37 43 54 52 71 84 96 100 100 100 94 61 32 34 44 50 51 52 54 56 55 49 33 17 10 10 13 17 22 15 11 14 14 16 15
37 30 32 31 38 34 37 44 47 53 57 62 77 74 83 91 92 86 73 53 35 41 50 50 51 52 55 56 55 46 28 12 10 12 15 16 15 21 31 22 20 19 19
37 32 28 28 35 35 38 45 52 58 68 93 90 80 88 89 79 77 76 33 38 46 51 51 50 52 55 56 52 40 20 10 11 16 17 15 15 18 25 31 24 24 23
34 33 36 34 35 40 46 51 50 59 97 100 85 90 86 88 82 78 41 36 41 49 51 50 50 53 56 56 50 34 17 12 16 19 17 18 21 23 28 48 46 48 40
35 31 38 40 36 40 45 51 54 63 96 98 86 98 87 89 85 72 36 36 40 47 50 50 51 54 56 54 45 29 16 17 21 19 20 22 23 23 26 31 41 55 48
22 30 37 40 37 40 46 50 57 72 97 94 100 91 92 90 82 54 36 39 42 46 49 49 52 55 56 51 39 25 20 22 22 22 25 27 27 28 30 36 45 50 48
21 22 27 43 41 44 49 53 67 83 87 99 89 94 94 92 69 37 38 38 40 45 48 49 53 55 53 45 33 25 24 24 25 29 32 32 30 29 31 35 36 56 64
26 21 30 39 50 52 58 73 79 85 94 97 100 100 98 75 42 38 38 38 40 46 48 51 54 54 49 39 30 26 26 29 34 36 34 32 28 28 30 36 45 62 82
36 26 27 46 58 66 71 83 96 95 94 100 99 88 64 40 39 42 40 39 44 47 49 54 55 50 42 34 28 28 32 36 37 35 31 25 22 20 24 38 56 72 86
45 42 40 48 70 81 87 98 99 94 97 92 77 57 40 42 46 45 41 43 47 49 53 56 52 44 37 30 28 33 36 36 34 30 23 15 13 16 27 40 51 69 79
64 66 65 68 79 88 95 100 95 94 90 72 54 45 46 48 47 44 44 47 49 53 56 54 46 40 34 29 32 33 33 34 29 21 14 13 21 31 39 46 64 85 92
79 80 78 80 88 93 99 100 93 91 78 60 53 53 50 47 45 45 47 49 53 57 55 49 44 38 31 29 29 31 34 30 21 14 18 27 41 48 59 88 96 95 90
84 85 84 87 90 92 93 94 89 78 67 59 56 52 48 45 46 48 50 53 56 56 52 46 42 32 25 22 26 34 30 21 13 17 29 45 55 67 91 93 94 94 95
85 82 83 82 79 78 76 75 70 65 61 56 51 46 45 46 48 50 53 56 56 53 48 46 35 23 16 20 34 31 19 14 21 31 40 59 74 86 91 93 99 100 98
84 80 80 76 73 68 65 63 59 54 50 47 45 45 46 48 50 53 56 56 54 54 50 37 22 11 18 34 31 19 14 18 28 42 64 84 91 77 84 82 95 98 93
82 76 70 64 58 55 54 53 50 48 45 45 45 46 48 50 53 56 57 58 59 53 38 21 9 20 35 29 18 14 15 21 46 69 78 91 82 91 96 99 99 84 78
76 72 65 60 58 56 53 51 49 48 47 46 47 48 51 54 57 60 63 63 54 41 19 10 26 35 26 16 14 16 23 51 70 72 87 89 99 100 94 96 94 94 86
68 68 67 62 59 56 55 55 52 49 47 48 50 52 56 59 64 68 64 56 43 17 16 32 33 21 14 14 16 26 70 89 89 100 100 90 98 96 98 96 95 98 76
70 71 67 63 61 60 59 57 53 50 51 52 54 58 62 69 70 65 57 38 18 27 35 29 17 12 14 17 21 25 93 98 98 98 99 96 96 99 95 95 95 91 98
77 73 69 66 64 62 60 58 56 55 55 57 62 68 73 71 65 55 32 24 36 36 23 12 10 13 15 20 26 54 99 97 95 99 96 91 99 97 95 80 92 100 100
76 75 69 67 62 60 62 62 60 58 60 67 73 74 70 63 49 28 34 42 34 19 11 12 14 16 17 24 40 71 88 96 94 93 94 98 92 62 58 73 82 81 83
76 72 69 66 63 63 63 64 63 65 72 76 75 68 61 42 29 42 46 33 17 12 13 16 20 23 31 39 70 92 88 93 94 97 96 76 60 55 69 76 79 85 92
71 69 68 66 66 65 65 67 70 76 78 74 67 57 35 32 47 49 35 18 13 16 20 25 32 44 51 71 98 95 96 95 94 99 77 60 56 60 78 78 83 89 92
68 68 67 66 64 65 69 75 80 78 72 65 50 30 36 51 52 38 19 13 15 19 23 27 33 36 47 94 100 98 98 99 99 86 65 62 63 78 87 90 89 88 91

GFSMW_850_rhum_006.txt.gz
RH
40 43 43 44 42 37 34 32 32 33 37 57 56 75 87 88 89 96 98 100 93 86 77 28 38 48 48 48 49 46 39 26 13 11 19 21 11 17 34 17 12 13 10
35 38 42 41 44 37 36 34 33 33 39 45 56 57 73 89 94 98 100 100 93 75 33 37 48 49 49 51 53 51 42 27 13 12 23 25 24 26 20 22 14 15 16
31 34 34 36 43 43 35 36 35 35 44 54 76 76 75 88 100 100 100 98 68 46 34 47 49 49 51 54 56 54 44 24 15 13 18 24 23 24 24 22 17 21 19
30 31 33 32 36 40 36 37 36 40 47 61 67 65 58 80 99 100 98 89 55 35 43 49 48 50 52 55 57 55 43 25 15 21 17 16 18 27 28 30 30 31 35
27 32 33 33 34 34 31 38 39 48 47 56 70 85 80 89 90 99 98 74 40 42 48 49 49 50 53 56 57 54 41 25 18 18 19 20 28 37 42 34 34 38 42
30 34 42 40 39 47 35 40 48 55 55 65 88 97 83 77 85 97 86 50 42 44 50 49 49 51 54 56 57 52 41 26 21 21 20 22 31 37 41 41 42 44 43
28 32 38 42 48 51 37 45 56 52 60 85 98 95 87 85 87 81 70 62 40 45 49 49 49 52 54 56 56 50 38 26 23 22 24 27 30 34 42 50 49 47 44
26 23 32 42 56 60 41 51 62 59 68 100 100 99 96 94 84 77 71 50 39 44 48 48 49 52 54 55 53 47 36 27 24 26 30 34 35 36 38 52 56 50 39
36 34 29 40 63 71 51 61 73 75 83 100 99 100 100 91 83 79 57 38 41 44 45 47 49 52 54 54 51 43 32 27 28 33 36 36 35 33 38 51 60 59 50
41 41 36 44 66 76 70 88 87 83 90 99 98 100 94 90 84 76 48 39 41 41 44 46 50 53 53 52 47 39 31 29 34 35 35 34 32 31 35 55 64 65 63
48 50 40 58 76 86 89 88 86 82 83 100 100 99 95 87 79 56 38 39 38 40 44 47 51 52 52 49 43 36 31 32 32 33 33 29 23 26 50 59 62 66 67
60 60 51 74 87 88 90 87 83 86 98 100 100 99 100 83 60 40 38 37 38 42 45 49 52 52 50 46 41 33 29 27 29 32 29 23 27 27 50 62 65 67 71
63 74 77 83 88 89 90 86 89 95 100 100 98 86 79 61 40 39 40 39 41 44 48 52 53 52 49 44 35 27 23 25 32 31 24 21 25 45 59 64 72 78 77
72 78 78 82 88 91 92 97 94 100 100 94 84 75 51 40 42 44 41 41 44 48 52 53 52 51 46 37 25 19 23 33 32 25 28 34 42 69 75 81 80 76 81
75 80 80 83 88 89 99 99 100 100 95 76 63 46 44 47 46 42 42 44 48 52 53 54 54 49 39 24 15 26 35 34 35 38 55 63 71 57 95 94 91 88 89
78 80 79 80 83 98 100 100 100 92 74 59 49 49 49 45 43 43 45 49 52 54 54 56 52 40 22 11 22 33 26 39 58 61 60 73 88 89 94 92 93 95 95
80 80 77 77 88 97 98 97 90 76 59 55 53 50 46 44 44 46 50 52 54 55 58 54 41 20 12 27 32 22 15 49 51 60 78 83 82 92 90 95 96 96 96
83 78 73 78 85 88 86 79 68 60 56 52 48 45 44 45 47 50 53 56 58 61 52 38 16 18 32 29 18 12 18 46 73 83 86 85 87 89 95 96 96 98 84
83 79 76 76 76 75 71 65 59 52 48 46 44 44 46 48 51 55 58 62 61 50 32 16 27 32 23 14 12 14 28 74 80 82 82 89 95 94 94 98 90 84 78
78 79 71 66 63 60 57 53 48 45 44 44 46 47 49 53 58 62 66 59 48 26 22 34 29 18 11 12 14 17 68 80 78 78 82 86 94 91 98 96 88 86 88
80 68 60 56 54 52 49 46 44 45 46 47 49 52 55 60 66 65 58 43 25 34 35 25 14 11 13 16 17 21 73 86 84 84 84 91 89 96 95 95 93 94 98
77 68 62 57 53 49 48 49 48 48 49 51 54 59 64 68 64 55 34 30 40 34 20 11 13 20 20 21 19 31 94 96 94 91 92 89 95 96 96 93 95 100 100
81 70 63 58 54 51 53 54 51 52 54 58 63 69 68 62 49 30 40 43 32 17 11 14 20 29 28 32 36 70 98 95 95 96 93 95 97 89 62 82 82 85 100
74 68 63 60 56 53 54 58 56 57 62 68 71 66 58 42 31 44 45 32 16 12 17 32 39 47 54 72 84 91 90 92 96 94 95 94 90 90 87 91 98 100 100
70 65 63 60 58 58 60 60 62 67 71 72 65 57 35 35 48 47 34 17 12 16 20 24 28 68 74 82 96 97 97 99 95 97 92 85 82 89 94 97 100 100 100
66 64 63 63 61 62 64 67 70 73 72 64 52 30 39 50 49 36 17 12 16 19 20 19 23 31 54 91 100 100 100 99 100 97 88 87 94 98 100 100 99 98 100

GFSMW_850_rhum_012.txt.gz
RH
28 27 28 29 29 27 28 32 35 39 62 73 76 84 91 88 93 94 95 95 84 83 85 83 82 68 38 43 46 45 43 35 21 12 15 26 25 23 43 46 25 24 22
26 26 27 28 31 31 28 33 35 38 44 70 68 69 88 91 94 99 100 90 84 83 86 83 77 32 43 46 49 49 47 41 26 14 16 24 28 31 25 23 27 24 26
24 25 26 26 29 32 35 35 36 39 40 67 77 90 94 97 97 99 99 91 95 91 91 82 53 35 44 47 50 51 51 47 35 20 14 18 27 25 22 27 28 28 31
21 23 24 25 26 30 33 37 40 40 47 59 76 62 65 93 99 99 100 100 100 98 91 74 37 42 45 48 51 53 54 51 41 29 20 19 19 20 21 25 27 26 29
20 21 22 23 23 25 32 33 38 43 52 65 70 71 85 97 98 100 99 99 100 96 83 55 41 44 46 48 51 53 55 55 47 32 24 22 22 26 36 36 30 29 26
19 20 18 22 24 24 23 34 37 44 65 68 77 73 89 99 97 99 98 99 92 88 65 48 45 47 47 49 51 54 57 57 50 37 28 25 25 27 34 38 32 33 28
17 18 18 27 29 27 28 25 40 44 67 75 81 100 97 96 86 100 100 96 86 79 68 48 49 47 48 49 52 55 57 58 52 40 31 28 29 32 35 39 38 40 32
18 19 29 32 35 35 29 33 36 53 73 85 85 100 99 89 94 100 100 96 87 83 62 58 48 47 48 49 52 55 58 58 53 41 33 31 31 32 33 38 47 47 44
19 21 30 36 39 36 37 38 46 58 81 84 93 100 96 91 92 97 99 92 91 76 73 49 47 47 48 50 53 56 58 58 51 39 34 30 27 29 34 40 44 51 62
29 32 34 42 41 39 35 41 53 56 85 98 100 98 95 96 95 98 98 95 89 75 50 47 47 46 48 51 54 57 58 57 46 36 31 26 23 28 35 36 36 39 51
30 28 34 48 46 40 36 39 61 76 79 96 99 98 96 94 92 99 95 92 80 53 48 46 46 45 48 52 55 58 58 54 41 32 24 20 29 36 36 33 30 39 51
28 32 47 50 46 45 45 55 65 87 92 94 98 99 95 93 90 80 85 78 58 50 47 44 43 45 49 54 56 58 56 45 33 22 20 29 39 38 34 35 47 57 62
31 51 54 55 56 57 64 70 84 99 90 98 98 97 96 86 74 75 71 54 52 46 43 42 43 48 52 56 58 60 47 32 18 20 34 41 41 34 38 47 55 62 65
58 58 61 59 67 65 74 91 100 90 92 98 96 94 79 72 75 65 59 55 45 42 40 42 46 52 55 59 62 48 32 15 20 32 37 38 44 55 62 65 70 85 94
63 62 65 64 66 83 94 91 92 89 90 93 85 76 72 77 63 59 60 44 40 39 42 46 52 56 60 63 46 29 16 27 30 24 20 36 55 59 71 89 89 93 95
73 65 65 72 87 90 89 88 86 85 89 81 76 77 71 58 59 54 40 38 40 42 47 52 56 62 63 45 23 23 30 24 15 13 24 38 44 53 82 87 90 89 94
75 65 68 89 87 84 85 87 87 81 81 76 58 56 60 66 56 42 42 41 45 51 56 58 65 59 42 23 29 28 18 12 14 22 46 56 66 74 78 82 89 83 85
66 73 76 80 81 84 80 70 68 79 78 70 76 89 87 65 52 44 45 55 55 55 60 66 54 36 26 31 25 15 13 14 17 32 54 72 74 77 86 88 90 96 90
76 74 72 77 78 76 76 75 76 77 90 92 88 85 76 48 52 60 53 52 57 65 66 57 29 32 30 21 14 15 16 16 18 48 71 74 81 83 87 93 93 91 90
68 70 74 78 78 71 78 87 91 91 93 90 86 71 58 57 48 51 55 62 68 66 39 31 33 25 18 19 28 26 19 18 28 40 57 71 91 91 90 89 97 98 86
65 78 92 92 90 91 97 98 94 93 91 82 77 59 49 50 55 61 68 64 47 31 35 30 21 19 29 34 33 32 33 58 86 93 90 90 89 92 92 93 94 93 94
95 94 94 96 98 99 97 86 83 73 61 50 48 50 54 60 65 66 52 35 35 35 28 18 18 27 32 33 36 72 90 94 96 93 93 86 95 95 94 94 93 96 96
57 52 52 52 54 55 53 50 45 46 47 50 54 57 62 68 58 43 33 39 34 24 15 18 20 21 21 27 40 56 57 50 92 92 95 97 96 94 91 78 94 98 87
54 54 50 49 49 48 48 47 48 49 52 57 62 68 62 50 34 39 40 34 22 14 17 18 16 14 12 17 28 34 39 53 77 87 93 86 71 84 81 71 75 82 85
52 51 49 49 49 50 50 51 53 56 62 68 66 57 42 33 40 41 33 20 15 18 18 16 10 10 12 19 42 48 64 88 96 99 84 62 67 64 63 70 77 80 86
53 51 51 52 52 53 55 57 61 68 68 62 53 37 34 42 42 34 20 17 19 19 15 9 9 14 20 28 34 46 97 100 100 94 74 65 67 69 71 79 83 85 90

GFSMW_850_rhum_015.txt.gz
RH
29 30 30 28 28 27 27 28 37 48 57 59 70 77 85 89 90 88 89 86 88 92 92 81 85 84 81 34 40 42 41 36 25 12 14 21 23 26 32 42 35 24 26
24 26 28 28 28 29 28 26 27 41 56 57 55 61 67 90 89 91 92 90 90 93 93 84 82 78 64 36 42 45 44 42 33 18 14 19 24 27 28 36 30 27 26
24 23 23 25 26 27 29 30 29 34 47 60 60 64 74 77 88 90 91 93 91 96 88 86 84 72 41 41 45 46 47 46 42 31 20 16 20 22 21 24 26 26 26
24 23 22 23 24 25 26 29 32 36 38 44 53 53 59 69 80 86 90 91 98 98 91 92 82 59 37 43 46 46 48 48 48 41 30 20 18 18 19 24 25 28 27
23 21 20 21 22 23 25 29 30 35 42 45 48 50 51 64 64 69 88 91 97 98 98 93 75 43 42 45 47 47 49 51 52 48 37 26 23 22 24 26 23 23 22
18 21 20 22 22 23 23 24 28 33 35 43 46 49 51 54 68 75 92 89 97 97 97 89 70 43 44 48 47 48 50 53 55 53 42 30 26 26 29 32 29 26 20
16 17 18 18 24 28 28 27 26 26 36 34 47 49 53 53 62 72 91 91 97 98 96 78 72 45 47 49 48 48 50 54 57 56 46 33 29 30 32 34 32 32 29
16 18 22 21 29 31 30 29 29 29 28 49 52 58 62 71 76 88 97 95 98 98 91 78 56 48 48 51 49 49 52 56 58 57 45 34 31 30 29 30 36 39 38
18 19 28 35 36 36 31 30 34 34 32 40 59 61 74 73 85 100 98 99 99 96 83 67 54 50 60 50 49 50 54 57 59 57 43 33 29 24 24 29 37 45 54
30 31 30 30 34 32 28 31 35 39 37 41 59 68 70 73 91 100 99 98 99 86 75 65 53 74 51 50 50 52 55 58 60 53 37 31 24 20 27 34 36 36 38
25 24 26 26 29 25 24 26 35 42 47 52 60 76 86 80 97 97 98 97 98 78 71 58 73 52 50 49 51 54 57 60 58 42 32 23 19 28 36 36 34 31 34
39 33 28 30 26 30 34 40 38 52 51 59 68 74 87 93 97 92 95 98 92 74 68 76 52 49 47 49 52 55 59 60 48 33 21 21 34 38 37 34 32 37 43
46 53 48 39 35 40 41 50 50 51 53 69 73 75 90 92 95 93 92 91 83 72 69 56 50 46 47 50 54 58 61 50 33 19 23 34 38 33 31 37 39 47 61
49 51 56 56 54 49 50 59 64 62 74 74 81 82 97 95 94 92 92 85 68 78 52 52 48 45 49 53 58 62 49 31 18 27 31 29 27 33 43 48 58 80 88
72 67 62 60 63 77 75 57 84 97 94 100 99 98 94 91 85 86 72 61 62 54 57 44 43 49 53 58 63 47 27 23 29 24 17 15 28 44 47 68 88 90 89
71 67 66 70 79 93 95 100 100 98 100 99 96 89 80 74 62 54 59 76 59 53 50 45 49 54 60 63 42 24 28 27 20 14 14 20 32 36 54 82 87 90 91
79 74 74 79 89 98 100 100 94 93 91 89 85 74 67 60 67 67 75 66 61 51 50 52 58 65 63 39 26 30 24 17 14 15 17 24 43 69 70 76 86 91 96
73 76 81 87 93 94 98 95 94 84 76 73 68 69 66 74 79 81 68 55 52 57 57 63 65 53 34 30 30 22 15 16 16 13 17 47 67 70 78 88 97 98 93
77 80 86 90 87 81 87 87 86 82 72 64 67 76 82 91 96 93 91 78 79 71 65 58 40 31 31 26 18 15 17 15 9 11 33 52 54 63 94 92 91 89 90
79 79 82 81 81 82 77 83 91 83 89 94 99 100 100 97 81 75 79 60 61 62 48 33 32 28 22 17 19 20 14 12 31 52 53 59 88 95 95 96 99 98 90
81 84 80 80 87 87 93 95 96 99 97 96 97 100 91 77 62 54 60 63 55 36 34 32 25 18 18 23 24 27 47 65 73 60 60 74 84 98 97 95 95 97 93
97 97 98 97 97 100 100 100 98 97 99 93 73 59 53 53 59 64 62 39 35 34 29 21 17 21 22 22 24 56 79 78 51 52 71 82 96 97 96 96 94 95 99
98 97 100 98 99 97 99 98 99 98 96 75 58 54 59 71 70 45 35 36 33 26 16 17 18 17 16 13 16 19 29 30 45 66 93 100 100 80 60 71 94 74 75
64 78 87 86 85 78 77 68 57 50 49 53 74 80 71 52 37 36 37 31 21 16 18 18 16 10 8 10 16 25 32 44 67 87 100 94 67 58 59 57 63 75 80
50 51 51 51 50 49 46 47 48 53 60 64 66 58 43 36 39 37 30 19 18 19 18 14 8 7 11 19 40 64 71 91 98 100 80 61 52 52 57 62 75 80 83
52 50 49 48 48 48 50 52 56 63 67 62 51 36 37 40 37 29 19 19 20 19 15 10 7 18 32 45 57 67 99 100 100 80 69 61 62 62 64 75 82 82 84

GFSMW_850_rhum_018.txt.gz
RH
28 30 30 30 29 30 30 29 30 32 54 62 59 62 74 80 80 85 86 88 89 87 86 91 92 91 83 82 50 39 40 36 26 14 16 21 24 29 32 33 43 28 27
22 24 26 27 29 30 29 28 28 28 34 52 56 58 56 67 70 84 87 88 88 86 88 90 91 88 83 80 40 41 42 40 33 20 17 22 26 27 34 40 37 30 26
27 22 23 25 24 27 28 28 29 32 28 35 53 62 61 66 73 79 84 91 87 86 87 89 93 86 84 70 38 42 43 43 40 33 22 18 18 24 26 29 27 27 28
27 25 22 22 22 22 22 24 27 27 34 35 42 56 61 62 64 71 81 87 86 88 86 87 94 89 82 51 40 43 44 46 46 43 37 28 21 18 20 24 26 27 27
19 20 20 20 20 21 21 21 23 26 30 37 43 49 57 59 57 57 68 68 79 85 87 87 98 92 79 46 44 45 46 47 49 50 47 40 30 24 22 22 24 24 26
16 18 21 21 21 21 22 22 24 24 27 36 42 48 58 58 60 60 65 70 74 84 85 95 98 92 73 44 45 47 48 48 50 53 52 45 36 27 25 25 25 24 18
16 17 18 18 18 24 26 25 25 25 25 29 39 47 55 56 54 54 58 61 63 84 84 87 97 85 61 46 48 49 50 50 52 54 55 51 38 29 28 28 26 25 20
18 17 17 19 26 29 27 28 27 26 25 27 28 44 47 50 58 55 51 56 56 69 92 82 92 81 54 51 50 51 51 51 54 56 57 51 38 29 27 24 25 28 31
24 20 20 31 37 38 36 32 29 29 29 29 34 38 49 54 51 54 56 62 66 85 94 86 87 63 60 52 51 52 57 54 56 57 58 50 35 28 22 22 26 36 46
29 29 31 32 31 29 28 25 29 28 26 28 33 39 44 57 59 61 61 66 89 99 94 91 74 63 55 52 54 65 67 55 57 58 58 44 32 22 21 26 34 38 40
39 37 30 29 32 28 27 25 24 21 19 23 35 44 49 61 62 71 75 83 90 98 92 92 73 60 54 64 74 64 53 56 58 60 52 36 23 20 29 35 35 32 34
46 40 32 32 36 34 30 29 30 29 30 33 38 42 55 73 68 72 85 92 90 99 96 90 68 58 77 76 64 52 54 56 59 56 39 24 20 30 34 33 28 30 36
60 51 49 44 43 42 39 36 34 32 33 49 48 59 65 75 76 83 99 95 90 96 95 84 66 71 87 59 50 52 54 59 58 40 24 21 30 32 29 27 32 38 44
58 57 56 60 60 57 50 45 41 40 47 57 59 64 70 74 85 94 86 90 89 96 90 71 77 80 68 50 51 54 58 58 45 33 26 28 24 20 24 33 40 49 68
70 68 64 61 63 64 65 66 76 79 77 84 67 83 96 96 96 92 90 90 91 91 74 83 83 76 58 52 53 59 59 45 30 27 24 17 16 22 34 44 58 77 76
83 78 77 82 83 78 84 98 92 91 91 100 96 99 98 95 92 90 89 88 92 79 86 84 78 71 74 60 61 52 40 31 27 20 14 16 19 27 35 51 68 86 92
85 81 83 86 92 98 100 100 99 94 99 96 88 88 92 90 86 87 91 85 82 83 84 94 80 55 56 62 58 36 31 24 17 15 16 15 17 29 45 53 58 88 91
80 84 86 92 97 98 99 99 100 99 99 99 99 97 87 82 84 79 76 84 90 91 92 88 92 85 69 52 32 28 19 16 18 15 10 13 22 31 41 61 88 93 96
84 88 94 97 97 98 99 95 98 99 99 95 86 82 79 73 78 88 96 98 95 96 96 97 99 83 35 31 22 17 19 17 11 11 21 35 35 42 71 92 95 96 93
83 85 85 88 86 91 96 99 100 99 89 83 81 85 91 95 99 99 99 99 100 100 97 64 39 34 27 22 23 20 16 12 14 22 26 27 42 88 96 97 100 99 90
87 80 81 87 88 96 100 100 98 99 100 100 100 100 100 100 100 99 96 76 61 49 39 35 31 25 22 26 26 26 27 36 24 21 20 31 58 100 99 98 100 96 95
94 94 98 99 100 100 100 100 100 100 99 100 100 100 98 87 63 57 59 53 54 39 34 27 20 22 22 22 20 16 17 29 29 26 40 71 97 100 99 90 82 97 98
94 99 100 99 99 99 100 99 99 100 95 77 64 54 53 56 63 86 74 42 36 30 21 19 20 18 16 10 8 11 20 28 39 62 92 99 95 76 52 50 52 54 61
94 96 100 100 98 99 99 94 95 89 67 55 54 59 74 81 54 38 38 32 22 17 18 18 17 11 8 10 16 28 36 49 73 91 98 96 81 63 52 52 55 68 77
87 90 91 84 78 74 58 56 59 67 73 74 79 70 51 39 40 38 28 19 18 20 18 16 11 11 16 26 47 76 82 94 99 99 88 61 52 49 49 52 67 76 80
53 53 52 51 48 48 65 66 63 59 67 66 54 41 38 41 38 29 20 20 19 19 16 12 11 28 38 73 84 83 99 100 100 87 63 57 57 56 57 63 75 80 82

GFSMW_850_rhum_021.txt.gz
RH
28 29 29 30 32 31 30 28 32 32 33 54 66 69 69 68 78 83 79 83 86 93 94 86 84 90 92 91 85 78 38 40 32 18 17 20 25 28 30 32 34 40 28
23 23 26 28 28 29 30 30 30 32 32 34 47 60 63 64 66 70 71 79 85 87 89 85 90 89 89 92 83 74 40 41 34 21 19 23 30 29 33 36 40 38 31
26 21 20 19 22 25 27 26 28 29 29 30 34 59 63 66 64 68 80 76 83 88 86 84 86 85 89 90 82 68 40 43 39 32 22 21 21 25 30 35 38 34 30
25 23 22 25 23 20 24 25 24 24 26 28 36 42 51 60 63 60 64 68 74 79 85 83 85 84 88 92 83 58 41 44 43 41 37 33 26 22 22 27 27 28 29
17 16 16 18 21 22 22 22 23 24 24 26 26 38 48 56 58 61 63 66 68 66 75 82 87 89 92 96 86 55 44 45 45 46 46 44 38 30 25 22 25 27 28
18 16 16 20 20 20 20 20 21 22 22 24 27 28 45 52 55 64 62 63 65 64 67 78 84 86 89 94 87 52 47 46 47 49 51 50 47 42 34 28 25 24 24
19 18 18 17 18 18 18 21 22 22 22 24 26 29 38 48 50 55 65 62 61 64 66 68 75 88 87 94 84 50 48 49 49 50 53 54 53 48 38 30 26 24 19
32 31 29 21 19 23 22 23 24 27 29 29 30 30 29 36 47 56 59 66 62 58 58 65 82 94 92 96 77 53 51 50 50 50 53 56 55 49 37 29 23 20 20
35 38 41 38 37 42 39 35 34 31 28 28 28 28 30 33 43 49 57 62 65 61 60 64 79 95 98 93 77 61 54 52 52 52 55 57 56 49 35 25 18 20 32
48 47 41 40 41 35 37 30 27 29 29 28 25 25 24 28 35 45 57 56 59 63 60 67 89 96 95 89 79 65 60 54 59 70 71 58 56 44 29 20 21 28 34
54 59 58 53 43 36 30 34 29 28 26 26 26 26 25 27 35 38 57 65 66 67 75 87 92 94 86 77 68 66 64 69 78 60 57 58 52 34 22 22 30 33 33
64 63 58 54 51 45 50 48 46 40 34 33 32 28 26 36 46 51 53 72 81 79 85 94 96 85 71 67 69 61 77 89 84 64 58 53 38 24 25 32 32 27 26
64 66 58 60 58 61 59 54 49 44 41 38 35 33 30 40 57 67 72 80 99 100 100 100 90 79 67 72 74 90 88 68 56 58 56 36 29 28 33 31 22 22 29
76 71 73 75 73 64 58 52 50 48 46 41 40 44 64 61 76 83 97 100 100 100 99 93 89 74 74 77 94 95 82 74 65 58 44 33 30 30 24 18 21 28 36
78 84 81 81 77 73 69 69 71 67 66 64 97 99 100 94 99 100 100 100 100 99 98 96 74 76 82 93 94 91 89 65 54 42 33 33 23 16 16 21 29 46 62
78 81 85 83 80 78 80 85 89 85 91 93 99 100 100 100 100 100 100 100 100 96 89 80 77 86 92 93 94 92 89 89 38 69 33 18 17 18 22 29 56 90 85
82 86 91 92 91 96 98 100 100 100 100 99 93 100 99 100 100 99 97 96 95 90 81 84 92 96 96 99 100 97 80 82 58 21 17 18 18 17 22 38 49 52 61
89 87 94 98 100 100 100 100 100 100 93 92 90 93 96 95 97 96 93 94 92 89 93 96 99 100 94 93 98 99 65 24 20 19 17 14 18 25 36 50 73 91 86
88 88 91 94 98 100 99 100 100 100 98 94 92 95 97 100 100 98 93 91 90 95 99 100 99 99 99 94 41 31 22 20 19 17 23 32 33 33 53 91 99 97 88
87 87 92 92 91 97 100 99 99 99 99 100 100 100 99 90 94 96 99 100 100 100 99 98 98 89 38 32 26 21 21 21 26 35 35 37 34 49 97 100 100 98 86
89 89 96 98 100 100 99 96 100 99 99 99 100 100 100 100 100 100 100 100 100 98 85 58 41 34 31 28 30 40 48 47 41 38 31 33 46 92 100 99 99 93 94
90 96 99 99 100 100 98 98 98 99 100 99 100 100 100 100 100 96 86 70 59 56 45 35 29 25 25 24 23 21 28 43 46 37 40 54 84 100 100 87 56 96 99
93 100 98 99 100 100 100 98 99 100 100 99 98 82 61 57 60 72 73 62 41 35 28 21 21 22 21 18 15 17 24 34 39 47 67 85 86 82 60 52 49 52 56
93 99 98 98 99 100 100 95 91 86 71 54 54 56 68 75 58 40 38 34 27 20 19 20 20 16 13 15 19 23 27 34 49 74 94 95 83 56 51 49 49 56 72
93 95 93 94 95 98 92 81 64 56 58 70 75 74 56 40 39 37 29 21 19 20 20 18 16 13 12 16 24 32 56 91 98 100 80 64 49 47 47 48 54 70 80
81 79 67 62 60 61 66 71 70 73 77 72 59 43 37 38 35 27 21 20 20 20 19 17 12 13 20 41 59 64 87 82 54 54 50 50 53 53 53 55 66 79 86

GFSMW_850_rhum_027.txt.gz
RH
31 31 31 30 31 32 30 30 30 30 34 36 43 45 40 46 61 59 61 62 66 78 85 85 71 65 77 82 83 87 92 83 75 40 31 21 18 17 19 22 24 26 27
28 26 26 25 24 26 25 25 28 32 32 33 36 36 37 37 40 51 54 60 61 62 68 80 82 83 88 82 85 90 89 86 71 40 29 24 26 21 22 24 26 28 29
26 21 20 22 23 23 22 22 23 28 32 32 34 37 40 46 43 42 46 52 60 61 62 67 70 87 90 81 79 83 85 88 79 51 31 26 26 27 27 26 27 28 30
26 26 24 21 22 24 24 24 24 24 26 28 30 35 36 41 39 37 39 45 58 65 64 64 66 66 82 82 80 82 82 88 86 62 39 33 27 26 31 31 29 30 32
38 37 35 33 28 20 21 22 24 25 25 28 27 28 30 31 32 36 43 52 53 61 63 62 63 64 73 82 82 78 75 86 86 78 48 38 33 30 29 30 36 34 34
37 36 35 33 31 29 25 23 23 24 24 26 27 28 27 26 27 30 31 33 44 54 65 67 64 67 66 73 79 84 78 81 89 83 57 44 41 37 33 33 35 36 36
45 46 45 41 37 33 31 31 26 28 28 26 26 26 26 27 30 31 40 46 42 45 50 62 66 67 67 69 76 90 89 87 94 91 63 46 42 40 42 39 42 40 37
54 58 57 56 53 48 41 38 33 37 38 35 34 34 31 33 34 30 34 46 55 66 61 56 60 69 70 69 71 94 96 92 95 90 58 55 46 54 51 48 47 44 41
62 61 58 60 62 56 50 49 44 36 38 36 33 32 32 35 37 40 45 56 58 58 64 62 66 67 68 71 72 89 100 94 95 83 74 55 70 50 54 66 62 50 40
65 62 63 65 66 66 57 53 51 45 39 40 35 33 31 30 28 28 29 38 49 56 65 64 65 73 79 81 87 100 100 96 92 82 66 58 53 65 80 79 62 61 38
68 69 70 70 76 77 71 67 63 58 52 56 54 44 38 36 33 29 26 25 26 31 54 74 86 86 96 99 100 99 100 94 82 76 58 63 80 88 84 78 82 80 47
70 72 73 78 78 81 79 75 70 65 63 60 56 52 48 41 36 33 30 28 24 24 38 76 96 100 100 100 100 100 98 87 79 63 68 86 90 95 94 90 85 93 54
75 73 75 80 86 85 84 79 76 71 66 60 56 52 49 47 43 38 35 32 36 37 50 100 100 100 100 100 100 99 91 74 67 76 91 98 100 99 85 53 50 80 96
79 82 82 88 90 91 90 82 85 85 79 74 72 67 60 50 49 48 47 57 70 90 99 99 98 99 100 100 100 93 77 72 90 98 100 99 92 90 96 98 99 97 90
79 83 85 90 95 97 95 90 88 89 87 81 87 89 85 71 69 91 95 98 98 99 99 100 100 100 100 99 92 79 78 88 93 99 100 98 99 100 99 99 86 42 31
85 86 89 91 98 94 92 93 93 87 87 99 99 99 100 98 99 99 100 100 99 100 100 100 100 100 96 91 89 84 92 98 100 99 100 100 100 100 93 44 22 29 32
90 88 92 95 96 95 93 92 95 94 93 100 99 99 100 99 100 100 100 100 100 100 100 100 100 100 99 99 97 100 100 100 100 100 99 100 84 30 23 22 23 23 31
86 91 96 98 100 100 100 100 99 96 96 94 96 99 100 98 99 100 100 100 100 100 100 100 100 100 99 100 100 100 100 100 100 99 88 38 23 21 20 18 18 26 49
91 97 100 97 100 100 99 99 100 99 100 97 98 100 100 100 100 100 100 100 100 99 100 99 99 100 99 99 100 100 100 96 66 28 23 21 19 16 16 27 44 61 81
89 98 98 90 89 97 96 96 98 97 99 100 99 99 99 100 100 100 100 100 100 100 99 99 99 99 99 99 99 78 32 24 22 18 18 21 20 23 40 97 100 99 82
84 90 88 85 91 99 97 94 95 93 96 98 99 99 100 98 99 99 99 99 99 99 99 99 99 89 56 30 26 20 20 20 16 17 22 32 43 61 100 100 87 63 90
79 82 82 80 90 100 99 100 99 99 99 99 99 100 100 100 100 99 99 99 96 80 50 33 27 25 29 32 28 24 19 14 20 28 34 39 49 73 71 59 43 39 37
84 82 79 82 92 95 98 99 99 99 90 82 77 74 70 68 62 50 38 34 31 26 22 23 25 25 22 18 16 19 26 29 28 30 38 57 52 41 36 37 38 41 46
84 83 82 84 89 91 86 81 74 60 59 69 74 63 44 39 36 34 30 23 20 20 20 20 18 17 16 16 19 26 28 28 32 33 35 33 35 38 42 42 43 48 62
88 87 90 89 88 80 64 59 60 64 74 69 52 38 36 36 31 25 20 20 20 20 20 18 18 17 17 24 25 30 36 42 45 36 40 40 39 38 39 45 57 74 80
86 84 88 86 78 69 63 68 71 74 69 51 37 36 36 31 26 23 22 22 22 21 20 18 15 15 23 35 44 49 43 42 37 38 39 39 40 45 54 68 76 81 82

GFSMW_850_rhum_033.txt.gz
RH
22 26 32 33 34 34 35 36 38 38 40 45 61 69 44 33 41 67 87 99 98 100 99 94 94 99 100 100 92 76 72 75 72 69 69 63 56 39 41 35 39 30 23
24 27 26 29 30 30 32 35 37 38 38 37 42 56 69 37 31 38 55 64 75 81 99 86 74 83 88 99 93 83 76 76 78 72 72 59 58 46 32 34 37 32 25
25 25 30 36 39 34 27 28 34 37 37 37 40 45 65 82 86 62 53 51 62 77 100 100 91 92 99 94 87 85 78 68 75 80 70 60 53 47 41 32 31 31 29
32 37 39 42 46 37 26 27 27 26 26 26 28 34 50 72 87 88 89 68 54 49 58 100 93 82 89 84 74 81 76 77 74 81 78 72 48 42 43 42 35 30 30
38 39 45 49 49 46 30 27 26 32 36 25 25 27 38 54 75 84 85 86 87 61 45 85 100 93 85 73 74 92 76 78 77 84 77 79 69 46 40 38 38 34 30
41 44 49 52 53 53 37 32 27 28 30 31 30 30 35 56 68 74 79 86 93 97 99 96 100 100 100 91 71 78 86 86 83 90 85 76 76 77 54 38 38 36 36
43 50 54 58 61 56 47 44 43 40 38 38 41 48 42 44 64 71 78 84 88 99 99 94 92 98 99 100 100 100 87 76 90 97 88 80 85 82 80 60 37 38 43
50 56 60 62 63 67 65 57 53 51 54 52 46 50 51 61 52 54 78 91 82 88 98 92 81 72 97 99 99 100 100 100 98 100 100 87 89 84 83 81 53 38 42
55 57 59 61 65 71 74 76 75 71 71 65 56 57 58 62 65 83 86 91 96 97 96 98 100 96 88 91 100 100 100 100 100 100 100 100 98 88 95 93 52 77 92
57 58 60 65 72 78 81 82 83 80 68 65 62 60 65 66 54 47 72 90 85 79 39 68 91 100 99 99 100 100 100 100 100 100 98 99 100 100 98 76 88 84 72
60 61 63 70 76 82 82 83 88 83 79 68 64 63 67 66 60 56 58 73 87 66 43 37 47 69 93 100 99 99 100 99 100 100 100 100 100 100 91 86 88 94 92
63 64 66 70 79 88 84 83 86 88 85 76 71 72 76 86 80 93 72 62 50 47 45 47 52 52 78 99 97 98 100 100 100 100 100 100 100 100 100 99 100 95 87
65 68 66 71 82 95 91 89 91 94 84 86 88 87 86 82 83 90 85 61 55 50 51 56 54 80 75 98 99 99 99 100 100 100 100 100 100 99 100 98 100 99 99
68 70 71 74 86 98 100 91 84 90 82 92 85 91 93 90 91 88 78 73 69 67 75 56 50 69 63 92 97 98 99 99 100 100 100 100 100 97 95 100 99 99 100
69 72 74 80 92 100 100 89 87 96 98 99 98 98 98 99 100 100 94 89 94 94 97 89 97 99 99 100 99 99 100 99 100 100 100 100 100 100 98 99 100 100 99
72 76 81 93 100 99 98 93 99 99 100 99 94 96 98 95 97 99 100 99 100 93 96 100 100 100 100 99 100 99 98 99 100 97 99 99 100 100 100 100 99 98 96
77 84 94 98 100 100 100 99 100 100 97 92 92 92 94 93 99 100 100 100 97 98 98 99 100 100 99 97 95 94 94 93 98 100 100 100 100 100 99 94 66 20 22
82 92 97 98 98 97 100 98 97 93 92 91 94 93 96 98 98 99 99 99 100 100 99 99 99 99 98 98 99 100 100 100 100 100 99 98 97 65 31 20 18 20 22
89 86 82 84 76 82 97 96 99 97 99 99 99 99 99 99 99 98 96 98 98 98 98 100 99 99 99 100 100 100 99 99 99 99 94 37 21 18 12 14 24 39 65
92 86 84 74 76 80 84 89 98 99 90 93 100 98 99 99 97 99 98 98 95 94 98 96 96 99 96 96 98 97 95 67 24 21 19 15 14 16 20 38 99 92 69
86 81 80 75 78 80 81 86 89 89 90 89 88 88 90 91 94 95 96 95 93 94 95 94 80 55 43 24 19 16 21 25 23 23 26 26 22 31 41 38 55 67 44
84 79 78 80 76 78 80 82 86 91 92 93 92 92 93 94 96 94 94 84 61 35 25 23 24 27 25 18 16 14 14 16 21 26 28 33 25 24 25 28 29 28 28
83 78 78 82 78 73 71 70 73 78 74 70 66 62 55 44 37 32 28 22 22 23 22 21 20 18 17 16 16 16 19 16 20 22 25 28 27 29 30 28 30 29 31
83 82 79 82 83 73 68 65 64 69 63 47 40 36 33 29 25 21 20 21 21 20 20 19 19 18 19 21 26 33 50 56 65 68 53 35 33 30 29 30 33 38 51
80 79 80 81 84 77 68 64 63 66 58 39 33 32 30 24 20 19 20 20 19 19 19 19 17 16 34 26 19 25 38 47 50 35 38 37 38 36 39 41 54 68 72
79 81 82 80 81 80 69 65 65 62 54 38 31 30 27 23 21 21 20 19 19 20 19 15 12 13 17 23 28 32 35 35 37 35 41 45 45 42 48 64 75 76 78

GFSMW_850_rhum_039.txt.gz
RH
22 22 22 24 24 24 25 32 35 36 43 54 55 62 69 64 64 72 70 72 70 81 88 76 73 86 85 78 82 89 95 91 91 92 92 71 62 58 57 58 56 54 50
24 25 26 26 26 28 28 30 32 32 34 36 38 43 50 60 64 61 68 68 72 78 83 93 92 74 86 88 83 78 80 92 98 98 88 61 61 65 61 60 60 57 52
26 26 27 27 27 27 26 26 27 28 29 30 34 37 41 44 46 49 53 52 54 58 66 75 75 85 91 89 80 76 72 73 83 98 92 64 66 64 60 59 61 60 56
28 36 40 37 34 27 26 25 26 27 29 33 37 38 39 41 42 42 42 44 48 61 66 62 69 77 82 85 90 88 82 92 85 90 98 90 73 64 63 60 62 63 59
32 38 40 42 45 42 37 32 30 30 30 30 31 31 30 29 29 32 36 44 62 77 72 71 67 84 81 88 99 100 97 84 95 99 94 85 80 74 69 65 64 62 58
40 43 45 52 52 52 46 44 41 40 39 37 36 34 32 30 32 30 31 40 53 67 78 79 80 81 90 93 90 97 98 99 100 98 100 99 91 81 75 68 68 69 62
44 50 51 53 54 55 52 51 50 50 48 48 47 47 48 50 54 48 42 36 59 74 80 81 87 89 94 97 90 90 91 98 100 100 99 95 95 96 90 85 75 68 63
51 51 55 57 57 56 54 54 55 54 54 52 53 57 57 54 54 54 53 59 52 53 67 77 79 87 93 95 85 92 90 92 95 98 100 100 100 99 100 99 95 83 74
53 56 58 57 58 60 61 61 62 63 59 55 55 59 61 63 64 59 56 59 89 93 92 81 74 79 79 69 93 96 93 91 90 82 90 90 86 89 100 100 100 100 95
55 58 58 59 62 64 65 67 67 66 63 64 69 67 64 64 66 64 60 60 62 86 92 86 69 55 42 43 64 81 89 92 94 92 99 96 99 99 100 100 100 100 100
58 59 60 62 64 66 68 68 68 69 70 70 69 70 70 71 73 77 76 73 77 76 78 74 63 50 49 53 56 58 56 53 50 67 76 87 98 100 92 96 100 100 100
59 62 63 65 67 70 72 74 75 76 77 73 73 75 76 76 77 84 86 90 87 84 80 73 61 55 54 54 64 70 76 78 77 73 70 69 66 96 100 98 100 98 99
61 63 67 68 71 74 77 78 81 84 82 77 77 77 78 78 78 80 84 88 79 76 72 70 68 71 68 66 63 73 86 89 94 95 99 77 79 99 100 99 98 98 100
64 66 69 71 73 76 80 84 90 92 86 85 87 90 96 97 99 98 100 98 91 87 81 79 79 77 82 90 85 97 97 96 94 100 100 100 99 100 100 99 100 99 100
66 67 70 72 75 80 85 98 100 99 100 99 94 92 93 96 94 97 98 99 98 91 92 90 86 86 86 88 88 84 82 85 88 91 98 98 99 100 99 100 100 100 99
67 69 72 74 75 82 98 100 100 99 99 96 85 92 89 85 86 87 86 92 90 91 86 80 76 82 77 78 80 90 91 94 97 98 97 99 98 98 98 100 100 100 100
69 70 70 68 71 83 100 99 98 99 100 99 92 83 82 82 81 84 88 80 83 84 80 82 86 83 84 89 90 90 89 90 92 97 98 99 98 100 98 97 98 97 94
68 69 66 64 66 82 98 95 98 99 98 97 94 91 91 90 90 94 93 94 93 89 83 80 84 83 85 93 99 100 99 99 99 99 98 99 98 98 99 95 57 42 38
65 67 68 63 63 71 90 99 100 99 98 100 100 92 93 89 89 92 91 87 83 81 80 81 84 84 84 91 99 98 100 98 98 95 77 52 30 22 18 20 24 32 48
67 65 65 63 63 64 77 85 82 94 96 92 88 88 88 89 85 81 81 83 84 82 76 65 58 39 34 25 21 18 18 19 20 22 20 20 20 22 25 22 28 43 51
65 67 66 64 62 64 70 77 78 76 76 73 74 77 78 77 80 82 82 66 32 20 20 20 19 19 17 16 16 15 14 14 15 17 19 24 25 25 26 27 35 46 49
66 68 66 63 62 66 73 74 71 72 75 75 74 76 78 76 62 40 22 18 18 20 20 18 17 16 16 16 16 16 15 15 20 27 32 35 33 31 28 28 29 30 29
66 68 70 67 64 64 66 64 57 52 50 50 48 42 35 31 25 20 18 18 18 19 19 17 16 15 15 18 22 21 20 21 25 31 34 36 33 31 29 29 31 30 32
72 69 71 71 69 65 65 60 58 48 38 31 29 27 25 24 21 19 18 19 18 16 17 16 14 12 13 17 23 23 24 25 29 30 30 31 32 31 32 32 36 41 51
74 74 71 72 72 73 66 61 60 59 39 30 28 28 25 22 20 19 19 19 18 17 17 16 13 11 13 16 18 22 23 25 26 27 29 29 31 30 32 37 46 60 70
72 78 77 76 77 78 74 66 64 59 48 36 27 27 26 22 20 21 22 21 20 18 18 16 12 12 15 19 23 26 27 28 30 30 31 30 31 32 36 44 57 70 72

GFSMW_850_rhum_042.txt.gz
RH
24 24 24 24 24 23 24 38 38 38 39 54 66 68 71 70 70 77 76 74 74 80 80 79 82 92 93 86 84 82 86 80 83 82 93 90 89 89 90 68 60 56 57
26 24 25 26 25 25 26 30 34 35 36 39 46 53 58 60 74 71 75 78 82 83 79 76 78 81 85 88 86 87 86 77 77 87 85 95 83 88 82 75 67 62 58
27 26 27 28 28 29 29 29 29 30 32 34 36 39 42 44 50 54 56 61 59 67 76 73 77 83 81 77 79 82 89 81 76 75 83 85 83 79 68 62 63 62 61
27 26 27 28 30 28 27 26 25 25 28 30 32 34 36 39 40 42 43 43 42 43 47 56 67 65 71 82 85 85 89 93 91 86 86 87 92 80 70 67 64 61 57
27 31 33 33 33 30 28 25 25 27 28 30 29 30 31 31 31 33 35 37 37 37 41 55 68 73 70 67 86 85 91 93 97 86 94 98 99 97 99 88 75 74 70
40 43 43 43 39 41 40 33 33 34 32 31 30 28 28 27 28 29 31 30 28 29 36 46 58 66 88 85 86 82 91 93 95 100 99 99 100 98 98 90 89 80 83
45 47 48 51 48 49 46 44 44 44 44 42 41 43 42 41 39 37 36 37 34 31 37 59 75 85 79 89 91 87 91 82 80 86 90 91 94 98 99 100 96 98 90
46 46 50 51 51 52 51 51 51 50 50 51 51 51 51 53 55 52 52 51 48 49 50 55 68 83 78 77 83 88 87 82 84 91 94 95 98 100 100 100 100 99 98
51 51 53 54 53 53 55 57 57 57 57 54 52 55 58 58 61 63 62 58 58 63 84 85 84 79 74 76 73 68 70 87 92 80 87 87 85 94 99 100 100 100 100
54 56 57 57 56 57 59 61 62 60 60 59 60 60 64 66 67 67 64 64 64 63 79 89 85 84 66 48 40 42 46 55 62 75 84 87 85 78 87 97 99 99 100
53 57 59 60 61 62 65 68 69 69 68 66 66 66 69 72 73 74 76 79 78 79 76 81 80 70 59 50 49 51 54 55 58 62 62 76 91 100 100 100 100 100 100
56 59 61 63 64 66 69 72 73 74 75 72 70 69 69 72 75 78 84 89 85 82 85 82 77 70 62 60 61 63 63 69 75 74 79 95 100 99 98 98 98 100 100
62 64 65 66 68 71 73 74 76 77 80 79 75 75 78 82 83 81 80 85 81 75 79 76 73 71 69 69 70 68 72 73 79 90 100 98 99 98 97 99 99 100 98
64 65 66 69 71 73 74 77 81 86 89 86 84 87 90 93 98 99 98 100 94 91 87 85 82 78 75 76 78 82 83 85 90 91 91 91 96 100 100 100 99 97 98
66 66 67 67 68 70 76 80 96 100 99 98 95 93 94 95 93 96 97 99 99 96 91 85 80 78 78 77 76 77 76 79 74 78 81 90 96 96 93 92 97 100 99
66 67 67 67 67 68 74 93 100 99 98 97 91 94 91 87 88 85 82 83 85 80 80 78 77 78 73 74 77 85 88 93 94 93 90 88 93 93 92 93 99 98 99
64 64 66 65 63 68 78 96 100 100 100 98 91 84 84 81 82 79 77 74 80 83 86 84 83 81 82 84 88 94 95 96 94 95 97 97 96 97 96 95 96 99 100
63 64 64 62 64 72 84 88 98 99 99 94 87 84 85 86 87 86 87 90 90 85 81 78 77 74 77 86 90 100 99 95 93 93 91 93 94 92 92 93 86 57 38
61 64 63 61 64 72 80 86 98 99 99 100 93 87 90 88 91 98 93 85 80 76 75 75 70 67 53 42 33 34 24 34 35 36 32 26 19 17 13 12 14 17 23
61 61 60 60 64 67 73 72 76 91 99 99 100 93 92 97 94 85 81 79 76 49 25 17 16 16 16 16 15 14 14 15 14 15 17 19 19 19 19 19 24 31 40
61 64 62 62 64 64 64 66 66 64 75 77 80 93 92 84 79 78 76 39 18 16 15 15 14 14 14 14 12 11 12 14 15 17 19 22 23 24 24 24 24 28 32
61 63 63 62 63 64 65 60 57 64 71 76 80 80 79 80 62 37 18 17 17 16 15 14 15 13 12 12 13 15 16 16 22 27 28 28 25 26 27 28 28 28 28
63 64 65 62 62 62 61 56 47 54 67 72 70 58 57 39 22 18 17 17 17 17 16 15 14 12 11 13 15 19 21 25 26 31 30 31 31 32 29 30 32 30 32
69 68 69 68 65 64 62 59 48 41 39 44 39 32 28 23 19 17 18 18 17 17 17 16 14 10 10 12 15 18 22 26 28 30 31 31 32 34 35 34 37 41 51
76 74 72 71 70 69 65 61 52 47 36 32 27 26 24 22 19 17 18 18 18 17 16 16 14 10 11 14 17 20 24 27 28 30 32 31 31 32 33 38 45 56 69
69 75 76 76 74 74 72 67 63 55 51 37 27 26 25 23 20 19 19 20 20 19 17 17 14 11 12 16 20 24 27 29 30 32 34 32 30 30 33 37 46 58 70

GFSMW_850_rhum_045.txt.gz
RH
29 27 26 25 25 25 31 40 46 60 69 72 75 82 77 79 82 82 87 92 88 84 86 86 87 87 88 90 94 95 92 89 86 86 81 78 81 87 82 84 77 73 82
28 25 25 26 26 26 26 29 35 42 42 42 48 62 67 70 67 63 68 76 84 83 80 82 82 83 84 84 85 82 81 82 83 86 88 91 81 76 68 74 71 69 79
27 26 26 27 28 28 29 30 31 33 35 36 38 42 50 52 52 54 54 68 78 82 86 81 79 84 86 79 83 86 85 86 88 91 97 99 86 79 77 74 72 67 64
30 27 27 27 30 30 30 30 30 29 29 29 30 33 35 37 39 40 40 42 45 47 48 46 47 54 58 61 70 76 77 90 91 97 98 97 100 100 96 90 80 75 75
30 28 28 29 30 31 30 29 28 28 28 30 32 36 37 36 34 34 35 35 36 38 39 40 41 41 56 64 74 81 91 90 92 98 99 100 100 100 100 99 94 89 88
30 32 36 35 34 35 35 33 31 30 29 29 32 34 35 34 32 31 31 31 31 31 31 30 34 38 57 70 85 90 91 90 83 79 80 96 98 100 98 99 94 95 87
32 38 38 42 41 40 43 42 40 39 39 38 39 40 40 40 40 40 39 39 37 35 35 36 38 60 79 80 95 84 86 80 76 84 85 84 81 82 89 100 98 100 97
42 43 44 44 45 47 47 45 44 45 45 44 43 44 45 46 46 47 49 52 52 50 47 48 54 62 75 98 94 90 78 81 88 81 91 80 82 84 88 94 100 99 99
48 47 51 51 51 50 50 51 51 51 51 51 49 49 50 48 50 55 58 61 61 60 59 68 81 74 79 80 82 83 81 74 59 72 86 93 99 100 88 98 100 100 100
52 54 55 55 54 54 54 55 56 58 59 60 58 57 58 60 63 64 67 70 71 68 66 68 91 83 78 78 63 50 45 48 50 56 60 67 70 94 98 99 98 100 100
50 53 56 57 58 59 60 60 61 64 66 68 69 68 66 66 67 71 73 75 77 80 81 80 83 84 75 68 59 53 52 53 55 59 61 62 69 97 100 97 98 96 95
50 56 57 58 61 62 64 66 70 71 71 72 73 74 71 70 71 73 76 82 83 82 82 81 81 77 74 67 63 61 61 62 62 61 61 64 92 100 98 98 98 98 98
58 59 60 62 64 66 68 72 74 74 75 75 78 80 78 80 81 82 81 81 83 82 81 82 80 76 73 70 67 67 68 68 68 72 77 82 86 91 92 96 99 99 98
51 58 62 63 64 66 70 72 73 75 80 88 88 88 90 92 94 99 98 98 99 98 93 88 84 80 75 74 74 76 77 77 78 80 79 79 78 81 91 94 98 98 100
59 60 62 63 67 68 69 72 75 89 100 98 95 95 94 96 96 97 99 98 99 100 94 89 81 78 77 75 75 76 78 79 78 75 78 82 89 94 92 95 100 99 99
55 60 64 67 68 66 65 69 85 100 99 99 97 94 93 89 89 91 87 95 98 92 87 83 79 77 74 74 76 82 84 85 85 87 90 94 99 98 100 98 98 98 98
54 60 63 65 66 62 62 73 97 100 99 100 94 93 86 85 84 82 81 86 90 88 85 81 78 77 78 77 76 81 88 90 89 92 94 96 96 96 95 92 91 95 96
55 62 64 64 62 59 65 78 96 100 100 100 96 89 86 84 85 86 81 85 87 82 79 76 74 73 66 55 49 47 45 46 55 68 82 80 73 64 54 42 41 38 30
55 60 63 63 58 59 66 74 89 99 98 97 92 88 91 95 92 87 88 83 76 75 77 67 40 18 15 14 13 11 11 12 15 16 17 17 17 16 14 15 17 18 23
59 61 61 58 57 59 63 68 82 97 100 99 98 98 96 92 91 86 79 75 73 36 19 15 13 12 11 11 10 9 9 10 11 12 14 17 18 21 20 16 19 19 22
60 61 60 57 58 60 61 61 67 74 80 95 93 89 92 87 81 78 78 40 20 16 14 13 12 11 9 9 9 10 11 12 13 14 17 20 24 22 22 22 21 24 23
62 60 58 58 59 60 60 59 60 69 75 74 73 74 75 77 77 71 26 18 16 14 14 13 11 10 9 10 10 12 14 14 16 19 22 25 28 27 26 25 27 29 28
62 61 61 62 61 61 58 53 57 61 70 69 63 64 69 66 43 22 19 18 17 15 14 14 13 10 9 10 12 16 17 19 19 22 23 25 26 25 24 27 28 26 29
66 64 65 66 63 62 60 58 56 55 55 56 52 42 39 31 21 19 19 18 17 16 16 15 14 12 10 11 13 15 17 20 22 22 25 27 28 29 29 30 30 32 38
78 80 78 68 67 66 66 66 61 55 44 41 39 32 27 24 22 21 19 18 18 18 17 17 15 12 10 11 14 16 17 19 22 24 27 31 29 29 28 29 32 40 50
66 70 75 78 76 71 71 68 64 57 48 39 33 28 26 25 23 21 19 18 19 20 20 18 17 12 10 12 14 15 18 23 26 26 27 32 30 28 27 28 31 38 47

GFSMW_850_rhum_048.txt.gz
RH
33 30 28 27 27 40 44 58 73 77 80 81 82 84 80 80 84 83 80 79 83 87 93 91 89 88 86 84 87 89 86 87 85 89 83 80 79 81 78 78 74 73 76
32 32 27 27 26 25 27 33 41 53 66 78 84 84 78 78 80 82 82 85 81 83 92 93 89 80 85 81 83 86 88 88 84 93 100 98 93 90 84 79 74 73 75
33 32 28 26 26 26 26 28 32 38 50 57 57 53 52 61 70 81 86 82 77 84 90 87 86 88 91 83 80 85 81 83 82 88 100 94 88 85 85 84 85 83 84
32 31 29 28 28 29 30 31 33 34 34 34 35 35 35 36 38 40 43 47 47 47 48 50 53 54 51 50 55 67 74 83 81 90 91 96 94 100 96 94 88 91 80
34 30 29 30 29 30 31 31 31 30 30 30 29 28 28 29 32 35 35 35 35 36 38 40 40 40 40 42 47 74 78 86 93 90 90 85 97 100 100 99 98 84 85
34 34 31 34 33 33 33 32 31 30 29 29 29 29 30 31 30 30 29 30 29 30 31 32 31 31 33 38 45 83 85 84 80 86 80 81 88 90 97 99 98 100 88
37 34 31 34 38 38 39 40 40 39 38 38 38 39 39 39 39 39 38 38 38 39 39 38 37 35 36 46 66 72 87 89 95 79 74 78 80 93 95 91 91 86 90
36 32 33 37 42 43 44 46 46 46 47 47 47 47 47 46 45 45 45 45 46 47 50 52 51 53 64 70 81 81 99 94 82 78 86 78 84 100 98 100 99 98 90
36 42 50 50 48 49 49 49 49 51 52 53 54 54 53 51 50 51 52 55 56 56 56 60 64 86 88 86 85 84 81 82 87 87 67 72 94 98 98 99 91 97 98
49 54 55 52 52 53 52 52 53 54 55 56 59 61 61 59 57 57 59 62 65 66 68 69 72 84 93 84 82 73 62 56 57 59 60 60 63 60 78 99 97 98 97
54 56 57 56 56 56 55 57 59 59 60 62 64 66 67 67 64 64 65 68 74 80 81 83 84 86 89 84 76 70 62 61 62 63 61 60 58 62 78 97 99 98 98
53 53 53 55 56 57 59 61 62 62 66 68 69 69 71 74 72 71 73 76 80 84 85 86 85 83 82 78 73 69 67 67 66 65 64 66 72 78 87 93 97 99 99
52 58 59 58 59 61 63 65 65 68 68 68 68 71 76 81 82 82 84 85 84 86 86 85 87 84 78 73 72 70 71 72 72 73 75 78 82 85 90 93 97 100 98
51 57 58 58 60 63 65 67 70 69 68 70 79 86 88 92 95 96 98 99 98 100 99 94 88 83 80 77 76 76 78 79 81 79 78 81 84 88 90 91 90 95 99
53 52 53 58 62 62 63 69 69 67 73 92 95 94 96 96 97 98 98 99 98 98 100 93 88 83 79 78 78 78 79 82 84 82 83 86 88 85 88 90 97 98 99
38 37 51 59 61 64 68 68 66 72 89 98 99 98 95 94 91 92 93 100 99 100 94 88 84 79 78 79 79 80 82 82 82 82 83 86 88 88 90 92 92 91 93
33 37 47 55 60 65 66 63 67 81 96 99 99 98 92 89 89 87 87 92 95 93 88 83 82 79 75 73 69 71 74 76 78 79 84 85 84 86 88 89 86 85 78
33 40 52 58 63 64 62 61 73 88 100 99 100 99 91 90 85 86 86 87 90 88 85 79 70 53 21 14 13 11 12 12 13 14 16 19 19 17 16 15 16 17 19
37 45 54 61 63 61 58 65 77 91 99 100 100 99 92 92 90 90 88 89 85 83 79 46 16 12 9 8 8 8 8 8 9 10 10 12 15 17 12 14 15 18 21
45 52 58 61 61 58 59 64 74 85 95 99 99 98 94 97 94 90 89 80 80 52 18 14 12 10 8 7 8 8 9 9 10 11 13 16 18 17 18 16 18 20 20
52 55 60 59 58 57 60 63 67 71 83 97 99 98 93 92 89 84 80 70 23 16 14 12 12 11 10 9 9 9 10 11 11 12 14 17 20 19 18 17 18 20 18
53 59 61 58 57 59 59 61 62 67 71 76 86 93 92 90 80 80 63 18 16 14 13 13 13 12 10 9 9 11 11 12 13 15 16 18 20 18 20 20 23 23 22
59 63 60 59 60 61 59 58 61 61 64 67 72 77 82 78 78 62 19 16 16 14 14 14 14 13 10 10 10 12 13 15 15 17 18 20 20 20 21 23 24 22 26
65 62 62 61 62 62 61 59 58 56 58 60 64 69 74 71 55 24 18 17 17 17 16 15 15 14 11 10 11 13 15 16 18 18 19 19 20 22 21 22 22 25 28
76 81 72 72 70 67 64 62 59 51 47 50 54 56 54 48 30 22 20 18 20 19 18 16 16 15 12 10 11 13 14 15 17 15 19 21 23 22 22 22 23 26 32
73 77 81 89 85 79 71 68 66 62 54 44 42 42 38 32 26 24 22 20 19 18 19 19 18 17 14 10 11 13 14 16 17 18 20 21 22 23 22 23 23 26 29

GFSMW_850_rhum_051.txt.gz
RH
41 31 31 32 52 64 64 66 69 73 76 77 76 75 71 76 76 76 80 84 85 87 90 92 94 96 92 83 79 80 83 82 80 86 73 71 78 79 76 78 76 77 77
49 31 32 29 28 31 50 51 57 63 66 66 69 70 71 72 73 73 78 83 83 83 84 80 76 84 91 91 84 87 88 86 84 89 97 95 82 75 77 79 77 75 76
49 37 31 31 28 27 29 35 37 44 51 57 63 68 75 76 70 66 74 80 84 88 89 86 86 88 90 89 88 93 85 80 86 81 92 93 81 82 79 81 80 77 79
46 38 32 31 28 28 28 29 32 35 40 48 58 63 57 49 44 42 43 48 52 55 55 54 53 51 51 51 52 53 57 70 83 92 92 93 98 100 96 95 88 86 88
42 40 36 31 31 32 32 33 34 35 35 34 34 34 34 33 31 31 31 34 36 37 38 37 37 37 37 36 37 39 44 59 93 85 88 88 80 84 100 96 87 97 73
39 36 36 31 30 32 34 34 33 33 32 31 30 29 28 28 28 28 29 29 30 31 32 31 31 30 30 30 32 38 41 75 97 90 95 93 88 87 100 98 97 98 96
35 35 37 32 30 32 35 34 34 34 34 33 33 33 33 34 34 35 34 34 34 36 40 40 41 41 40 38 38 42 68 76 93 95 95 88 84 91 99 99 97 97 98
29 31 38 34 34 37 38 39 40 40 39 38 39 40 42 43 43 42 41 40 40 40 42 46 48 51 57 67 68 67 97 82 97 98 89 76 82 92 84 97 98 95 97
30 32 40 39 43 45 46 45 44 43 43 46 48 49 50 51 51 50 48 47 48 50 52 53 55 62 78 89 87 83 86 91 94 84 80 83 80 70 94 99 98 100 100
34 38 42 56 56 52 49 48 48 48 50 52 53 55 56 59 60 59 58 57 59 60 62 64 67 72 80 90 90 81 79 73 67 60 54 56 68 71 86 86 97 100 99
40 45 56 60 55 52 51 52 52 56 58 58 59 61 63 64 66 67 65 66 68 70 72 75 80 84 89 90 86 78 72 66 61 62 63 66 66 66 66 72 91 99 99
51 56 62 59 56 54 53 54 57 60 61 62 65 65 65 67 70 73 73 73 74 77 78 82 86 88 88 86 83 79 75 73 73 73 71 70 71 74 77 81 90 100 98
59 62 62 58 56 57 58 58 61 62 62 65 64 63 65 71 76 80 82 83 84 82 82 85 86 86 87 82 79 77 77 78 76 76 76 77 77 78 79 82 91 99 99
51 56 55 55 57 59 62 64 66 66 67 65 62 66 76 84 89 94 97 98 98 98 99 94 93 91 86 83 81 78 79 80 81 81 80 77 79 79 81 83 87 95 99
45 48 50 52 58 62 64 64 67 70 68 62 70 84 91 95 96 97 98 98 98 98 100 100 93 89 84 80 77 76 78 81 83 83 81 80 82 81 83 86 89 96 99
40 44 48 57 57 60 64 66 68 70 64 68 84 95 96 95 95 93 93 100 99 100 100 96 87 81 78 74 75 78 80 82 82 83 81 84 86 87 84 83 83 83 84
34 42 45 40 44 57 63 67 69 63 67 80 94 98 97 92 91 93 93 99 100 99 92 88 83 79 74 68 67 70 67 65 63 56 61 63 63 65 55 49 33 21 16
41 37 41 39 52 60 64 68 64 62 73 87 99 98 97 91 90 92 90 94 95 96 92 85 76 54 23 12 11 10 11 10 11 10 12 12 12 11 14 13 14 15 16
34 34 37 41 54 59 65 64 59 68 78 92 99 100 97 94 94 92 92 92 96 91 82 66 22 12 10 10 9 8 8 9 9 10 10 11 12 13 11 13 14 15 17
35 32 38 52 59 63 64 59 61 72 78 91 100 100 100 100 100 98 96 92 84 78 30 14 10 9 9 8 8 8 10 11 11 11 13 14 14 15 14 14 17 18 18
40 41 49 55 60 63 58 57 61 67 78 89 99 100 100 100 100 100 92 80 62 22 13 12 12 11 8 9 9 9 11 12 13 14 14 15 17 15 16 15 18 17 16
49 56 58 60 62 59 57 58 61 68 71 81 97 100 100 100 100 98 82 60 18 16 15 15 13 11 10 9 10 10 10 12 13 13 14 16 17 19 20 20 20 19 20
61 62 63 64 60 60 59 58 61 62 65 71 80 92 97 97 93 82 73 19 17 16 16 14 13 12 12 11 10 11 12 12 13 14 14 15 17 20 22 22 20 19 20
63 64 65 62 60 61 60 61 59 58 60 64 67 76 83 81 78 77 33 18 18 17 16 14 15 14 14 11 10 11 13 14 14 15 17 19 20 21 20 21 21 21 24
67 68 76 77 71 68 70 75 65 59 52 52 58 61 67 69 65 48 21 18 19 18 17 16 16 16 15 13 10 11 12 12 12 13 18 19 20 23 22 21 21 22 24
75 81 84 87 90 95 89 83 68 66 62 53 46 46 52 50 46 32 21 19 20 19 18 19 19 18 17 16 11 11 12 12 13 16 20 20 20 20 21 21 22 22 23

GFSMW_850_rhum_054.txt.gz
RH
41 42 34 34 63 63 65 62 66 70 76 73 77 80 74 75 78 79 81 84 86 87 86 84 84 89 91 93 95 93 88 84 85 85 82 92 92 93 88 74 72 73 76
46 41 37 34 31 51 60 63 66 72 78 81 80 79 77 78 87 85 82 83 83 85 85 82 80 81 81 78 85 93 92 87 89 95 98 92 71 74 73 74 74 73 80
42 43 44 34 31 29 35 51 56 60 64 67 71 70 72 72 77 77 76 69 68 70 73 77 81 87 91 85 89 91 91 89 88 74 96 94 65 77 82 82 77 78 82
48 47 43 36 32 29 29 32 45 53 53 58 65 65 69 75 72 71 57 52 49 48 50 53 58 58 57 53 50 47 51 60 71 69 78 98 99 98 96 91 86 87 84
51 46 43 41 36 31 30 30 33 38 44 51 54 53 51 45 39 36 35 34 32 32 33 37 38 38 37 36 33 34 35 39 45 61 99 96 92 100 97 99 90 93 85
45 42 42 40 38 33 30 32 35 38 37 35 33 32 32 31 31 29 28 28 28 30 30 30 31 31 30 30 31 32 32 37 46 58 100 98 94 96 98 93 89 90 86
41 44 45 39 37 33 31 34 36 35 34 33 31 30 30 30 30 31 32 34 35 37 39 39 40 40 41 42 43 43 41 43 68 71 99 100 100 98 98 99 99 92 96
36 42 41 41 40 34 33 37 38 37 35 34 35 35 35 36 38 39 40 40 40 40 40 41 42 44 47 52 60 64 62 64 98 100 100 100 100 100 99 99 99 98 98
34 30 31 39 41 37 41 42 41 41 40 39 38 39 42 44 46 46 46 47 46 46 46 48 49 51 57 70 90 90 90 95 97 96 100 100 96 98 94 96 96 98 96
34 30 32 40 45 46 50 48 49 46 43 42 44 47 49 49 51 53 54 56 56 55 56 58 61 64 70 77 86 89 84 78 82 87 87 80 70 61 61 74 97 99 98
46 52 54 56 56 55 53 52 50 48 47 50 53 53 54 57 58 59 62 64 64 64 65 66 71 78 84 88 86 86 80 73 68 62 61 60 60 64 66 73 78 85 99
38 58 69 59 61 59 56 55 53 54 55 57 58 59 61 59 58 60 64 69 72 73 74 75 78 81 82 84 83 79 76 74 70 69 69 70 70 72 76 78 81 88 99
38 46 56 63 60 57 54 54 54 54 58 60 60 63 62 60 62 65 70 77 82 83 81 80 83 83 82 82 81 77 75 74 73 72 71 74 75 77 79 81 84 93 99
55 58 54 58 59 56 54 56 57 58 60 62 64 65 61 64 74 82 90 94 95 95 98 97 91 87 87 85 81 78 77 76 76 77 77 77 76 76 79 82 81 83 94
49 59 53 53 54 55 55 56 59 62 64 66 69 64 67 80 88 95 97 95 96 98 98 98 100 96 91 85 81 77 76 77 77 78 77 76 75 75 76 77 78 85 91
42 47 50 51 48 49 54 58 60 63 66 70 65 66 81 88 92 93 94 94 97 99 100 100 100 93 85 80 78 79 79 82 83 80 78 77 71 70 71 71 73 78 79
42 45 38 39 42 47 51 58 61 64 68 67 65 78 89 93 94 93 94 94 98 100 100 99 89 85 82 74 74 77 78 73 66 58 52 50 49 49 36 25 16 13 13
46 44 46 44 42 49 53 58 65 68 69 64 72 82 92 94 90 91 90 97 100 100 98 93 86 77 62 29 16 14 10 8 8 9 10 12 14 13 13 13 15 15 17
48 51 47 40 42 47 48 61 66 70 64 68 78 89 98 96 91 90 93 96 99 99 95 88 62 22 10 7 6 6 6 6 7 8 8 11 13 12 13 14 17 19 18
55 48 40 37 42 43 54 63 67 64 62 73 80 96 100 100 98 99 99 100 99 95 89 56 19 12 9 7 7 8 8 9 9 9 12 12 12 14 12 16 20 19 20
48 46 42 41 40 48 59 65 65 60 69 79 83 99 99 100 100 99 99 100 96 88 44 18 12 10 9 9 8 8 10 11 10 12 13 13 12 12 14 16 19 19 19
56 47 46 47 53 59 64 64 59 64 70 75 82 95 99 100 100 100 99 94 85 45 20 15 13 11 10 10 10 10 10 10 12 12 12 13 14 15 16 18 18 16 18
64 61 60 60 63 64 63 58 60 61 64 69 74 86 98 99 100 99 94 83 42 21 16 14 14 13 12 11 10 10 11 11 11 11 11 12 12 16 18 18 18 19 20
66 66 67 68 67 63 61 66 62 59 60 65 71 77 89 97 99 98 87 73 21 17 15 15 15 15 14 13 11 11 12 13 13 12 13 14 15 17 20 20 19 18 19
67 67 67 66 64 63 65 68 72 70 65 59 64 70 78 88 90 84 79 54 18 18 17 17 16 16 15 15 13 10 11 13 13 12 15 18 19 19 19 19 19 19 19
70 69 79 90 87 93 92 87 87 88 72 60 51 50 59 66 72 75 72 40 19 20 19 20 19 18 18 17 17 12 11 12 12 14 17 19 19 20 20 20 19 19 19

GFSMW_850_rhum_057.txt.gz
RH
35 46 40 37 49 88 95 73 67 74 81 95 89 94 96 97 97 98 96 93 92 98 98 96 99 100 100 100 100 100 100 96 99 99 79 84 90 83 89 84 83 81 81
33 46 40 33 37 57 91 93 68 69 71 94 91 94 95 98 98 98 97 88 95 100 100 100 100 99 100 96 97 100 100 99 99 98 99 97 72 68 77 74 73 78 78
32 42 42 33 33 36 63 92 94 82 95 94 99 95 88 81 77 80 78 78 72 78 78 80 83 85 95 90 88 96 99 98 98 98 99 91 70 72 74 81 86 84 83
34 37 44 34 33 32 30 46 62 59 61 66 72 75 78 82 92 84 66 72 69 62 57 52 47 45 47 47 48 48 48 51 77 97 99 99 98 92 87 85 86 87 86
37 38 43 37 37 32 31 29 32 40 50 64 72 80 83 79 73 71 60 44 38 35 33 31 29 30 33 36 38 37 36 36 39 79 99 97 96 99 99 97 80 87 83
36 42 47 46 42 39 35 31 31 33 35 38 50 62 62 55 44 37 34 32 30 28 28 27 27 28 29 30 29 31 33 38 48 52 98 87 84 97 99 97 95 89 84
32 38 44 46 47 40 38 34 32 36 35 39 40 38 36 34 32 30 30 30 31 31 31 30 32 34 36 36 37 40 43 44 51 79 99 97 87 92 100 98 95 92 94
28 35 43 46 48 40 38 36 38 37 43 33 36 35 33 33 33 33 33 34 36 38 38 39 39 39 39 43 46 67 71 72 77 82 94 98 99 98 100 100 98 100 95
28 33 42 50 54 50 43 38 40 42 40 40 38 36 36 35 35 38 42 44 45 46 47 47 47 47 50 54 61 84 92 94 97 96 94 89 84 100 100 98 99 99 94
34 34 38 40 52 48 46 47 46 43 40 42 42 40 39 41 45 48 49 51 54 54 56 57 57 58 61 66 72 85 92 91 97 100 99 98 100 98 85 78 82 84 91
38 43 46 47 54 55 56 46 48 48 44 43 43 45 48 50 50 53 54 53 56 60 63 65 67 69 72 78 83 88 87 87 79 76 75 70 70 64 66 68 72 73 81
45 52 56 65 72 76 63 56 53 50 47 46 47 51 51 51 54 57 55 54 58 62 68 72 76 80 80 83 89 83 84 81 80 75 75 73 74 73 73 74 72 74 79
48 55 66 70 76 71 69 59 55 51 48 48 51 55 55 56 58 58 55 58 67 72 76 80 82 82 85 88 89 89 86 84 80 78 78 76 75 72 73 75 77 78 88
36 50 61 67 72 70 63 59 54 53 53 54 56 58 60 63 62 64 68 76 83 89 90 90 92 92 88 90 92 90 85 82 79 78 78 77 77 76 74 76 81 85 94
38 41 55 61 68 64 57 54 54 55 56 58 60 62 64 63 60 69 80 89 92 93 94 97 98 99 98 94 90 86 82 80 79 79 78 78 77 76 78 82 83 90 90
37 40 42 57 61 68 55 54 54 55 58 60 63 64 65 60 67 80 88 92 92 92 94 98 99 99 98 90 85 80 77 78 79 79 80 78 70 67 65 70 72 78 78
43 42 41 47 58 63 54 49 53 56 58 62 65 67 63 65 78 88 92 93 91 96 99 100 99 96 86 79 79 78 78 79 80 74 63 51 45 32 22 16 10 9 11
48 45 44 43 50 60 63 55 55 60 63 66 70 68 65 76 88 92 91 90 94 99 99 100 94 87 81 73 74 69 49 30 22 19 17 15 10 9 9 8 9 9 10
55 54 46 45 49 58 60 53 55 59 63 68 71 66 72 83 92 92 92 94 100 99 100 100 89 82 57 14 8 8 10 9 9 10 10 9 9 9 11 10 11 11 14
65 65 55 53 52 63 67 61 54 54 62 67 64 65 74 84 96 94 94 98 100 100 100 99 81 32 15 8 7 8 9 10 10 10 10 10 10 9 9 10 10 15 21
74 63 62 55 57 66 59 59 50 58 64 64 61 68 73 94 100 100 99 100 100 100 98 90 42 16 10 8 8 8 10 11 11 11 12 12 12 12 10 9 11 17 18
66 68 70 66 57 51 55 58 61 65 64 60 63 67 77 97 100 100 100 100 100 99 87 46 19 12 10 10 10 9 10 10 10 12 13 13 13 12 10 11 13 13 13
68 71 75 68 61 60 66 69 68 63 59 61 64 69 79 96 100 100 99 100 99 88 60 21 14 12 12 11 11 10 10 11 11 12 13 12 11 11 12 14 15 14 14
76 70 74 75 72 70 70 71 64 61 63 64 65 66 76 93 100 100 100 100 91 77 29 16 14 14 13 13 13 12 12 12 12 14 15 13 12 12 15 15 16 16 16
82 73 71 72 71 68 66 64 64 66 66 69 70 66 67 77 95 99 97 94 82 58 20 16 16 16 15 15 15 14 12 11 13 14 13 13 16 17 16 15 16 17 16
85 75 74 72 72 84 88 81 72 74 81 90 88 74 56 66 75 88 93 89 83 51 20 18 18 18 17 17 17 17 15 12 12 13 14 18 21 19 18 17 17 17 18

GFSMW_850_rhum_060.txt.gz
RH
35 41 41 43 67 91 92 87 80 80 85 88 89 96 90 91 92 93 94 96 99 99 100 95 99 99 96 97 97 95 99 98 99 100 100 99 86 76 70 80 83 84 84
35 40 41 40 42 70 82 92 74 74 78 82 81 88 92 88 87 90 91 95 96 99 97 98 98 94 96 98 98 99 98 96 94 95 94 89 83 66 63 79 84 75 73
37 39 42 40 39 44 73 86 89 80 81 81 88 94 96 96 94 96 95 99 96 95 89 87 90 91 99 99 96 95 97 97 97 95 98 87 82 82 78 79 78 78 81
33 35 38 41 40 37 46 72 85 96 96 94 89 72 67 81 86 90 90 77 70 77 80 72 59 50 43 37 35 37 42 48 57 74 85 98 98 84 79 77 82 78 86
34 35 42 40 40 33 33 36 59 69 64 66 67 66 70 85 86 94 91 82 78 57 40 36 33 30 28 29 33 37 38 39 42 52 74 97 95 96 92 86 81 84 76
34 35 45 44 37 34 32 31 31 43 64 64 65 70 70 75 79 81 79 55 37 32 30 28 28 28 28 30 30 32 35 38 44 73 95 97 95 86 85 88 89 86 77
32 34 39 48 46 40 37 35 32 32 41 56 35 36 55 56 55 44 36 32 31 31 30 30 30 32 34 36 38 38 38 42 48 47 63 82 92 95 92 93 92 100 94
27 31 38 40 46 46 42 40 37 32 35 46 37 37 45 37 34 32 31 33 32 33 35 37 40 42 42 42 43 46 47 63 87 90 94 89 90 95 98 99 100 99 98
27 29 41 44 46 46 44 40 37 35 34 34 37 38 39 36 35 33 33 37 40 41 43 44 45 48 49 50 50 54 57 95 99 98 97 99 99 100 95 98 96 100 99
33 32 31 40 49 47 48 48 42 41 40 37 36 40 40 36 34 38 42 43 46 46 48 51 53 56 57 60 64 71 80 95 99 99 99 100 97 97 94 100 96 79 97
40 43 44 41 44 54 56 56 59 54 46 46 50 40 37 37 43 46 48 47 49 50 48 49 54 62 67 71 78 81 89 96 92 95 100 99 99 98 89 79 71 75 81
36 41 50 54 52 59 64 68 66 59 56 51 50 48 47 44 42 41 44 52 55 55 51 57 63 69 71 77 90 84 86 93 92 86 84 78 80 78 75 77 75 76 73
38 40 37 53 57 59 60 64 66 62 59 54 50 45 45 47 52 52 55 58 56 56 59 63 73 79 79 82 84 91 89 90 89 87 82 83 78 76 76 77 76 78 81
37 38 43 50 54 55 64 65 62 59 54 52 48 49 52 55 54 57 60 58 60 63 70 80 85 89 89 88 90 95 95 93 89 86 83 81 80 77 79 78 78 79 84
41 39 38 44 52 58 59 65 66 62 56 54 54 54 55 58 60 62 58 60 73 82 88 90 92 97 98 100 99 100 97 92 90 86 84 85 82 78 76 74 74 76 78
45 44 43 41 48 54 58 59 60 58 55 55 56 57 59 61 62 61 60 71 83 88 90 92 93 96 98 100 100 96 93 88 86 84 84 86 83 80 72 66 67 62 67
57 54 49 47 43 50 57 60 59 61 58 59 60 62 65 65 65 59 67 79 86 90 90 94 98 100 100 96 90 88 86 89 91 90 88 77 63 44 26 18 13 11 10
60 60 57 51 47 44 55 60 62 62 62 61 62 62 64 65 60 63 76 83 89 89 96 98 100 100 94 90 88 85 87 84 73 53 35 23 17 13 11 10 10 10 9
69 65 64 53 51 48 48 58 63 65 66 64 63 64 65 66 61 69 81 86 90 97 98 98 100 98 89 80 66 41 21 17 11 10 9 9 10 11 13 11 11 12 13
75 70 64 57 56 53 53 55 59 66 65 70 67 66 68 60 63 71 85 89 97 99 99 99 100 94 66 20 10 8 7 9 10 10 11 12 10 10 10 10 12 15 15
78 74 66 64 65 59 54 59 66 67 68 71 71 70 64 61 68 81 97 99 100 99 100 100 97 68 24 11 9 8 9 11 12 12 13 13 12 10 9 9 11 16 16
79 79 71 71 67 69 69 71 71 72 71 72 73 67 62 67 74 96 99 99 100 100 100 99 92 44 15 10 10 9 9 10 12 12 13 12 12 10 8 9 11 13 13
80 84 80 78 73 73 72 74 74 75 78 77 70 64 67 68 80 98 100 100 100 100 100 97 70 24 12 12 12 11 10 10 11 12 13 11 10 10 10 11 12 12 13
87 90 86 80 79 76 75 79 77 78 77 70 69 66 62 66 80 96 100 99 100 100 96 86 35 17 14 14 13 13 13 12 12 13 14 14 13 12 12 12 14 14 14
93 96 91 85 84 81 79 78 73 70 66 70 70 68 67 65 70 72 89 95 99 100 91 65 25 16 14 14 15 15 15 13 12 12 13 14 14 15 15 15 15 15 15
97 92 98 90 85 81 76 75 78 75 70 69 70 72 75 77 64 66 80 90 98 97 86 58 21 18 16 16 16 16 16 16 14 12 12 13 14 16 16 17 17 17 15

GFSMW_850_rhum_063.txt.gz
RH
41 42 39 40 54 66 72 80 93 89 94 91 89 84 80 90 87 84 90 91 93 96 97 98 97 95 97 96 97 96 94 90 89 88 86 87 82 82 68 63 92 87 83
37 40 42 41 45 48 59 68 74 73 85 86 82 83 80 79 87 92 92 93 95 98 97 98 98 98 97 98 98 98 96 94 90 91 86 82 75 77 66 67 88 91 85
40 39 41 40 38 43 52 58 64 66 72 81 88 94 96 94 92 92 90 92 95 99 97 98 100 99 97 96 97 95 95 95 85 86 89 87 81 81 78 90 87 82 83
35 40 39 41 40 38 38 59 59 65 68 73 85 93 86 75 76 89 89 99 99 92 86 87 88 95 84 61 44 39 36 42 42 52 61 87 94 91 82 77 80 82 81
34 38 40 38 39 39 38 40 64 61 63 66 71 70 68 71 78 79 85 84 90 85 80 74 48 38 34 30 29 30 30 35 39 43 46 59 75 94 87 83 81 84 88
34 34 35 41 42 38 36 37 44 71 67 66 69 66 68 62 63 70 75 73 79 82 47 33 30 29 29 29 29 31 34 36 42 43 56 86 82 76 96 91 91 82 94
34 35 35 42 44 40 35 34 34 35 59 68 70 67 69 62 57 64 76 87 64 36 30 29 30 30 31 32 34 37 38 40 44 49 58 83 90 88 95 100 100 99 98
28 32 44 41 43 44 40 34 33 32 32 38 50 60 68 78 78 58 46 43 36 29 33 31 30 33 37 41 43 43 44 45 52 70 98 97 97 96 99 89 97 99 99
30 30 32 48 46 44 45 46 40 39 36 35 34 35 39 46 49 41 34 36 37 35 35 40 39 42 46 49 51 50 48 50 64 97 99 99 92 93 93 95 99 100 100
31 31 31 44 50 48 48 49 48 42 40 42 40 34 33 37 37 34 34 36 38 40 39 44 44 48 49 53 57 57 57 59 83 98 98 97 93 97 99 91 98 98 100
33 33 32 32 32 43 49 50 51 49 43 46 48 44 42 43 41 40 38 39 39 38 40 43 47 51 51 56 68 68 71 76 84 96 99 98 99 95 94 93 94 95 82
37 36 36 36 32 37 46 52 58 56 52 53 53 52 48 49 48 50 52 50 48 46 50 46 48 49 57 62 73 80 77 85 96 96 98 93 90 91 90 80 82 75 70
42 43 41 40 40 39 45 51 53 59 65 64 59 56 54 51 50 47 45 46 48 51 53 51 51 58 66 75 79 87 92 91 90 90 88 85 84 84 84 81 78 77 78
46 45 47 47 44 44 42 48 56 64 69 68 66 60 54 51 52 54 54 53 55 55 52 56 66 75 83 87 91 96 100 100 100 98 95 92 85 83 80 81 82 83 81
49 48 47 50 54 55 49 47 52 60 66 67 64 59 57 57 57 55 56 57 58 54 60 71 78 86 90 95 99 100 100 100 100 100 96 92 87 82 81 83 83 82 83
56 52 52 51 51 54 63 52 51 55 61 63 62 61 58 58 59 59 59 62 56 60 72 81 88 92 92 94 99 100 99 100 100 97 94 95 90 85 82 78 68 68 71
64 67 66 63 58 55 55 66 52 54 60 63 62 60 60 58 59 60 61 59 58 73 84 89 92 95 95 98 99 100 100 100 99 100 98 94 90 78 61 39 25 17 12
53 63 72 71 61 53 51 52 65 60 60 61 63 63 63 63 63 64 64 58 68 81 89 91 95 97 98 100 93 94 99 99 96 94 94 84 55 32 16 12 11 10 10
55 57 77 77 68 58 52 50 57 63 63 63 61 62 64 65 66 67 63 62 76 86 92 97 100 99 99 93 88 92 91 81 61 46 30 18 16 15 11 11 9 9 11
65 61 79 80 74 61 57 55 57 61 59 60 63 66 69 71 74 75 67 72 92 100 99 99 97 99 99 83 29 16 10 12 12 11 14 12 12 13 12 10 10 11 12
74 65 83 85 82 69 64 59 61 61 59 68 72 74 75 75 79 71 72 82 100 100 99 99 98 100 89 41 11 10 9 11 11 13 14 14 14 12 12 10 10 12 13
76 66 90 90 89 80 79 77 78 76 79 80 81 80 78 79 78 73 84 98 98 99 100 99 99 100 70 24 14 10 9 11 13 15 15 16 15 12 9 8 10 11 12
97 88 92 94 93 84 84 82 81 80 82 84 82 78 81 80 72 75 90 100 100 100 100 99 100 99 65 18 13 13 11 11 11 12 14 14 12 10 9 10 11 13 13
97 96 95 91 94 87 86 84 84 84 83 82 81 82 79 71 72 74 84 98 99 99 98 99 99 91 40 16 14 14 13 12 12 12 13 15 15 13 12 12 13 14 14
91 93 97 93 98 95 88 87 87 87 84 81 80 74 72 70 69 72 79 89 96 100 100 100 90 73 24 15 17 16 15 15 14 13 14 14 16 16 17 17 16 16 15
79 85 91 99 96 99 95 91 85 86 86 80 77 77 78 75 73 76 83 87 97 100 100 100 89 54 26 21 19 17 17 18 17 16 14 13 14 15 18 18 18 18 17

GFSMW_850_rhum_066.txt.gz
RH
43 42 40 40 63 73 78 78 81 79 80 81 85 85 84 85 87 86 86 88 88 94 94 88 91 92 91 92 94 95 93 86 89 83 84 78 81 73 75 74 73 81 79
41 43 43 42 46 56 64 71 72 80 82 83 85 85 87 87 91 88 88 83 86 90 92 93 93 95 96 97 96 96 94 94 96 91 89 90 76 72 72 64 60 81 75
39 37 36 42 42 45 45 54 55 63 67 72 73 86 92 91 91 92 85 87 90 90 94 94 96 96 98 98 99 98 98 94 83 86 93 93 84 78 77 76 83 81 86
42 41 39 38 42 41 39 46 56 58 65 69 74 76 75 77 78 77 86 88 93 94 95 98 97 100 99 99 99 98 71 60 38 38 40 59 96 90 91 80 80 82 86
41 38 35 40 39 40 40 49 54 57 62 68 69 70 73 74 70 71 71 82 85 82 74 72 83 88 87 59 38 33 30 31 33 34 38 46 55 74 100 90 76 81 80
40 38 35 39 42 41 41 40 51 54 55 62 65 69 71 73 73 73 72 69 60 62 64 66 74 45 33 30 30 30 30 32 36 40 44 49 64 63 79 92 91 86 91
40 38 37 36 42 43 42 39 41 47 53 56 63 64 68 70 68 71 69 61 55 59 63 63 34 30 30 32 32 34 35 36 39 42 46 54 66 94 98 93 90 87 100
30 35 39 39 38 43 44 41 37 36 39 47 57 67 67 67 61 61 68 70 74 72 53 34 35 35 31 36 36 41 40 43 44 46 54 60 94 97 97 93 93 99 94
31 30 31 44 44 44 44 40 38 36 36 37 38 52 65 66 60 60 62 69 56 42 35 33 32 31 31 35 41 44 48 50 52 55 69 79 99 99 96 91 99 96 100
34 32 29 33 48 49 50 51 50 47 44 42 43 49 59 62 58 40 39 40 40 38 34 34 37 39 42 45 46 45 47 50 57 65 97 99 99 98 93 88 86 99 100
37 38 38 37 33 33 44 51 53 53 52 48 45 48 51 46 42 41 46 38 36 37 41 45 46 48 50 49 49 47 53 54 75 99 99 97 99 98 95 91 93 88 88
42 42 40 40 40 39 37 35 44 58 59 57 51 48 50 47 48 46 44 42 44 52 53 49 50 55 54 52 53 59 66 67 98 99 97 97 97 98 97 99 97 99 99
45 45 45 46 45 47 46 43 42 42 53 65 62 58 56 54 51 50 51 55 54 53 51 51 53 54 52 52 59 63 73 80 99 100 99 97 100 100 100 97 92 87 84
53 50 49 48 48 46 52 54 51 48 50 61 70 69 65 61 60 58 56 55 54 54 54 56 55 56 62 64 70 77 82 90 99 100 100 100 100 100 99 93 90 88 85
56 57 57 56 55 52 50 54 60 58 56 57 68 70 70 66 61 58 57 56 58 59 60 56 55 65 70 75 83 90 94 98 98 99 100 100 100 100 96 90 90 90 88
52 52 56 64 62 64 62 56 52 62 67 61 58 66 67 65 61 61 61 62 62 62 62 59 66 71 76 82 90 93 96 98 100 100 99 100 100 98 96 97 90 86 82
54 47 44 56 70 67 65 62 54 54 66 67 63 63 66 66 64 66 66 67 67 68 63 66 74 80 83 90 93 93 97 100 100 100 99 100 100 100 94 88 67 52 46
52 44 41 39 59 71 68 64 59 53 55 66 67 66 67 66 67 68 69 70 72 68 67 78 84 85 92 93 89 94 100 100 100 100 100 100 100 93 66 36 23 16 13
58 57 54 47 62 77 74 68 60 56 54 59 67 68 67 68 69 69 69 71 73 66 72 80 85 92 98 99 97 89 90 98 99 99 96 76 47 30 21 18 12 12 13
67 68 57 58 86 82 78 74 63 58 55 55 62 68 70 71 73 74 74 74 73 68 80 88 96 99 99 100 92 82 85 71 50 33 22 15 14 16 14 14 13 13 15
79 77 73 85 89 90 84 79 70 69 65 70 75 77 77 77 79 81 77 76 72 82 99 99 99 99 99 100 82 16 12 13 11 13 14 13 13 13 13 12 11 12 16
96 94 91 90 89 94 91 83 78 81 82 82 83 82 82 83 85 85 82 78 76 93 99 99 99 98 98 100 55 13 10 12 13 14 17 17 15 15 13 11 11 11 12
92 97 97 96 87 92 94 87 85 81 85 85 87 89 89 90 90 87 84 74 82 97 99 99 99 99 98 100 43 15 10 9 12 14 16 18 17 15 11 10 11 13 13
100 95 84 89 86 90 96 92 89 88 88 91 91 92 93 91 90 88 78 78 85 99 98 100 100 99 99 100 47 15 14 13 12 12 13 15 15 16 15 15 14 14 16
100 95 91 89 82 93 99 100 93 90 91 92 96 98 97 96 94 86 79 77 78 95 100 100 100 99 100 92 38 18 17 16 18 21 19 17 17 18 18 18 19 18 18
79 81 85 88 87 83 88 100 100 97 91 89 89 91 96 95 90 85 81 81 84 99 100 100 100 100 100 74 31 20 18 19 21 21 18 16 15 15 17 18 19 18 18

GFSMW_850_rhum_069.txt.gz
RH
43 42 46 64 67 74 74 78 77 76 81 84 78 88 84 84 85 84 84 83 85 90 95 97 82 89 95 90 90 91 91 92 87 88 83 82 76 77 62 67 68 71 78
43 43 41 43 67 73 68 74 75 78 76 76 73 82 82 83 81 81 86 86 87 86 83 87 88 88 88 92 91 87 90 92 91 90 93 91 80 59 66 66 68 62 80
36 38 42 41 41 56 66 69 72 69 78 78 81 84 84 82 83 82 85 86 89 86 88 92 92 93 92 93 95 96 95 97 94 94 96 93 80 78 75 78 77 78 80
44 42 40 39 39 37 43 54 56 64 67 71 69 73 72 65 74 69 79 85 83 82 81 85 84 83 86 94 98 96 98 100 85 56 46 49 67 95 87 86 88 91 92
44 42 41 41 40 38 38 40 46 52 64 63 64 69 71 70 73 76 81 74 76 77 83 86 76 80 64 66 68 91 65 40 33 33 34 38 48 62 84 95 82 92 86
41 40 42 40 36 37 40 40 44 47 52 53 60 58 65 66 75 78 84 76 74 72 82 80 74 64 63 71 50 32 30 30 32 33 39 43 50 59 70 82 97 98 93
39 38 39 38 36 39 43 44 42 42 47 54 56 58 62 67 68 74 88 72 77 84 77 77 68 64 75 39 32 32 32 33 38 39 46 50 51 62 77 97 99 99 95
35 39 39 38 38 39 44 44 43 41 43 48 55 58 61 64 68 71 77 76 91 76 73 64 72 53 34 34 32 34 39 42 41 46 50 53 60 74 87 94 99 99 100
33 32 35 45 47 46 48 47 43 41 39 37 38 41 46 58 69 70 75 74 73 70 67 59 37 35 34 34 40 39 42 44 45 49 53 60 73 87 98 98 96 98 100
40 40 38 36 42 50 52 51 49 48 47 45 44 42 41 47 65 76 75 76 73 52 38 37 42 45 36 42 44 45 47 48 48 51 58 66 84 98 99 94 90 97 99
46 45 43 42 42 41 37 36 44 51 54 54 53 51 49 53 63 69 68 45 49 54 58 45 39 40 46 51 50 49 50 51 53 59 61 82 98 99 95 94 98 97 100
47 45 44 43 41 43 46 47 47 47 50 56 60 60 56 56 57 54 57 52 54 52 44 43 47 54 50 51 52 49 50 59 68 79 99 98 98 99 98 97 98 97 96
54 52 49 49 47 45 44 46 50 51 52 52 58 64 63 59 56 52 51 50 47 47 51 55 52 54 56 55 53 54 60 68 76 98 100 97 100 99 99 99 98 99 100
55 54 53 54 55 54 52 48 46 51 55 58 59 65 70 69 65 62 58 53 53 55 54 55 57 59 57 56 58 68 73 77 83 97 99 99 99 99 98 99 99 100 100
49 47 45 46 53 54 53 52 49 50 53 58 60 60 70 74 73 69 65 62 59 58 59 60 62 62 59 64 71 77 80 87 92 98 99 100 99 100 99 99 100 99 98
48 46 43 38 34 37 56 58 55 51 52 54 61 67 70 75 74 72 66 63 63 63 64 65 66 63 66 74 79 83 88 92 94 98 100 100 100 99 100 100 96 96 98
54 50 47 46 40 33 44 58 61 59 52 52 55 67 69 72 71 70 68 65 65 66 67 68 67 66 74 80 84 90 92 91 98 100 100 100 100 100 100 100 100 92 86
62 59 55 46 46 42 57 66 62 63 59 50 52 57 68 69 73 72 68 68 70 71 71 71 68 71 80 84 90 91 90 96 100 100 100 100 99 99 100 91 70 40 25
69 67 63 63 57 62 84 80 70 67 60 51 52 54 68 72 73 73 72 72 72 73 75 76 70 75 84 90 95 93 96 99 99 100 99 100 100 96 65 36 23 16 15
74 77 71 75 76 79 88 88 83 75 66 60 56 57 69 78 78 77 78 76 78 79 79 76 72 86 92 98 98 99 86 92 99 99 84 64 46 26 20 18 17 16 14
90 92 94 92 88 81 87 92 91 83 78 74 69 68 73 79 81 83 84 84 85 84 85 78 90 100 99 98 99 98 51 39 28 23 18 19 17 15 13 14 15 15 16
93 91 95 90 89 90 90 92 94 89 86 79 79 81 84 85 84 86 88 90 90 88 88 87 98 99 99 98 99 100 30 11 10 13 15 17 18 17 20 16 15 12 12
98 100 100 92 81 83 84 97 97 95 88 86 82 83 91 91 91 92 92 94 93 91 91 94 99 99 100 99 99 100 34 12 10 14 17 18 20 22 18 14 11 11 12
78 85 86 77 79 80 82 84 100 100 96 90 92 92 92 96 98 98 98 98 98 95 92 95 99 99 100 99 99 100 40 14 11 13 14 17 16 17 17 17 16 15 15
47 55 56 69 71 76 83 84 89 100 100 98 92 95 97 100 100 100 100 100 97 95 98 99 99 100 99 98 100 100 60 17 16 16 15 15 15 16 18 19 18 18 19
37 33 37 47 48 56 64 81 91 98 100 100 100 97 96 94 97 99 100 98 90 92 96 99 99 100 100 100 100 100 55 24 25 22 19 18 18 17 16 18 19 21 21

GFSMW_850_rhum_075.txt.gz
RH
93 69 67 76 81 84 77 67 64 70 62 58 68 76 73 61 62 58 75 71 82 80 86 88 92 94 85 80 90 91 85 86 84 84 82 82 83 58 52 40 41 43 50
76 61 59 66 73 91 80 70 71 83 78 71 72 61 66 66 72 72 66 65 71 88 86 85 88 88 91 88 87 87 84 84 84 82 84 83 79 58 54 52 60 61 59
56 58 63 65 58 69 68 74 75 66 57 71 82 84 81 87 87 83 86 73 82 95 96 86 81 87 90 82 83 85 84 82 80 87 87 85 81 84 59 53 54 69 69
45 43 46 46 46 48 58 62 72 75 73 76 79 84 87 99 95 99 97 93 99 97 83 84 85 84 82 84 87 90 85 81 83 89 90 91 88 90 72 51 66 66 76
49 47 45 44 43 42 43 43 45 70 74 81 84 87 94 86 76 74 73 74 73 81 83 88 90 86 86 86 93 88 75 75 73 65 43 34 36 37 48 75 56 69 79
49 47 45 43 41 41 41 39 40 42 63 66 68 72 76 82 89 84 80 77 85 75 73 68 85 91 88 97 93 81 74 77 76 61 34 33 35 41 51 60 52 64 74
50 46 43 43 43 41 39 40 42 43 47 59 68 69 70 71 70 71 73 71 76 79 77 90 92 95 100 98 92 87 82 81 53 38 36 36 38 45 52 67 88 91 82
60 57 56 52 48 46 46 47 48 51 54 50 48 49 57 62 64 67 65 67 72 74 75 82 96 97 87 93 90 89 79 48 39 38 43 45 47 51 54 65 86 97 96
54 52 52 54 55 54 54 53 51 50 48 46 44 42 40 39 39 39 38 41 63 73 83 86 97 84 74 83 80 68 51 44 42 46 48 48 49 54 56 62 99 93 99
52 49 46 45 45 45 45 44 46 51 52 53 52 51 50 49 48 47 45 44 55 80 91 91 79 77 79 86 81 51 45 44 47 51 48 49 53 57 61 74 90 97 91
57 52 48 45 43 40 39 40 42 43 42 39 35 36 43 52 52 51 50 57 72 84 96 86 88 95 92 73 48 47 47 52 50 48 48 49 55 58 67 77 94 93 91
54 52 49 46 42 39 38 37 37 38 41 46 46 44 40 38 46 56 56 62 82 99 99 97 93 77 54 49 50 50 53 50 51 50 49 50 60 66 80 98 95 95 94
49 46 44 42 41 41 41 41 40 38 38 39 41 48 51 50 52 57 60 58 64 71 69 58 57 58 59 54 55 54 54 54 51 49 51 59 68 80 97 98 94 94 94
50 47 45 43 41 40 38 35 34 36 40 41 41 41 48 57 55 60 65 64 60 60 59 55 55 56 58 58 56 56 56 54 52 54 59 64 74 78 92 95 94 95 95
56 55 51 47 43 38 35 33 33 34 33 36 44 51 48 49 57 56 66 72 68 64 62 60 58 58 60 60 60 58 58 54 55 59 63 73 84 94 96 100 100 100 100
64 59 54 49 45 43 40 39 40 42 40 38 41 49 56 54 55 66 65 71 72 73 72 68 66 64 63 64 63 60 56 56 62 68 75 84 91 92 91 94 100 99 98
66 62 57 56 59 64 68 62 61 60 54 50 49 58 60 61 58 64 75 72 75 77 75 73 71 71 70 67 64 61 59 62 63 65 76 86 90 96 99 100 100 100 99
65 61 58 60 66 73 77 74 70 70 66 68 74 72 66 64 61 64 73 79 80 79 77 75 73 71 71 68 64 62 58 62 66 74 84 91 96 99 99 99 99 100 99
68 68 71 71 72 80 80 72 72 77 77 81 88 84 81 74 77 69 69 82 81 81 77 75 75 74 73 70 67 66 68 72 78 89 93 93 98 98 98 98 99 98 78
70 69 71 70 62 71 73 72 73 78 79 87 94 94 89 84 84 85 77 88 87 84 84 82 81 81 80 76 72 67 76 80 88 100 98 98 98 98 99 99 80 42 29
60 55 49 50 40 41 45 48 64 77 80 80 85 95 93 89 88 94 89 90 95 91 88 87 86 86 85 83 75 70 81 90 97 86 96 99 99 86 53 32 23 22 20
37 36 34 30 27 29 30 28 32 39 64 79 78 91 99 94 93 96 100 98 98 98 96 92 90 90 90 91 85 85 96 99 99 67 48 36 33 24 18 16 18 17 16
36 33 30 25 24 25 26 25 26 28 29 42 72 78 86 100 98 98 100 100 100 100 99 98 96 95 98 97 95 100 100 98 99 79 18 16 18 19 21 18 25 19 15
36 30 29 30 32 32 32 34 30 27 28 30 38 52 76 91 100 100 99 100 100 100 100 100 100 100 100 100 100 100 100 100 98 99 23 14 17 20 22 25 24 20 16
29 34 41 37 33 34 33 33 34 30 25 25 28 32 46 67 88 100 100 100 99 100 100 100 100 100 99 98 100 99 100 99 98 100 61 15 16 18 21 21 24 23 22
32 41 41 37 35 38 37 37 36 33 30 26 24 27 33 41 65 89 98 100 100 100 100 100 100 99 100 100 100 99 100 100 100 99 98 29 15 16 17 18 20 23 22

GFSMW_850_rhum_078.txt.gz
RH
99 99 71 69 77 75 75 71 66 68 66 66 78 73 72 70 67 73 70 72 77 81 85 84 94 98 90 80 66 81 92 93 84 84 85 86 80 87 64 44 39 40 40
84 85 98 89 78 80 83 83 82 85 83 77 73 77 77 82 77 79 74 78 78 74 77 82 86 97 98 89 79 93 94 81 83 90 82 78 72 78 46 50 39 41 49
88 78 90 85 87 94 92 88 96 85 82 68 73 70 85 82 70 84 91 94 88 77 75 74 90 95 100 94 86 82 85 88 84 79 82 75 64 79 72 51 45 42 56
78 89 92 87 77 82 83 88 85 83 82 84 81 79 75 82 81 87 83 88 94 96 88 79 80 94 99 99 100 93 92 88 88 87 85 84 91 80 60 72 56 52 61
71 66 64 55 62 59 57 71 77 81 81 90 92 85 85 85 87 77 78 91 99 82 80 73 86 95 100 99 96 94 89 97 91 82 72 70 45 40 72 62 60 78 62
73 66 56 50 48 47 47 48 48 61 77 76 79 78 84 88 82 88 92 81 82 79 80 81 92 89 92 90 92 99 100 93 84 77 79 62 59 56 50 73 68 77 83
80 58 57 53 52 49 47 46 46 48 51 72 73 71 76 75 76 76 72 78 78 77 76 77 90 90 74 76 93 99 96 95 93 93 69 46 39 43 48 55 79 84 83
79 67 65 63 61 57 53 53 53 57 57 58 60 63 70 73 75 75 75 76 78 76 79 82 88 83 91 92 96 97 89 93 84 80 72 48 42 48 52 56 82 96 95
75 69 57 58 59 59 58 55 55 53 52 50 49 48 47 47 48 51 53 57 60 67 72 81 88 96 100 97 86 85 83 86 80 64 46 46 48 50 49 50 57 94 99
59 59 55 52 50 49 48 45 44 45 48 52 55 56 55 54 53 51 49 48 48 51 68 78 98 100 100 94 95 95 87 75 56 46 45 49 50 48 51 55 64 78 95
62 60 57 53 50 48 44 42 40 40 41 43 43 40 39 41 47 54 53 52 52 58 67 99 100 97 80 83 90 88 75 50 47 47 52 50 50 49 50 53 62 87 91
59 49 44 42 41 40 41 42 43 41 40 39 39 42 46 45 43 45 54 58 60 70 94 99 100 99 97 97 96 74 51 52 50 53 51 49 49 48 53 61 70 82 93
57 49 44 42 40 38 37 36 35 34 35 38 41 41 40 43 49 47 50 59 61 72 96 100 100 99 99 84 58 54 53 52 54 51 50 50 49 51 58 68 88 87 93
63 57 52 48 44 42 38 35 33 32 32 33 33 36 43 46 46 55 54 54 63 65 73 82 80 70 63 60 58 55 56 55 53 53 53 52 53 58 68 78 80 90 93
66 63 55 51 48 44 41 39 38 36 34 31 30 31 35 46 53 50 60 62 64 66 65 66 64 61 58 56 56 58 58 57 58 57 55 57 59 62 67 70 89 94 97
63 58 54 49 45 44 42 42 45 48 49 48 44 42 41 42 47 56 58 70 71 73 72 68 67 66 64 62 63 63 62 61 60 57 56 55 54 61 82 90 92 96 99
74 72 61 53 51 52 50 51 54 54 54 52 49 50 54 58 60 62 62 62 74 77 80 79 76 73 72 70 68 67 65 64 62 59 58 58 67 83 88 91 94 95 97
76 77 81 85 80 66 61 57 57 58 61 63 63 66 74 74 71 70 72 69 70 83 85 84 81 78 76 76 74 71 69 68 67 66 67 70 74 83 89 94 99 99 99
72 74 81 82 77 73 58 62 62 63 65 66 65 72 84 86 80 76 76 80 77 80 83 84 84 81 79 80 79 76 73 74 75 72 68 67 78 94 97 96 93 94 98
75 73 65 54 62 33 30 30 33 38 49 62 68 75 86 90 92 86 81 86 87 83 93 91 87 85 84 83 82 80 80 79 78 73 76 85 85 97 97 98 99 99 96
52 45 39 37 26 21 19 19 19 19 19 21 31 59 73 87 98 94 90 89 96 95 95 93 91 88 88 89 87 82 79 78 82 83 82 99 100 99 100 98 87 69 30
35 34 29 26 21 20 22 25 26 24 22 21 20 23 34 68 77 89 97 95 100 100 99 99 97 95 94 92 91 90 83 82 81 83 90 90 100 99 94 50 32 23 22
38 32 26 22 25 28 27 24 25 25 25 24 23 23 23 27 56 82 95 98 100 100 100 100 100 100 98 98 97 96 95 94 96 96 97 68 55 58 42 23 20 19 19
36 28 26 29 29 29 31 37 38 37 34 31 28 25 22 23 26 38 80 99 99 100 98 100 100 100 100 100 100 100 100 100 100 98 99 83 23 28 29 27 22 23 22
35 32 37 34 32 35 35 37 37 40 37 33 30 28 28 26 24 26 34 74 99 100 100 99 100 100 100 99 100 100 100 100 100 99 100 99 36 19 26 28 31 36 29
35 35 40 43 45 44 42 42 43 40 36 32 29 28 26 25 28 26 24 39 74 99 100 100 100 99 100 100 100 100 100 100 100 99 100 99 92 24 20 23 27 33 32

GFSMW_850_rhum_081.txt.gz
RH
72 63 96 76 78 84 98 98 93 84 74 80 84 81 84 84 85 85 85 88 89 94 91 90 90 94 99 98 92 88 82 82 82 86 90 76 76 77 78 80 72 68 36
78 92 94 98 90 93 95 95 94 90 81 78 84 78 84 85 85 88 85 80 78 77 83 88 91 97 97 97 97 87 84 83 88 88 85 85 74 71 72 69 54 41 35
92 90 95 99 98 91 90 99 97 93 82 92 87 83 87 86 85 85 88 90 86 92 90 87 80 80 87 88 97 99 89 87 87 82 86 74 70 65 70 74 54 44 43
89 86 83 96 93 77 85 90 97 94 70 79 84 92 94 93 91 93 92 88 91 91 87 85 92 86 82 76 73 79 100 96 87 83 85 83 77 74 62 70 61 51 64
89 95 97 94 94 100 92 90 80 81 80 83 62 72 79 74 84 80 87 84 72 74 72 78 96 90 79 68 82 77 89 99 97 99 93 90 79 75 58 67 59 78 68
96 88 93 82 78 89 79 81 77 89 92 92 90 92 90 90 90 84 74 71 66 70 77 58 58 95 76 66 66 72 94 91 99 99 99 90 79 70 63 61 60 59 70
86 92 95 79 70 66 64 60 64 79 76 82 79 82 92 88 86 84 76 79 73 65 65 73 82 90 78 65 58 82 91 96 90 95 91 92 93 85 63 56 49 70 76
86 88 88 88 74 67 73 74 70 67 66 72 78 72 66 78 83 87 86 85 81 78 74 76 80 73 78 79 84 92 92 93 91 94 93 87 80 87 59 48 51 62 75
85 85 83 76 73 70 67 67 62 60 58 57 57 59 64 72 77 78 79 91 86 86 82 72 78 78 79 94 99 100 100 99 96 98 85 84 82 53 48 52 55 59 89
77 72 69 71 71 68 58 54 51 50 52 54 55 55 52 51 50 51 52 54 57 70 65 72 84 97 99 99 100 100 100 96 92 93 88 61 44 49 54 52 53 61 87
66 60 59 54 54 53 51 47 42 40 41 42 44 44 42 41 44 50 56 57 56 58 62 66 80 100 99 100 100 100 98 96 98 90 59 48 49 55 54 55 57 64 79
59 59 57 56 52 46 41 38 39 38 38 40 42 42 41 44 48 48 47 48 53 57 60 68 96 100 100 100 100 93 91 93 79 56 50 50 54 53 53 54 58 71 77
57 57 58 60 56 49 42 40 37 34 35 34 34 34 37 44 46 48 54 53 56 59 63 81 100 100 100 100 99 99 99 88 62 54 52 55 53 50 50 56 66 79 82
59 62 61 62 65 55 46 41 39 37 36 35 35 35 33 32 34 43 48 54 57 59 61 67 94 100 100 99 99 100 82 60 56 55 55 54 54 56 58 59 61 78 86
60 62 65 65 62 52 51 50 48 43 40 39 39 37 36 39 40 39 43 50 56 62 68 69 72 85 96 96 85 68 62 60 58 59 58 57 58 56 57 59 58 63 82
61 64 66 68 71 71 64 65 57 50 49 52 55 54 48 41 40 41 44 49 56 61 70 73 73 70 70 68 68 66 64 64 64 62 61 60 58 58 59 62 71 79 97
64 66 67 71 76 75 65 62 58 57 64 66 63 61 58 59 67 69 68 64 60 61 70 78 79 76 73 69 68 67 68 67 66 65 62 65 65 62 62 67 78 84 87
66 66 66 57 63 64 61 52 60 60 57 68 60 59 56 64 77 81 79 78 79 78 71 73 81 84 84 80 77 76 74 73 72 69 68 65 63 65 70 77 84 90 98
73 74 74 68 44 27 18 18 19 19 18 18 20 29 45 51 58 71 83 82 81 87 91 80 83 84 84 82 81 80 78 76 74 72 71 69 66 68 84 97 100 99 99
80 79 81 63 69 52 21 17 15 13 13 12 12 12 16 26 46 62 76 87 87 85 92 96 92 96 90 87 86 85 83 82 79 76 74 74 74 80 99 99 100 98 98
76 60 59 60 55 26 20 20 21 19 16 14 12 12 11 12 15 26 54 71 85 93 98 99 96 100 99 94 88 86 86 83 84 86 83 80 82 96 99 99 99 100 99
61 60 52 46 28 21 21 22 24 26 24 23 21 21 20 19 19 20 22 45 78 95 100 99 100 98 100 100 97 93 91 90 90 89 89 90 92 100 100 100 100 98 97
52 44 32 25 23 23 27 25 32 40 31 32 33 35 36 29 27 27 27 25 35 87 100 100 100 100 100 100 100 99 99 97 98 97 98 94 95 100 100 100 99 72 47
59 45 30 26 25 40 49 55 59 56 52 41 37 34 32 31 29 32 34 30 23 38 79 99 100 100 100 100 100 100 100 100 100 100 99 100 99 86 76 79 91 46 27
48 40 34 32 34 58 66 64 62 64 65 61 47 38 38 48 46 32 29 29 27 29 62 91 99 100 99 99 100 100 100 100 100 100 100 100 100 99 48 56 59 35 33
55 57 58 64 67 72 70 49 44 45 45 40 36 39 45 36 39 36 34 29 28 25 25 56 99 98 99 100 100 100 100 100 100 100 100 100 100 100 79 31 39 33 33

GFSMW_850_rhum_084.txt.gz
RH
60 66 68 76 74 94 94 88 88 78 87 94 80 76 64 64 79 68 80 85 86 85 94 78 70 90 87 96 92 91 84 81 78 81 74 73 76 75 73 77 78 73 51
76 77 70 79 84 92 98 96 86 83 74 95 90 90 83 76 77 81 92 83 86 86 91 91 92 94 90 92 94 95 91 88 83 78 87 82 76 73 81 77 75 54 42
99 90 95 95 81 100 98 100 100 98 96 100 94 93 90 89 92 91 91 81 86 86 78 80 78 77 80 78 89 96 94 89 87 86 83 85 80 75 80 71 51 51 44
100 82 72 70 98 99 96 99 100 100 95 93 94 94 90 90 87 93 89 89 88 86 81 78 80 77 73 73 78 80 79 85 90 82 95 89 81 72 77 77 70 56 50
99 97 92 97 91 91 94 91 100 99 82 78 87 81 82 90 91 80 83 93 86 87 74 69 67 67 63 59 56 73 73 83 84 84 77 88 100 93 74 73 72 76 70
100 94 94 82 98 99 100 99 96 84 79 74 86 94 78 79 68 79 83 75 92 77 72 73 74 72 81 63 68 76 75 73 87 81 78 99 98 100 89 82 88 80 62
100 96 88 88 94 90 86 80 87 96 100 100 99 93 91 88 79 74 83 81 79 70 84 68 74 49 76 91 89 79 85 98 89 88 82 84 100 94 89 88 80 75 71
98 98 98 90 90 90 89 91 97 98 90 92 98 86 73 75 78 82 86 80 78 80 76 69 62 57 78 67 68 85 96 99 85 92 78 83 97 97 88 82 92 70 60
90 85 82 86 82 79 81 77 73 70 68 67 68 72 79 80 75 70 75 83 78 81 81 78 76 76 76 75 79 94 100 97 89 90 99 100 100 100 94 90 77 58 60
87 79 80 77 78 70 65 60 58 57 58 58 58 58 58 56 58 65 73 84 85 82 86 94 81 75 76 82 91 98 88 86 99 100 98 96 95 91 77 58 51 56 59
68 62 62 57 57 58 54 48 44 42 41 41 41 42 42 44 46 50 55 57 58 58 57 59 59 65 78 90 100 100 97 99 100 100 92 96 93 73 55 56 56 54 58
58 58 58 54 49 44 41 40 37 35 33 32 31 32 34 36 37 40 44 44 44 48 50 55 58 62 90 99 99 100 100 100 100 98 96 98 75 54 58 58 56 56 63
57 58 58 57 56 52 45 41 39 37 35 33 32 30 29 30 30 34 38 40 41 49 52 53 62 85 99 99 99 100 99 100 100 97 90 67 54 54 58 57 56 62 70
60 60 60 59 58 53 51 48 43 38 36 36 36 34 33 32 31 30 31 37 44 48 57 57 58 71 99 100 99 100 100 100 100 98 82 59 57 58 58 58 61 70 81
61 63 62 61 61 57 52 49 49 49 50 49 45 42 40 39 38 38 39 39 41 48 58 66 65 62 74 99 100 100 100 100 100 82 61 58 58 58 57 57 55 60 70
62 64 65 66 70 68 62 55 51 50 54 60 60 56 51 49 47 46 47 48 50 55 58 64 78 78 71 71 84 91 92 87 74 68 65 64 62 60 60 60 60 58 61
63 65 66 66 66 61 52 40 37 36 31 34 38 36 34 37 41 49 58 62 60 58 64 70 76 83 84 79 74 74 74 73 70 68 68 66 65 64 62 60 62 72 73
65 67 68 72 72 64 40 22 20 17 14 14 12 12 12 13 17 24 34 46 68 74 73 72 78 82 91 90 84 80 77 74 73 73 72 71 71 67 68 65 68 74 81
64 61 58 54 46 39 26 19 19 18 18 18 16 14 14 12 12 12 13 27 48 63 82 82 81 89 85 95 92 90 88 84 80 78 76 76 74 70 72 72 78 81 87
57 50 47 35 22 19 18 17 16 16 16 16 16 16 20 21 20 19 19 16 23 48 67 91 98 97 100 100 98 97 94 91 88 85 82 80 78 75 75 75 81 82 85
66 60 43 39 33 28 21 19 18 18 17 17 17 21 26 35 36 31 27 27 24 22 24 52 81 99 99 100 100 100 100 97 93 90 87 83 80 78 81 80 82 91 98
55 45 39 36 32 27 26 22 23 30 38 36 26 22 22 25 27 29 32 36 36 35 26 37 50 97 94 100 100 100 100 100 96 93 91 91 85 85 82 89 96 100 98
44 43 38 31 26 26 34 42 44 54 53 41 32 30 29 28 27 26 26 30 37 35 37 28 52 51 97 99 100 100 100 100 99 99 100 99 98 92 91 98 99 99 99
44 39 32 28 26 32 44 55 56 52 44 43 38 36 34 30 28 29 29 29 29 33 34 46 45 63 76 79 100 100 100 100 100 100 100 99 100 100 93 100 100 100 100
36 36 40 48 50 54 53 48 47 54 57 57 51 40 33 30 28 29 31 30 26 41 53 46 56 76 80 96 87 100 99 99 100 100 100 100 99 99 100 100 100 100 97
39 48 52 59 62 55 46 47 51 55 58 56 50 45 44 38 40 36 24 26 37 40 34 34 37 41 71 98 98 97 100 99 99 99 99 99 99 99 100 100 95 82 74

GFSMW_850_rhum_087.txt.gz
RH
44 61 62 58 67 74 74 72 84 84 84 88 98 95 78 94 98 94 76 85 80 68 73 84 91 91 95 90 82 82 78 71 79 86 82 80 79 72 74 72 74 75 76
57 63 60 65 68 73 82 80 80 92 95 86 82 83 86 83 98 96 94 90 83 89 91 89 82 83 84 89 90 88 85 85 85 81 83 85 82 74 70 74 76 76 78
58 67 70 76 85 94 93 93 86 97 96 99 90 90 86 85 91 86 87 94 86 78 73 73 75 76 80 79 82 85 88 90 87 85 83 88 88 78 73 72 82 82 70
83 88 94 87 85 95 93 84 100 100 98 93 99 100 98 88 87 89 94 87 88 85 88 85 80 74 70 68 67 70 74 76 74 80 84 85 81 92 88 87 88 68 56
100 99 100 100 95 82 84 96 99 99 100 94 100 99 99 99 89 92 94 91 92 91 88 82 81 82 78 74 75 76 65 60 55 68 73 79 87 90 100 95 88 79 68
100 100 100 100 99 95 92 100 97 94 100 97 88 94 96 98 90 86 84 79 80 80 73 74 72 70 79 74 74 80 85 84 79 78 78 78 77 82 96 94 90 81 85
100 100 98 99 93 95 100 95 97 95 95 93 99 96 93 81 73 70 83 68 68 60 75 76 73 79 84 81 88 87 85 90 86 84 85 87 88 88 90 91 90 93 91
100 100 99 99 97 94 90 97 98 93 96 94 100 98 86 88 86 82 78 76 70 66 73 82 82 85 82 85 74 93 91 90 96 99 98 100 91 89 99 97 78 100 98
98 99 98 94 91 82 81 80 82 81 78 76 75 78 93 99 92 86 86 89 87 84 87 84 85 81 84 89 95 100 76 85 90 89 94 95 98 95 94 100 98 88 93
93 93 84 87 77 70 66 61 59 59 60 60 59 60 61 64 71 81 91 95 87 78 87 96 95 94 96 99 98 95 80 99 99 98 100 100 99 100 100 100 99 96 87
82 74 66 62 57 52 47 45 42 41 41 40 40 40 41 43 44 46 50 53 56 56 56 56 55 54 54 60 69 97 99 100 100 99 100 100 99 100 94 93 77 63 69
60 56 55 52 47 45 44 42 39 37 35 33 32 31 31 32 34 36 36 39 42 43 42 41 44 47 49 56 74 98 98 100 100 99 100 100 100 100 98 75 57 61 66
57 56 55 54 52 50 45 42 40 38 37 36 35 34 32 31 29 28 28 31 34 37 43 46 48 53 61 75 99 99 99 99 99 99 100 100 100 100 88 54 53 58 60
62 61 59 56 53 49 47 44 41 38 36 36 34 35 35 34 33 32 33 33 31 33 39 46 49 53 60 71 89 100 100 100 100 99 100 100 98 80 58 56 58 60 60
60 60 61 60 55 51 47 42 38 36 38 38 37 37 36 37 39 40 40 38 38 39 40 42 52 62 66 70 86 98 99 99 100 100 100 100 91 73 61 61 60 62 64
61 62 63 62 59 56 50 45 35 33 27 23 21 19 17 17 20 25 33 42 46 49 50 50 54 63 69 73 78 86 100 100 99 100 95 96 88 71 64 64 62 62 64
62 64 64 63 60 53 47 29 20 19 19 18 16 13 12 12 12 12 13 18 25 43 59 64 66 66 72 81 84 83 83 88 90 87 85 82 73 70 66 65 63 63 63
61 64 65 58 53 50 40 22 17 16 15 16 15 15 14 14 13 13 13 12 12 17 30 54 76 77 78 82 90 92 91 87 84 82 81 79 75 76 69 70 67 65 66
64 62 58 58 51 48 38 22 18 18 18 18 18 18 18 18 19 19 18 17 15 14 13 20 42 75 91 98 89 95 100 98 93 88 85 81 79 78 76 74 72 71 68
61 60 57 41 29 26 22 20 20 20 23 30 36 39 38 31 27 25 25 24 24 23 20 17 18 36 73 99 99 98 99 100 100 94 89 89 87 84 80 77 77 73 68
54 47 32 25 24 25 24 22 22 23 30 36 41 42 36 32 32 33 35 36 35 35 32 32 25 21 24 65 91 94 100 99 99 99 99 92 89 89 87 84 80 75 83
47 39 34 30 28 31 32 28 28 34 32 28 29 29 27 28 33 37 38 41 43 45 42 37 27 25 31 48 93 99 100 99 100 100 99 99 99 96 93 91 86 88 100
45 42 39 32 29 40 45 45 44 48 55 58 56 43 34 31 32 33 32 34 38 47 43 46 44 38 28 26 39 85 99 100 100 99 100 100 100 100 100 100 100 100 99
36 37 38 38 38 43 43 45 50 51 54 54 52 50 50 45 36 33 32 36 43 46 46 52 65 57 45 28 27 44 84 99 100 100 100 100 100 100 100 100 100 99 100
36 39 41 44 45 46 45 47 45 48 56 58 57 54 53 47 40 32 35 38 36 44 56 82 79 63 38 34 44 63 95 98 97 99 99 100 100 99 99 99 100 99 99
35 31 29 32 31 32 32 30 31 42 53 56 52 54 55 51 47 46 37 37 45 52 56 65 83 66 73 100 100 91 74 100 95 99 98 100 99 99 99 99 99 99 100

GFSMW_850_rhum_090.txt.gz
RH
38 34 49 54 58 54 63 64 68 70 73 76 83 88 88 88 81 70 79 91 81 86 90 90 78 64 62 50 56 65 64 62 66 71 75 79 82 81 79 78 73 70 71
49 60 59 64 64 65 72 78 76 84 82 74 79 87 90 91 97 80 75 73 66 82 89 87 75 74 69 78 80 81 76 71 69 77 85 84 81 81 81 75 71 68 71
55 56 59 66 72 75 96 100 99 97 95 73 76 90 95 99 100 100 97 96 90 82 76 69 66 82 84 80 80 84 80 80 80 79 80 85 81 75 75 77 74 79 77
75 66 63 80 99 99 98 97 94 99 97 95 83 96 97 98 98 96 90 88 78 83 77 75 78 92 83 77 76 79 70 71 71 72 82 81 72 78 78 72 80 86 85
98 100 92 52 98 100 100 100 99 100 95 84 98 100 100 99 92 93 99 98 99 94 90 91 91 91 92 91 90 86 80 76 74 70 68 70 77 78 76 82 73 88 85
100 100 99 100 100 98 100 100 100 97 97 100 98 100 100 100 100 100 100 96 93 96 97 92 90 98 91 93 86 86 86 82 84 76 82 89 86 79 81 90 87 75 77
100 99 100 100 98 97 99 98 100 92 96 100 100 100 94 99 98 99 95 94 95 89 84 83 86 81 90 89 86 82 77 83 85 89 84 82 90 96 83 87 84 84 89
98 100 100 99 94 96 93 97 90 92 95 94 94 80 82 92 95 99 100 99 99 91 84 85 95 94 89 88 88 82 83 93 93 87 91 87 90 97 96 98 97 100 100
98 100 99 100 94 90 86 88 87 86 83 81 77 77 93 86 77 77 80 100 100 93 92 89 91 85 87 88 88 84 85 92 91 80 90 88 89 100 97 95 100 100 91
100 97 100 92 84 81 70 60 59 60 59 58 58 59 63 66 81 88 88 84 82 82 85 99 100 100 89 87 91 88 94 98 96 91 90 98 92 98 94 98 100 99 98
92 91 84 78 64 54 48 45 41 40 38 40 43 43 44 48 51 54 57 60 62 63 65 63 65 66 69 76 96 99 100 99 100 100 99 100 100 98 98 99 100 100 100
77 72 66 61 55 52 47 42 40 39 38 38 37 35 36 36 33 32 35 39 43 48 51 50 52 54 55 56 60 98 100 98 98 100 100 100 99 98 99 100 99 98 91
62 60 59 56 52 49 46 45 42 40 38 36 36 36 35 34 34 34 33 33 31 30 32 39 47 54 56 62 70 81 100 98 100 100 99 100 96 100 99 98 99 83 64
60 61 59 58 55 52 48 43 39 37 38 40 39 38 36 36 37 37 38 36 35 34 34 36 36 40 50 61 67 79 100 94 96 98 99 98 99 100 100 100 100 69 63
61 60 60 60 57 53 48 41 32 29 27 25 24 22 21 19 18 19 22 26 33 41 43 40 41 42 43 52 63 73 86 99 99 100 99 100 99 100 99 99 76 66 68
63 63 61 60 59 52 44 34 24 19 16 14 13 12 12 12 12 12 11 11 12 17 26 45 49 50 56 59 62 73 79 86 96 100 100 100 100 100 98 86 75 75 73
61 62 62 61 59 52 43 29 19 16 15 14 14 14 14 14 14 14 13 12 12 12 12 13 24 48 65 71 75 85 84 85 87 91 94 98 98 99 96 93 87 77 76
61 62 62 57 50 44 34 26 20 19 18 18 19 19 19 18 18 17 17 17 16 15 14 13 13 13 23 48 76 85 93 96 92 92 92 92 88 87 86 79 81 83 82
63 62 57 54 45 33 32 27 24 23 22 23 23 24 27 29 29 24 21 20 20 19 20 19 18 18 16 18 33 93 100 100 99 100 98 94 91 89 88 86 82 78 77
56 50 47 36 28 27 28 26 26 27 30 32 34 34 36 39 35 31 28 28 30 28 26 24 25 26 24 21 27 60 89 98 98 99 99 99 97 92 94 91 87 83 84
55 49 37 31 30 30 28 27 28 30 33 35 38 44 50 49 44 45 44 43 41 39 38 32 30 28 27 24 27 35 99 100 97 96 99 100 100 99 97 94 93 89 85
47 41 35 31 35 38 37 33 32 36 37 40 45 50 51 50 51 53 52 46 41 42 43 50 42 29 28 30 31 37 70 99 100 100 98 98 99 100 100 100 97 100 96
44 40 36 31 35 37 41 42 44 50 46 41 40 40 39 39 42 45 44 44 43 42 42 46 40 36 28 34 38 32 30 50 97 100 100 99 99 100 100 100 100 100 100
38 36 38 39 35 32 31 42 48 47 39 40 41 46 50 44 38 40 40 38 36 40 44 47 47 54 55 37 33 29 36 44 62 93 99 100 100 100 100 100 100 100 100
36 38 36 30 28 29 31 36 38 39 38 36 36 38 42 42 42 40 40 38 35 44 52 62 88 94 92 62 52 83 93 93 96 99 99 99 99 99 99 99 100 100 100
32 25 26 33 36 38 40 43 45 50 53 53 52 52 53 51 49 46 37 34 41 44 49 55 81 89 92 97 98 98 96 100 100 100 100 98 100 98 99 99 99 100 99

GFSMW_850_rhum_093.txt.gz
RH
46 36 36 31 54 58 60 63 64 61 69 75 75 70 66 67 82 80 91 98 99 100 96 86 89 80 71 62 47 53 60 57 56 65 70 77 80 81 80 80 80 79 74
71 53 42 52 58 60 61 62 68 67 76 87 82 82 79 78 81 87 90 94 99 97 92 82 85 82 58 55 62 68 64 58 62 67 74 80 78 77 80 80 79 79 75
99 72 70 60 60 64 66 67 66 67 82 94 88 85 90 97 80 89 94 88 90 84 89 76 79 84 67 68 71 68 63 61 68 70 74 84 80 72 72 79 80 78 76
99 100 99 87 79 70 78 84 94 98 98 88 94 98 95 92 79 80 98 94 97 93 82 85 84 81 88 76 69 67 82 81 78 73 75 78 76 76 75 73 70 72 77
92 99 100 95 92 98 97 100 100 100 94 80 93 95 97 97 93 93 100 100 96 84 90 80 79 77 79 79 63 63 65 72 81 86 81 83 80 78 76 73 68 70 71
100 100 100 100 100 100 100 99 100 99 100 99 100 100 83 100 98 94 100 100 99 95 98 95 90 83 73 71 75 80 81 84 88 85 88 84 77 73 73 84 77 79 74
100 99 100 100 99 100 100 99 100 96 100 97 90 98 99 100 100 99 99 100 100 100 94 91 86 82 86 93 99 98 95 96 88 87 85 86 84 88 90 90 91 93 88
100 100 98 98 99 100 99 100 97 93 93 90 90 98 79 100 98 96 98 100 100 95 94 90 91 91 99 85 94 91 98 93 93 85 79 79 84 89 98 99 99 100 100
99 100 99 94 97 96 91 90 88 86 79 79 84 87 99 93 92 96 91 99 100 99 100 98 84 92 91 92 89 88 93 91 91 86 92 94 92 94 93 93 100 100 99
99 100 100 95 88 74 69 67 64 61 61 56 57 60 61 67 87 98 99 98 98 96 97 96 100 98 100 100 99 98 96 92 92 92 95 94 97 97 97 100 99 98 99
100 99 91 74 69 63 58 53 49 46 44 40 39 38 37 39 43 46 50 57 62 66 65 72 81 78 75 88 96 95 88 100 100 100 100 100 100 100 99 98 100 94 99
91 79 75 71 61 56 50 48 47 47 49 49 44 40 38 38 37 36 35 35 35 37 40 47 53 57 56 55 58 64 70 83 94 98 99 99 98 98 100 99 99 100 98
71 68 64 60 57 54 49 43 41 40 40 39 39 40 38 37 36 36 36 37 36 36 37 35 34 36 46 56 62 62 68 73 100 99 98 95 99 100 99 99 97 100 94
64 62 61 60 57 50 44 36 33 31 27 26 24 20 18 17 17 18 19 21 27 33 37 40 42 43 45 49 58 68 73 84 100 98 93 100 100 100 100 100 100 100 100
63 62 60 58 56 51 44 32 25 20 18 17 16 14 14 14 13 13 13 13 12 12 13 17 34 53 55 54 48 53 66 75 90 99 99 99 98 100 100 100 99 100 100
61 61 62 62 58 51 44 33 22 18 16 16 16 17 16 16 16 16 16 16 16 16 15 13 12 12 24 57 69 79 76 79 84 86 92 100 100 100 99 100 100 100 100
61 62 64 63 56 48 39 29 21 18 17 17 18 18 19 20 20 22 22 20 19 18 18 18 18 17 16 15 20 47 81 88 89 91 87 92 99 100 100 100 100 100 98
62 64 65 58 50 40 29 26 23 20 20 20 20 20 21 23 25 26 26 25 23 22 20 20 19 19 19 20 19 18 23 43 90 99 99 94 89 93 94 100 100 100 100
63 64 58 53 40 30 28 27 28 28 27 26 27 30 33 32 32 31 29 28 27 26 25 25 25 26 23 23 23 23 24 37 52 86 98 99 100 95 94 93 99 96 97
64 58 53 38 31 30 30 30 32 31 30 30 32 35 40 43 40 38 35 34 33 31 29 26 25 28 30 29 27 24 26 39 97 88 81 96 99 100 100 99 95 93 89
57 51 42 37 34 33 33 34 35 36 37 36 35 34 37 41 41 44 42 40 38 35 32 28 24 23 26 34 36 38 50 49 74 92 98 98 90 100 100 100 100 96 92
53 46 42 38 36 37 35 35 37 37 36 32 29 29 31 33 37 42 42 44 44 39 31 26 22 20 21 21 24 33 63 64 79 91 94 98 99 94 100 100 100 100 100
50 45 38 35 38 39 38 32 28 28 24 22 21 22 23 23 25 29 31 34 38 39 36 35 31 25 23 25 24 31 38 37 45 92 100 100 99 95 99 100 100 100 100
47 38 35 34 32 25 23 28 32 36 37 38 39 41 41 39 38 40 42 41 39 36 34 35 38 41 35 32 41 47 48 48 59 72 81 100 100 100 100 100 100 100 100
34 34 33 25 21 26 30 34 37 39 37 38 41 42 44 46 45 45 46 46 45 46 47 46 52 66 64 47 69 94 97 97 100 100 100 100 88 86 99 100 100 100 100
34 28 24 29 33 32 29 28 32 35 37 39 39 40 44 46 49 49 46 47 47 53 56 59 85 82 76 92 97 97 99 100 100 100 100 99 99 99 94 99 99 99 99

GFSMW_850_rhum_096.txt.gz
RH
54 60 52 34 29 27 33 44 52 63 64 69 71 75 69 69 73 79 80 80 82 78 90 93 93 99 99 89 71 81 86 75 58 64 69 62 63 67 71 74 78 80 79
82 97 53 40 34 43 61 56 59 62 70 74 73 83 82 82 80 78 75 78 82 81 86 99 96 98 96 89 76 80 68 65 58 78 81 72 65 70 71 77 78 80 79
95 94 99 100 58 53 54 59 67 71 72 76 84 89 88 82 79 77 79 76 83 76 85 100 100 100 98 74 70 69 75 63 55 79 74 78 78 68 69 74 75 75 74
97 93 99 99 95 65 72 71 72 67 62 71 80 94 89 94 96 76 74 86 91 86 82 92 98 100 100 86 72 64 51 60 58 76 75 74 77 76 70 68 64 73 78
100 100 98 97 97 97 97 99 100 98 93 83 90 90 98 98 87 72 95 91 92 86 85 97 99 91 93 95 92 72 56 66 76 72 71 73 78 78 77 75 72 72 69
100 100 100 100 100 99 96 99 94 97 100 100 99 100 99 94 94 100 100 99 99 99 100 100 99 100 100 99 99 93 82 66 66 73 71 79 77 78 81 80 76 74 70
99 100 100 100 100 99 99 100 99 100 99 100 99 100 96 89 92 90 95 95 99 100 100 99 98 95 95 91 91 92 86 84 80 85 86 85 86 98 89 90 86 87 84
100 100 100 100 99 99 100 99 100 98 95 94 99 100 100 95 99 99 92 89 97 88 99 99 95 99 99 99 99 91 90 90 94 87 86 97 99 96 93 90 95 98 96
100 99 100 100 99 99 98 96 91 88 77 73 78 76 94 95 94 96 98 90 95 99 99 100 99 94 91 83 79 76 76 84 96 99 99 97 97 88 84 96 98 100 100
99 100 94 86 82 78 75 74 64 55 48 42 40 40 44 53 62 76 86 89 93 97 94 93 96 100 93 98 99 100 100 100 99 98 99 97 92 77 96 100 100 98 100
100 94 86 77 72 64 55 51 50 48 46 46 44 42 40 39 39 38 39 40 44 49 59 68 72 80 89 89 82 92 100 100 99 99 99 98 97 98 99 99 100 98 100
92 87 80 70 63 58 52 50 48 44 43 45 41 39 40 40 39 40 42 42 40 39 37 37 39 46 52 59 60 62 76 96 100 100 99 99 100 96 100 100 98 100 99
71 71 70 67 62 52 41 39 34 32 32 28 22 18 16 15 15 16 16 18 21 28 36 42 40 38 38 41 47 56 55 63 74 85 92 98 100 99 98 98 98 100 100
68 67 67 67 61 51 38 29 24 21 20 18 16 14 14 14 14 14 14 13 12 12 12 12 13 24 42 52 51 51 54 64 68 73 94 100 100 99 98 99 99 100 100
65 64 65 66 61 52 43 29 23 21 19 19 18 19 20 20 20 20 19 18 18 17 16 15 14 13 13 14 22 45 60 62 63 77 85 96 98 100 98 99 99 99 100
63 64 64 64 57 49 41 32 23 20 18 18 19 20 21 21 21 22 22 22 22 22 21 19 18 18 17 16 15 14 13 16 48 69 78 92 96 99 98 100 100 100 100
63 65 66 65 56 49 38 30 24 22 21 22 23 25 25 26 27 27 28 27 26 26 24 23 22 22 21 20 19 18 17 16 16 18 51 74 89 99 98 93 98 100 99
63 65 67 60 52 40 30 28 28 26 26 27 27 28 29 30 31 31 31 30 29 27 25 24 24 23 22 22 21 20 18 17 17 18 30 38 82 93 99 100 99 100 99
64 66 63 54 42 34 33 34 34 34 32 32 33 33 34 34 34 31 28 27 25 24 25 28 28 27 24 22 22 26 26 24 21 18 19 29 67 89 98 98 99 99 100
66 63 56 45 40 39 37 36 34 32 30 30 30 30 28 26 24 23 22 23 26 26 26 25 25 25 23 22 21 24 29 29 28 28 30 36 52 92 91 100 100 99 98
61 56 50 45 42 38 34 32 32 34 33 28 25 24 22 22 25 28 28 30 28 26 24 24 22 21 21 22 22 21 26 45 48 43 35 27 64 99 100 100 100 99 100
60 54 49 46 40 35 34 35 32 24 22 23 24 26 27 29 31 34 34 34 36 36 32 29 25 24 23 23 23 28 47 92 79 49 43 58 33 70 99 100 99 100 100
58 53 50 40 35 35 33 23 20 25 25 24 26 27 26 29 34 40 42 44 44 46 43 40 36 33 32 28 26 34 44 57 71 88 100 99 83 83 93 95 100 100 100
55 51 38 32 34 27 23 28 29 28 25 22 22 25 27 28 29 33 38 42 43 46 43 44 43 40 40 37 34 37 49 81 93 92 92 96 100 98 80 78 91 98 100
50 34 32 32 22 21 24 25 24 24 25 28 34 37 39 41 43 42 46 49 46 51 56 64 76 78 69 61 76 96 96 94 97 95 95 100 100 100 99 100 100 99 99
32 34 30 21 22 24 20 21 26 34 39 43 46 47 50 52 54 54 46 44 47 45 49 58 92 98 100 100 99 98 96 98 96 91 90 96 100 99 100 100 100 96 98

GFSMW_850_rhum_099.txt.gz
RH
88 77 75 61 49 43 33 23 29 35 51 62 66 66 57 59 64 68 70 70 71 72 73 82 82 87 90 90 97 92 96 98 80 66 50 62 55 52 51 55 57 62 67
83 85 98 91 57 49 35 34 41 52 58 65 65 70 69 69 73 75 76 74 73 77 78 86 93 97 97 98 89 96 100 100 77 69 81 86 69 49 55 60 65 70 74
92 89 94 92 79 97 98 57 60 61 64 65 64 66 77 78 83 79 74 74 74 76 77 83 94 90 100 100 87 98 100 98 87 78 89 81 84 69 57 54 59 67 75
96 99 95 96 94 100 72 57 60 61 62 63 67 72 81 99 96 88 86 73 70 71 73 80 92 97 97 100 99 96 100 95 87 96 79 63 69 72 64 58 54 59 69
97 100 100 99 99 99 85 72 74 79 83 76 86 95 99 98 92 84 84 98 91 88 88 86 89 95 100 95 100 100 100 100 91 83 82 69 65 75 79 76 66 63 65
99 100 100 100 97 98 92 96 90 94 94 99 96 100 100 99 95 80 82 83 88 86 86 96 89 96 100 98 99 91 92 93 90 86 76 72 75 77 77 82 76 69 67
100 100 100 100 100 100 100 100 100 100 100 100 100 100 100 100 100 96 90 84 84 100 100 100 100 100 100 100 100 100 100 90 88 79 77 82 82 76 81 81 82 82 83
100 100 100 100 100 100 99 100 99 94 95 93 98 99 100 100 100 100 100 100 98 94 98 100 100 99 96 96 97 98 100 93 91 93 86 96 92 87 76 84 90 98 95
100 99 99 100 99 95 95 98 92 80 75 73 70 62 71 76 78 91 94 99 98 99 96 100 99 100 99 100 100 100 100 97 84 91 87 88 89 91 92 96 99 96 100
100 100 98 95 91 86 88 87 79 64 55 52 50 49 47 42 38 40 40 50 64 84 92 92 98 100 100 100 100 98 100 100 96 88 90 95 93 89 95 99 87 95 99
99 96 87 81 79 75 67 66 58 54 44 41 39 38 38 39 39 37 38 39 41 40 41 49 52 60 70 81 90 93 88 87 100 100 100 100 99 96 99 99 100 99 100
95 86 79 73 59 52 49 42 38 33 27 22 19 17 16 16 15 14 14 15 17 22 30 37 39 39 42 49 60 62 60 67 72 91 100 100 100 100 100 100 100 100 100
70 71 71 66 54 40 32 27 25 26 23 18 16 15 15 14 14 15 15 14 14 14 13 12 12 13 21 34 42 45 46 54 62 66 69 82 81 88 97 91 93 97 100
67 68 70 67 58 47 35 27 24 21 20 20 20 20 20 21 21 20 20 20 19 19 18 17 17 16 16 15 14 15 25 43 54 57 64 72 89 97 98 100 100 99 97
65 65 66 66 60 50 41 31 24 21 20 20 20 21 22 23 24 24 24 25 25 24 24 23 22 21 21 20 19 18 17 16 14 14 32 64 79 92 95 99 100 95 99
63 65 66 66 61 50 42 34 28 24 23 24 24 26 26 26 26 27 27 27 26 26 25 25 24 23 23 22 22 22 21 20 20 19 18 15 15 60 91 99 100 100 100
60 63 64 65 58 50 39 33 30 29 29 28 28 28 28 28 28 28 28 26 23 21 19 18 17 16 18 19 19 19 18 19 20 20 19 19 18 17 18 58 96 99 100
59 62 64 66 56 47 36 33 32 32 32 32 32 34 34 33 29 25 22 20 19 20 19 19 21 19 17 20 20 20 20 19 19 21 21 20 18 21 38 46 34 82 93
60 64 67 63 53 41 37 36 37 38 38 38 36 30 23 21 21 20 20 22 22 21 20 20 20 20 17 17 16 17 17 17 17 17 18 23 23 23 26 93 99 80 71
62 65 66 56 48 43 43 41 38 36 35 29 20 20 22 22 21 22 24 27 30 30 29 27 26 26 25 21 19 19 19 18 16 15 15 16 23 28 45 78 97 99 99
66 63 58 52 49 47 43 38 35 31 21 17 19 20 22 24 27 27 30 30 32 33 31 32 29 31 34 31 26 24 27 31 40 40 23 20 19 24 27 44 83 93 98
63 61 56 52 50 44 38 34 26 20 22 21 19 20 21 24 29 31 30 30 36 40 36 36 31 31 34 38 38 36 36 48 79 53 42 37 32 36 72 83 94 99 99
66 60 55 52 41 35 32 21 20 21 17 16 19 24 29 32 34 35 33 35 37 46 47 46 43 37 37 39 41 41 44 48 65 85 92 99 93 69 65 64 61 92 88
64 58 55 40 33 30 22 24 22 19 21 26 30 32 34 36 37 39 42 47 47 48 48 48 57 64 72 74 67 65 68 80 90 85 88 89 99 100 98 97 88 100 100
60 56 38 34 29 24 27 24 23 27 32 35 38 38 39 40 43 46 49 50 46 56 84 92 100 100 99 100 100 98 97 96 93 96 98 91 84 92 98 100 100 100 100
53 35 35 28 24 26 22 22 29 34 39 42 42 42 45 48 54 56 51 47 59 85 99 100 100 100 100 100 100 98 97 97 98 95 93 93 92 91 95 94 92 90 99

GFSMW_850_rhum_102.txt.gz
RH
80 85 94 95 99 69 56 46 29 31 30 31 38 48 58 61 60 60 64 66 69 68 71 78 72 78 98 99 98 98 90 99 98 100 100 84 76 97 63 44 42 47 60
81 93 89 78 94 100 98 76 60 35 45 46 65 71 69 68 66 65 60 64 67 71 78 76 70 74 92 100 98 92 95 97 99 100 100 98 89 85 58 54 47 48 48
100 100 90 96 96 93 92 84 95 99 96 94 78 73 63 57 57 60 61 60 68 77 76 72 70 70 87 88 94 90 97 99 98 100 98 96 81 69 63 48 46 47 59
100 100 96 98 99 97 96 100 100 99 82 58 66 70 69 91 89 73 85 88 88 98 90 74 73 72 88 90 89 88 96 100 100 100 100 97 76 68 65 64 58 61 66
98 99 99 98 100 100 98 100 100 70 65 67 65 69 85 87 97 96 86 93 84 88 100 99 95 93 93 94 94 92 100 100 100 99 100 100 83 82 79 75 65 60 50
98 100 100 100 100 100 98 100 97 81 94 86 78 90 94 100 100 96 96 96 91 98 100 100 96 94 99 98 90 98 99 99 100 100 100 99 97 88 92 82 82 80 81
99 99 99 99 100 100 100 98 98 98 100 100 98 100 99 99 96 100 100 99 88 84 92 100 100 100 99 98 99 100 99 100 99 99 100 100 100 97 90 91 81 84 83
100 97 100 100 100 98 96 88 85 88 84 82 82 92 90 98 100 100 99 100 99 96 99 100 98 100 99 100 99 94 99 100 96 99 99 100 100 94 85 81 89 99 99
99 99 98 99 100 100 96 93 84 79 73 76 80 82 72 56 54 55 55 68 81 98 100 93 97 100 100 100 100 100 100 100 94 99 99 92 89 83 79 81 90 100 99
99 100 98 96 95 96 94 92 85 64 69 68 52 54 67 72 59 45 45 41 41 42 55 73 80 81 90 98 99 100 100 100 99 100 100 97 93 94 92 89 93 96 98
98 98 96 87 78 81 73 69 61 50 36 32 27 24 27 34 29 23 18 18 19 21 29 38 42 47 51 70 75 83 92 94 94 97 97 100 100 100 99 96 99 97 98
88 86 80 72 53 50 40 37 33 24 20 18 18 17 16 15 15 16 16 16 16 16 15 14 13 14 18 26 39 48 53 60 67 76 84 90 98 100 100 95 100 100 100
83 73 74 70 58 38 31 26 23 22 21 20 20 20 20 20 20 20 20 20 21 21 21 21 20 19 18 17 16 14 14 19 35 48 55 59 63 68 75 92 100 100 99
68 67 72 70 57 45 35 27 24 22 22 21 21 21 22 23 24 24 25 25 25 25 24 24 24 23 23 22 22 22 21 20 18 16 14 17 33 58 72 84 89 95 98
64 66 69 71 63 53 44 34 29 26 25 25 26 27 28 28 28 27 26 25 24 23 20 18 17 17 18 19 19 20 20 20 21 21 20 20 18 15 16 44 76 91 94
62 66 68 66 66 55 47 38 33 30 30 30 30 30 29 28 27 27 25 19 15 14 14 15 15 14 14 14 13 13 11 12 12 13 15 17 19 20 19 18 24 66 92
60 65 64 64 65 57 48 38 35 34 34 33 32 30 31 30 24 19 18 18 19 20 19 18 18 17 17 16 15 15 16 18 16 14 13 12 13 15 20 20 22 23 43
57 58 61 64 67 58 46 38 37 37 36 33 32 30 20 16 17 19 20 21 21 20 20 21 21 20 19 20 19 19 18 19 16 16 17 30 28 24 22 31 52 35 28
59 63 64 67 67 55 43 41 41 38 35 33 26 20 24 26 25 24 22 22 20 19 20 20 22 24 22 24 25 24 21 21 22 40 40 38 18 31 21 27 80 86 87
58 60 65 67 61 50 46 45 40 36 32 23 22 23 23 21 20 20 23 25 25 22 22 21 22 22 22 21 23 28 30 54 68 69 72 76 47 19 18 40 85 86 87
62 65 68 62 54 50 48 40 35 29 23 22 21 21 22 24 28 30 31 31 31 32 30 30 27 33 38 28 28 30 33 58 76 74 74 79 74 37 40 85 94 93 95
65 66 62 58 53 50 41 36 28 24 22 18 18 23 30 34 36 37 37 37 39 45 38 48 46 38 52 56 39 34 39 46 93 87 82 83 81 60 95 95 95 97 96
66 64 61 56 53 40 35 26 23 20 17 19 27 31 33 36 38 40 44 51 57 74 74 72 72 73 79 91 97 96 85 79 96 94 94 99 94 92 86 95 100 98 97
70 66 60 54 40 34 25 21 20 18 21 26 29 34 36 36 41 46 55 70 78 84 86 92 92 92 94 96 97 96 99 100 97 98 95 98 99 98 98 96 97 100 100
69 62 57 40 34 26 24 22 20 23 26 30 35 38 41 53 59 61 53 56 56 75 100 99 100 100 99 97 98 97 99 98 98 98 94 90 93 94 93 95 98 100 100
64 58 40 34 26 22 23 22 24 26 34 37 41 44 55 64 65 71 53 53 75 84 95 100 100 100 100 100 93 92 98 99 98 95 91 94 96 94 94 94 95 97 98

GFSMW_850_rhum_105.txt.gz
RH
76 83 87 98 99 97 97 89 78 65 53 49 61 77 86 92 98 98 84 84 79 86 92 92 93 93 93 94 94 94 96 90 86 94 97 97 100 98 94 87 82 57 54
84 93 99 98 96 97 85 72 94 77 57 51 81 86 88 93 97 100 86 77 68 65 85 95 94 89 91 96 97 91 91 97 95 95 92 99 97 100 96 99 79 55 63
94 98 98 98 99 99 88 97 98 89 88 84 89 90 96 82 89 81 66 72 74 84 85 83 91 92 90 88 86 89 90 99 99 98 98 98 93 87 94 84 79 70 70
96 100 96 98 100 99 100 100 100 97 95 100 94 88 88 99 99 100 100 98 99 87 90 98 98 99 92 93 90 87 88 93 98 99 96 96 98 90 83 87 88 83 80
99 98 98 100 99 100 99 98 99 100 97 100 78 66 70 98 99 99 100 94 89 83 74 82 91 98 97 93 87 88 90 94 97 100 100 99 99 100 87 76 73 81 80
98 98 99 100 100 100 100 100 100 100 100 98 78 69 74 99 97 97 98 98 97 93 87 99 98 99 99 99 100 96 98 98 94 96 99 99 100 99 100 88 84 87 76
98 98 98 98 100 99 97 95 94 94 95 96 97 99 100 96 99 97 98 100 99 98 98 100 96 100 99 100 99 99 99 100 100 98 99 99 100 100 100 99 86 99 95
99 100 99 100 100 99 95 88 81 83 82 77 76 78 74 91 93 86 85 88 93 97 100 99 94 95 100 100 100 100 100 100 100 100 100 100 100 99 100 100 100 100 92
99 99 99 99 98 97 96 93 87 88 70 62 80 84 83 80 72 69 54 48 43 46 56 71 79 78 81 86 98 99 100 100 100 100 100 100 100 100 100 99 100 100 99
98 98 97 97 94 92 87 84 72 69 77 78 51 54 61 64 55 33 20 19 20 21 20 29 36 47 66 69 80 87 89 91 100 100 100 100 100 100 99 96 99 99 99
98 98 91 81 81 73 67 66 48 36 27 25 24 24 26 27 26 23 20 19 19 19 22 21 18 22 25 25 40 54 72 69 73 86 94 97 97 100 100 100 100 99 100
98 91 85 78 58 42 39 40 35 25 23 23 23 25 24 22 22 22 22 24 24 23 23 25 27 23 24 27 24 22 19 20 18 24 31 47 66 80 87 92 100 100 95
84 79 66 65 65 54 51 45 35 29 24 25 32 29 24 25 27 26 26 26 24 23 22 20 20 19 20 20 21 22 23 23 22 21 19 16 15 25 41 59 76 81 90
65 62 59 62 65 60 47 44 41 27 26 28 30 30 29 29 29 28 26 24 21 16 13 11 12 11 11 12 10 10 11 12 15 17 20 21 21 20 17 15 17 40 60
58 56 60 62 64 64 53 43 35 31 30 30 31 31 29 28 27 27 23 17 15 15 13 12 11 11 12 20 11 10 11 13 15 10 9 10 12 16 20 21 21 22 30
51 54 58 63 67 66 62 48 39 35 34 35 36 33 31 29 24 14 10 10 10 10 10 11 12 12 12 11 11 10 9 8 10 17 19 18 13 15 12 17 21 23 27
49 53 58 62 67 68 60 49 40 37 38 37 34 33 31 21 16 19 22 32 44 49 57 58 56 53 45 31 22 20 18 16 15 14 10 10 19 32 50 47 26 27 38
50 53 57 62 70 67 62 48 41 41 41 40 37 32 18 15 15 14 16 23 28 35 38 36 34 35 32 35 26 27 25 27 31 46 50 62 54 37 30 18 16 18 26
49 54 59 65 73 67 60 46 45 48 40 33 26 15 15 14 18 26 31 32 34 29 29 28 25 26 22 24 25 28 26 25 33 56 63 65 74 83 87 43 27 20 17
58 62 68 67 67 65 54 48 48 42 32 25 19 18 16 17 21 25 27 28 32 32 32 32 31 38 44 53 64 53 50 62 71 66 67 68 75 88 95 88 89 93 84
62 63 63 66 66 59 52 50 44 33 26 20 18 16 21 30 35 34 34 36 36 40 44 50 55 56 57 60 70 84 86 90 89 79 72 75 78 86 95 94 94 93 91
58 63 65 66 60 56 53 45 33 28 21 18 18 24 31 42 44 48 55 61 66 69 68 67 66 64 67 74 85 94 96 96 98 95 89 86 90 96 98 94 94 95 97
60 65 64 61 59 56 46 33 30 21 19 19 24 34 43 50 59 67 68 72 74 74 74 74 78 81 82 84 91 95 96 95 94 90 94 99 94 96 95 94 96 96 97
64 66 66 64 58 49 34 28 23 20 19 22 30 39 46 55 65 75 78 77 77 79 83 91 93 93 88 86 90 89 88 89 91 92 84 93 95 94 92 92 83 84 97
67 68 69 61 52 37 30 24 20 18 20 28 34 41 51 54 70 68 72 76 81 95 100 100 100 98 93 91 100 99 96 94 95 98 93 88 82 83 82 85 86 87 88
66 69 64 54 38 32 23 20 18 21 30 32 37 45 48 57 67 72 65 77 96 100 100 100 100 99 100 100 100 100 100 100 96 94 95 93 94 95 95 95 95 92 95

GFSMW_850_rhum_108.txt.gz
RH
79 83 90 96 87 83 73 72 74 72 92 73 57 50 54 78 88 92 91 83 80 75 77 92 92 91 89 88 88 87 92 76 67 86 88 85 87 84 78 81 99 99 83
81 86 88 96 99 93 85 74 80 73 84 88 64 48 65 75 77 82 88 93 80 77 89 96 93 92 89 84 86 85 82 88 88 89 100 100 97 94 95 88 83 99 100
85 94 99 92 100 100 93 84 99 99 81 82 78 72 74 72 76 76 78 90 88 86 92 87 93 82 90 90 88 90 92 94 89 92 97 93 91 88 85 79 73 75 93
89 98 98 96 98 99 98 92 92 99 96 84 79 83 95 79 78 90 93 99 97 89 99 96 91 94 94 96 98 97 95 93 96 93 94 94 97 95 88 85 83 80 80
96 99 91 92 97 98 100 94 91 100 98 97 91 97 92 80 85 97 74 99 97 94 100 92 90 82 83 86 90 94 99 100 100 96 95 99 90 96 100 98 91 89 89
85 92 90 97 100 98 99 99 97 98 100 100 97 99 96 77 78 79 94 95 99 97 100 98 100 100 93 95 98 99 99 99 96 98 100 100 99 97 100 100 100 93 93
96 96 93 97 98 96 94 93 90 90 87 87 94 97 100 97 96 96 94 100 98 99 99 99 100 93 89 90 96 100 100 99 100 99 94 96 100 98 100 100 100 98 97
98 99 99 100 100 99 93 93 91 75 69 85 90 82 76 80 86 81 77 68 64 60 60 76 72 73 74 87 84 93 90 97 100 100 100 99 100 100 98 100 100 100 100
98 98 98 98 95 93 90 82 83 93 88 77 57 55 62 65 61 61 55 65 69 38 30 31 30 32 36 44 63 72 80 92 90 98 100 100 100 100 100 100 100 100 100
98 99 99 97 90 86 75 67 60 51 56 50 48 45 47 40 39 27 31 29 23 23 24 25 25 22 24 29 28 34 52 77 92 90 85 95 99 100 99 99 100 100 100
98 97 91 84 75 60 42 38 33 25 26 23 24 24 23 23 25 27 30 30 31 31 28 26 25 26 26 24 29 30 30 33 40 60 74 52 60 85 83 90 95 99 100
94 90 83 66 59 52 40 32 28 29 25 24 26 25 24 26 27 27 27 26 24 23 21 18 16 14 13 14 16 16 20 23 26 36 32 32 25 24 54 54 69 82 90
95 88 79 65 64 62 47 40 34 28 26 26 29 31 31 30 29 28 26 23 19 14 11 11 10 10 10 13 11 12 9 9 11 14 17 20 22 22 22 19 19 26 40
85 76 66 60 62 64 54 42 37 31 30 31 32 33 32 30 27 25 19 11 10 11 12 13 14 14 16 23 14 10 10 10 10 14 19 19 19 15 12 14 20 21 21
72 62 60 59 62 64 63 51 44 38 35 35 35 34 31 29 28 20 14 13 13 12 13 14 14 14 15 18 20 16 13 12 10 11 15 16 15 18 19 28 26 20 20
58 57 55 57 62 64 65 61 50 42 38 39 39 38 35 31 20 12 10 9 8 9 12 14 16 15 14 14 14 14 12 11 12 11 12 19 20 36 36 30 26 32 45
57 54 51 56 60 64 66 64 55 44 41 43 41 36 31 21 13 12 11 12 16 21 23 25 27 25 26 29 36 29 20 16 16 16 15 15 19 35 58 66 38 21 18
52 51 50 55 60 65 66 65 56 45 45 45 39 33 24 13 12 10 14 20 24 27 29 29 31 33 30 37 41 77 66 47 31 33 45 61 57 50 54 52 32 24 19
50 52 51 56 61 63 64 64 52 48 50 42 34 24 15 11 11 17 25 32 36 33 35 37 41 47 45 53 58 78 74 63 44 48 66 67 68 71 80 93 79 36 16
48 50 53 58 62 65 64 60 51 52 46 35 25 15 12 13 17 25 30 32 36 35 39 41 49 58 63 61 68 74 84 96 92 82 70 60 70 87 87 92 98 94 88
52 55 58 61 63 64 64 55 53 50 38 27 15 12 12 17 29 34 36 36 38 40 44 50 49 55 52 56 75 90 93 96 97 98 92 89 96 93 94 96 96 97 94
55 61 62 62 64 65 58 55 52 39 28 15 12 13 21 34 37 36 34 42 48 52 53 55 54 53 55 69 82 96 96 95 96 94 90 84 93 99 97 98 98 97 95
55 58 61 64 64 60 58 55 41 29 17 14 14 20 29 33 36 41 48 54 61 67 64 69 68 67 63 60 65 92 100 100 96 95 94 95 93 94 91 83 94 98 94
54 57 62 63 63 63 58 46 30 18 14 14 19 28 31 32 36 44 57 61 64 65 71 82 92 92 83 72 77 88 92 90 90 86 87 92 89 82 74 80 79 83 88
55 61 65 66 66 61 52 31 20 16 14 18 26 29 32 35 34 40 54 61 69 88 99 100 100 98 94 90 98 99 92 93 96 99 91 87 92 87 81 81 84 86 95
60 64 67 68 64 56 34 25 17 14 18 26 27 29 30 31 37 45 45 56 68 88 98 99 100 96 97 100 99 96 97 98 96 96 98 93 83 85 84 83 83 84 87

GFSMW_850_rhum_111.txt.gz
RH
70 70 67 68 67 66 64 69 68 65 62 58 79 77 62 54 46 66 76 79 84 93 98 94 93 84 80 85 90 88 88 85 88 98 82 66 62 70 76 78 82 86 88
71 75 68 66 82 87 88 80 78 72 76 71 72 80 77 57 75 70 76 84 97 95 94 84 80 82 79 89 88 90 90 92 88 92 93 98 90 89 73 73 80 80 79
76 78 94 97 98 98 98 96 85 80 82 75 78 75 77 67 79 81 85 95 98 96 96 88 84 83 73 76 74 80 87 90 84 93 99 95 87 83 83 79 75 75 75
80 94 88 88 92 91 96 99 84 82 95 90 94 84 85 96 96 81 89 100 100 100 93 80 73 85 86 87 83 86 85 85 86 95 99 96 98 99 91 84 83 82 82
90 83 86 88 88 84 84 95 95 88 95 93 99 99 94 98 100 100 99 98 97 89 96 92 84 95 100 90 92 94 86 80 89 98 97 94 99 98 100 98 93 93 87
91 88 83 85 92 85 85 92 91 92 89 92 99 100 100 100 100 98 97 90 98 99 98 100 100 100 97 94 92 88 89 90 97 100 100 100 99 95 96 99 99 98 88
90 81 87 87 90 92 89 87 81 78 81 85 81 83 92 94 86 80 81 85 82 81 79 80 74 69 68 63 70 83 89 86 84 94 100 100 98 100 100 100 100 99 99
90 82 89 96 95 92 88 87 93 89 83 65 60 68 66 63 64 70 72 68 58 43 42 47 46 37 33 31 32 33 42 67 88 85 96 93 98 98 100 100 100 100 100
96 90 92 96 95 93 83 69 59 69 72 72 63 49 42 43 35 34 36 33 35 34 38 46 46 39 25 25 29 28 27 27 37 58 84 96 90 95 100 97 100 100 100
91 97 97 98 85 84 62 45 33 28 29 25 24 23 23 23 26 28 29 28 28 30 31 30 27 24 23 24 24 24 28 30 36 43 49 62 89 91 97 92 96 98 98
88 89 90 84 78 57 41 31 26 23 22 22 23 24 24 26 28 28 28 26 25 23 20 16 13 9 8 8 8 10 11 11 15 23 42 56 59 61 60 73 78 87 94
87 89 86 74 62 63 50 35 30 28 27 26 27 28 29 30 29 28 25 24 19 13 11 10 10 9 9 9 9 10 11 8 9 14 16 19 20 27 31 33 34 45 63
87 85 80 68 64 63 58 46 37 33 30 31 32 33 32 31 29 27 23 15 10 9 10 10 10 11 13 15 15 18 15 12 11 12 16 28 35 29 23 20 23 24 28
79 74 71 66 64 62 61 58 45 39 36 35 36 37 36 32 29 25 15 12 12 13 15 18 20 24 26 25 26 17 13 12 12 12 12 15 24 24 28 39 34 30 31
74 70 67 64 62 60 60 61 57 47 42 38 39 40 37 33 28 17 12 11 10 10 14 18 20 21 22 24 28 41 41 22 14 13 14 19 24 24 37 54 52 51 39
64 64 64 63 61 57 60 62 63 57 47 41 42 42 36 29 22 12 10 9 10 14 17 18 19 19 20 21 22 23 29 33 27 21 18 18 24 46 58 63 64 61 54
54 58 60 59 56 55 59 62 64 62 51 43 46 43 36 29 16 11 9 10 16 20 22 24 24 24 27 30 32 37 42 39 37 33 27 27 37 56 64 67 69 69 62
49 52 56 57 52 55 60 64 67 64 50 48 48 40 32 18 12 10 13 18 23 24 26 27 31 32 33 39 41 55 72 70 62 55 50 45 42 50 67 81 84 86 74
48 50 52 53 51 55 60 65 67 61 51 51 45 33 20 12 10 12 18 24 26 30 33 37 42 47 47 56 64 81 80 82 82 76 71 69 59 51 82 95 92 87 79
50 50 53 53 53 57 62 65 64 57 53 50 36 24 13 10 12 19 24 28 33 38 40 40 44 47 52 52 62 95 96 98 96 96 96 88 96 94 92 95 98 96 86
49 50 51 52 55 60 64 64 62 54 53 39 27 15 11 12 20 25 32 36 38 41 40 39 39 44 52 57 68 91 99 97 98 96 88 82 82 99 98 97 94 90 97
50 54 56 58 62 65 64 63 57 55 45 29 16 11 12 20 25 30 32 34 37 39 40 40 41 50 57 59 59 75 100 100 97 94 92 89 94 96 94 96 95 94 93
51 54 57 60 63 63 64 59 57 51 32 19 12 11 19 24 27 32 34 35 40 44 47 56 63 58 56 57 64 72 83 97 99 88 91 99 98 97 89 79 97 96 85
52 55 56 59 61 63 62 61 55 36 22 12 10 17 22 23 27 32 34 40 44 49 64 82 93 90 82 77 78 86 90 90 94 92 96 98 99 94 77 70 72 73 77
56 58 57 59 63 64 64 59 42 26 13 10 15 22 24 24 24 27 33 40 47 66 90 99 99 98 96 95 100 98 95 95 94 98 94 93 89 81 87 84 76 78 83
56 58 60 64 64 64 62 54 31 15 10 14 21 23 23 25 25 27 30 46 55 64 69 76 99 99 100 100 100 97 98 98 98 96 88 76 82 89 89 85 83 86 86

GFSMW_850_rhum_117.txt.gz
RH
75 74 69 67 65 64 67 69 72 74 74 73 69 70 82 78 91 92 78 82 86 77 70 72 83 90 92 90 100 95 100 99 96 92 84 76 67 54 44 38 36 35 36
76 74 70 69 70 73 75 78 79 76 75 71 78 84 90 100 100 99 83 90 89 84 95 91 92 100 100 98 100 98 100 100 100 94 85 76 59 47 59 65 60 59 63
76 76 74 72 74 76 74 77 79 74 72 72 78 80 88 98 95 95 99 98 97 94 93 92 96 90 100 97 98 98 93 91 97 91 96 91 91 86 70 64 66 78 74
76 76 76 73 75 78 75 78 78 72 70 71 78 91 93 88 97 99 97 92 98 92 92 95 98 98 94 90 78 93 92 79 83 91 95 96 100 99 95 89 81 82 98
81 80 78 75 77 78 76 77 80 79 79 73 71 86 86 80 86 91 96 99 99 100 100 100 100 99 100 99 100 97 97 92 87 90 87 88 90 100 99 100 89 77 87
82 80 79 77 79 78 83 80 72 67 70 70 69 64 64 71 72 72 70 68 64 60 56 55 52 41 41 42 46 50 50 53 59 71 85 97 100 98 100 100 100 95 82
79 84 79 80 81 83 87 87 85 80 71 58 51 50 54 53 57 55 51 53 52 51 47 46 48 52 47 41 35 29 29 28 29 30 37 46 66 85 90 100 99 97 84
80 79 80 79 86 84 77 61 56 64 53 42 26 24 24 26 30 30 31 34 36 30 30 30 30 31 31 30 26 22 20 20 21 22 23 26 35 47 86 92 76 90 99
79 79 79 78 82 84 77 52 34 26 26 23 24 24 24 25 25 26 27 26 24 21 18 15 12 9 7 7 6 6 7 9 9 9 11 15 19 25 30 32 46 98 100
78 77 74 77 82 85 78 45 30 26 24 24 25 26 27 29 30 29 28 24 21 15 9 7 7 6 6 6 6 7 9 12 12 11 11 14 17 21 23 23 24 43 78
67 72 71 76 81 81 73 40 33 28 28 28 30 32 33 33 31 29 26 22 15 9 8 8 8 8 9 10 12 13 14 15 14 12 10 10 10 13 22 25 31 39 49
60 67 68 72 73 71 51 50 46 37 33 32 33 36 37 38 35 31 26 21 11 9 8 8 9 11 14 16 16 17 18 19 20 20 17 14 13 15 17 19 29 46 50
56 62 65 60 61 58 54 58 59 53 42 39 38 39 40 41 39 33 27 19 11 9 9 10 14 16 17 18 19 19 20 21 25 25 24 22 18 16 19 26 40 47 60
52 56 60 56 56 55 56 59 60 61 58 48 45 43 42 43 43 35 28 16 10 9 10 15 18 20 21 22 23 24 28 32 33 32 30 30 27 26 33 42 47 55 68
50 48 52 53 53 54 55 58 60 61 61 60 54 50 46 45 46 37 28 14 11 10 14 18 21 22 23 23 24 29 34 39 44 44 42 37 34 35 35 45 59 75 93
44 45 47 50 49 50 52 58 59 57 60 62 61 58 51 47 47 37 24 12 10 11 17 21 21 22 23 25 25 26 34 39 44 45 47 44 45 42 41 39 46 96 94
32 35 38 43 45 46 48 55 57 59 61 63 64 62 55 49 48 35 18 10 10 15 20 22 24 24 23 25 27 33 35 36 40 45 47 46 48 51 46 49 70 69 68
30 30 31 38 43 45 50 54 61 64 61 63 65 65 56 51 46 28 12 10 13 19 22 23 24 22 23 23 26 34 38 44 46 49 48 49 48 45 58 92 90 78 69
32 37 38 43 48 48 48 55 61 62 61 63 66 66 56 53 38 19 10 11 18 22 24 24 22 22 23 26 35 42 43 44 44 46 47 54 53 50 95 96 92 86 77
31 36 41 46 50 51 52 56 59 59 58 62 66 64 55 50 29 13 11 18 21 22 23 24 25 27 28 38 44 48 52 49 52 51 60 66 69 90 100 94 94 98 86
32 37 40 41 45 50 53 55 58 57 58 66 68 60 55 38 18 12 16 22 23 24 23 24 28 33 44 49 54 54 67 79 93 97 87 78 73 97 100 100 96 95 96
36 42 44 44 46 48 54 57 58 58 65 68 64 56 47 25 12 14 22 23 24 23 23 26 30 42 54 58 58 62 93 100 100 100 99 86 96 97 98 95 96 96 94
45 49 48 46 46 47 53 56 58 63 67 66 58 54 34 16 13 19 23 24 24 23 26 31 36 46 51 53 60 66 77 95 100 100 96 100 100 99 90 68 81 99 89
39 49 55 52 51 54 57 61 66 68 65 60 57 42 21 13 16 22 23 24 23 24 30 37 47 50 48 52 58 67 84 92 90 86 89 97 93 79 68 62 62 67 81
40 44 53 58 56 58 60 64 66 64 62 60 52 30 14 14 20 22 24 24 23 28 34 48 58 61 54 60 88 100 99 96 96 99 96 86 75 66 66 66 67 70 73
43 46 47 61 62 63 63 64 64 65 63 60 40 21 14 17 21 22 23 26 27 36 48 60 68 63 67 86 100 100 100 100 98 96 90 74 72 75 77 78 79 80 81

GFSMW_850_rhum_120.txt.gz
RH
71 68 66 65 63 60 62 64 70 72 71 69 66 66 71 94 98 81 81 75 86 86 82 86 98 100 99 98 99 91 92 99 95 100 99 95 94 88 78 70 55 43 42
74 72 72 70 65 65 70 71 77 77 75 75 78 79 87 99 98 94 98 97 97 91 91 87 88 97 96 98 94 96 89 96 93 93 91 90 81 67 62 60 65 60 52
72 75 74 72 70 74 72 74 80 77 73 73 78 82 83 84 82 85 89 89 89 87 81 82 84 75 84 93 92 86 83 86 86 80 93 85 90 77 73 69 71 72 70
77 76 76 75 74 77 75 77 80 78 74 72 71 75 74 76 82 87 92 96 94 94 96 92 96 98 97 100 99 91 97 99 97 99 99 96 98 88 82 75 86 76 78
76 78 78 76 76 78 79 77 74 73 73 70 68 72 75 72 72 68 70 71 68 67 64 62 61 64 70 63 68 68 80 78 82 90 89 93 95 100 100 99 94 58 50
76 78 78 79 80 79 81 76 71 70 65 61 59 61 62 62 61 61 60 57 56 54 51 51 50 54 55 58 55 39 35 34 32 31 31 39 60 90 97 98 97 98 70
76 77 77 78 81 78 83 81 80 77 69 54 36 30 29 36 40 42 43 41 38 34 27 26 26 26 26 27 28 31 31 27 23 22 23 26 27 30 36 52 81 63 42
75 73 73 73 78 79 74 57 49 55 47 31 23 22 23 23 24 24 25 25 24 23 20 16 12 10 8 8 8 8 7 7 8 7 8 12 19 30 56 69 50 52 65
70 72 74 72 79 81 76 61 36 27 25 23 24 25 25 27 28 27 26 24 20 17 12 8 8 8 10 10 11 11 12 12 10 9 8 8 7 8 8 9 16 32 98
70 68 69 69 77 81 82 64 32 27 25 26 27 29 31 32 32 30 27 24 20 14 8 7 6 7 7 9 11 13 14 15 15 14 13 12 11 12 15 20 24 37 82
54 55 59 62 73 79 73 64 40 31 29 30 31 33 35 37 37 34 31 26 21 12 7 6 6 6 8 10 12 13 14 15 16 18 18 18 15 14 16 18 23 38 72
48 51 56 62 67 68 67 58 42 37 35 34 35 37 38 39 40 39 35 29 22 12 8 7 8 12 15 16 16 17 18 20 22 24 25 24 22 20 19 21 28 43 47
47 49 54 57 59 58 59 52 47 50 49 44 42 40 40 41 42 43 40 32 23 11 8 8 10 14 17 19 20 22 23 27 29 29 28 27 26 25 24 23 26 32 42
44 47 50 51 53 50 50 48 50 54 57 58 52 48 46 44 44 45 44 34 22 10 8 10 14 18 19 20 20 22 24 27 30 32 33 32 30 27 27 29 32 39 52
40 45 43 44 48 51 48 48 50 54 58 60 61 58 52 49 46 47 47 37 22 10 9 12 18 19 20 21 21 22 28 31 34 38 40 42 42 46 48 50 46 66 82
33 35 39 45 45 46 46 45 47 51 59 60 59 62 59 56 52 48 49 37 19 10 11 17 20 21 22 22 23 24 26 27 32 36 40 46 51 48 46 46 51 98 93
30 30 31 32 34 39 44 45 44 50 59 62 60 63 63 62 56 50 51 36 16 10 14 19 21 21 22 22 24 28 29 36 42 42 44 43 44 46 45 44 59 77 79
27 27 29 32 33 36 42 47 50 52 60 65 63 63 65 65 61 53 51 32 13 11 17 20 22 22 22 24 28 35 39 41 42 45 46 47 46 52 53 76 85 80 76
22 20 25 33 37 41 44 49 52 56 60 64 68 64 65 67 62 55 48 25 10 14 19 22 22 21 22 25 32 42 44 43 44 47 51 62 70 66 97 100 97 92 84
24 24 24 31 37 42 51 52 50 52 57 61 63 64 65 68 62 56 41 15 11 17 20 23 23 23 23 28 43 49 49 49 53 54 63 74 82 95 100 100 93 95 88
29 30 31 38 44 46 49 54 56 55 56 61 67 64 66 68 59 53 28 11 14 19 21 20 21 24 27 34 48 52 56 68 92 98 86 78 82 96 100 100 94 95 98
34 34 34 45 47 47 49 50 54 57 61 67 64 65 68 65 57 43 17 12 19 20 21 20 21 26 31 48 51 54 58 96 99 99 96 91 94 96 96 98 86 94 99
40 36 35 37 45 50 48 46 50 60 65 63 64 68 68 60 53 29 12 18 21 21 21 20 22 24 36 50 54 56 66 96 100 100 100 100 100 100 94 78 63 72 62
38 36 36 36 36 50 54 54 57 61 63 65 68 68 62 57 40 17 13 21 22 22 21 21 25 30 41 50 55 60 82 96 99 94 96 94 97 83 70 63 62 62 64
43 41 38 39 41 49 60 60 62 64 67 69 68 64 59 50 26 14 19 22 23 23 22 24 33 40 43 53 62 99 100 100 100 100 95 88 76 66 66 68 70 72 74
46 41 41 48 47 52 64 65 65 67 68 66 65 62 58 37 18 15 22 24 23 24 25 30 45 50 58 60 65 100 100 100 99 97 92 74 72 78 79 79 80 82 85

GFSMW_850_rhum_126.txt.gz
RH
68 50 55 58 60 59 57 56 56 56 62 64 66 72 70 70 69 68 73 74 76 76 76 69 70 72 77 78 79 85 88 97 77 78 95 91 67 65 68 83 97 97 97
66 47 52 60 62 61 59 58 58 61 66 67 68 69 73 76 76 79 82 78 79 75 77 72 69 76 76 76 73 76 79 82 85 89 94 81 83 85 80 82 80 83 70
45 69 50 59 62 63 61 60 60 66 67 67 68 70 75 79 78 76 73 74 74 71 72 67 60 61 60 64 66 65 69 67 80 93 98 96 90 96 98 93 92 97 93
54 69 56 59 64 64 62 62 64 68 67 67 68 71 71 70 65 64 64 62 60 58 56 55 54 54 56 58 59 59 53 46 44 50 61 95 100 98 96 97 98 95 80
65 71 57 62 64 65 65 65 68 68 67 65 63 64 64 63 62 61 58 55 52 48 42 33 25 22 19 21 25 25 28 29 30 26 26 32 74 98 97 89 68 61 65
61 64 64 64 66 68 67 68 69 66 64 63 60 58 54 53 51 46 41 31 24 23 21 17 12 9 7 6 6 6 6 6 7 8 9 14 49 80 78 69 62 61 45
62 62 63 64 69 68 62 68 69 67 65 59 45 30 22 23 24 24 24 24 24 21 16 11 8 6 5 5 5 5 5 5 6 6 8 9 13 21 48 73 59 54 44
62 64 61 63 64 62 62 68 71 70 67 52 27 22 23 24 25 26 26 26 24 21 16 10 7 6 6 6 6 7 8 9 9 9 10 11 13 15 64 83 73 56 51
53 52 54 58 61 59 59 67 66 55 43 33 28 24 26 27 29 30 31 29 27 24 18 11 6 6 6 6 8 11 12 13 13 14 14 15 16 16 18 31 78 78 61
49 47 48 50 51 54 59 64 48 41 30 25 25 25 28 30 32 35 36 35 32 27 21 13 8 7 6 9 12 13 13 14 15 16 17 20 21 22 22 23 50 78 84
40 42 41 43 47 50 53 58 53 47 34 28 27 28 30 33 36 37 38 40 39 34 27 17 9 7 8 12 14 14 15 15 16 16 16 17 18 19 21 23 34 80 92
36 34 35 37 39 45 50 53 56 52 43 37 31 31 33 35 38 40 41 42 43 42 35 23 10 8 10 14 15 16 17 17 18 19 20 22 23 23 24 27 35 68 89
42 42 40 40 39 40 43 47 49 46 45 44 39 37 37 39 41 43 45 46 46 46 43 30 14 8 12 15 16 16 17 18 21 21 23 23 24 32 38 40 58 75 89
36 37 37 37 34 40 43 43 46 47 50 49 48 43 45 47 47 47 49 50 50 49 48 38 18 9 13 15 16 16 16 18 19 19 22 26 30 36 44 81 91 94 95
33 36 40 33 33 35 36 40 43 46 49 51 51 45 49 55 57 55 53 53 53 52 50 45 24 9 13 15 15 15 16 17 20 23 27 32 35 40 43 49 86 93 94
32 30 31 30 30 31 32 35 37 44 50 53 51 49 50 56 59 60 58 57 57 56 54 50 29 10 14 16 16 15 20 21 24 32 36 37 37 40 42 45 49 54 97
35 32 30 30 28 28 29 30 36 40 46 50 55 56 52 54 60 64 62 60 60 59 56 52 31 11 16 17 16 15 18 19 25 32 39 38 41 44 48 54 70 87 98
37 37 35 31 32 30 30 29 31 41 46 49 51 58 60 57 61 67 67 62 62 63 59 54 31 11 17 18 17 16 20 22 30 38 41 42 48 55 61 94 100 100 99
34 33 33 33 32 34 34 32 38 48 54 52 51 53 60 65 65 66 70 65 63 65 62 54 27 13 18 19 18 19 22 27 36 43 45 49 55 84 99 100 100 100 100
35 36 33 32 34 39 38 34 45 50 50 55 59 60 60 65 68 68 73 69 64 66 62 52 21 14 19 21 19 21 26 37 45 52 60 66 67 90 100 100 100 100 100
38 37 36 36 41 41 38 37 42 46 53 54 60 64 64 65 70 74 78 72 65 66 60 44 16 18 21 20 19 22 34 50 57 60 87 97 100 100 100 100 99 97 97
41 43 45 43 42 42 41 40 40 43 49 53 51 55 66 69 72 76 80 69 67 66 56 33 15 20 21 20 19 24 38 51 83 87 96 99 100 100 100 100 100 99 89
51 51 51 47 45 45 43 38 35 36 44 54 54 56 66 74 77 81 76 67 68 63 49 22 17 21 21 20 22 29 40 49 54 77 99 100 100 100 100 100 97 70 91
50 48 46 42 39 38 39 43 44 45 49 59 59 61 68 74 78 75 68 69 66 57 38 16 20 21 21 20 25 30 40 50 60 80 100 100 100 100 100 79 69 78 88
46 44 38 36 41 48 51 52 53 53 60 64 63 63 66 68 68 68 69 68 61 48 23 17 22 21 20 22 23 29 45 79 98 100 99 98 100 100 97 92 95 100 100
44 44 46 47 48 49 50 54 57 57 62 65 66 67 69 71 71 71 69 63 56 37 18 20 22 22 20 21 21 30 46 82 100 100 100 99 100 98 93 91 93 97 98

GFSMW_850_rhum_129.txt.gz
RH
47 63 72 56 47 50 53 55 53 52 52 61 73 97 69 71 76 80 76 75 75 75 76 72 73 72 68 68 70 71 94 95 80 80 72 80 87 90 90 94 99 99 98
39 62 76 64 56 64 58 57 56 56 57 62 64 67 67 71 75 78 77 76 75 74 74 70 62 58 56 60 63 63 65 66 80 74 85 81 76 83 95 91 80 81 87
27 43 71 78 80 73 61 59 58 57 59 64 67 71 68 74 80 68 67 68 64 62 58 56 55 55 56 57 58 56 56 54 72 97 79 94 97 82 98 97 95 90 88
35 35 52 74 80 76 60 59 59 57 63 64 69 73 85 88 66 63 61 58 57 56 53 50 42 29 21 18 21 21 23 27 42 55 46 81 96 98 96 87 78 76 58
51 49 58 72 78 70 58 58 58 59 62 64 64 64 65 64 62 60 56 53 43 30 23 18 16 12 9 7 6 6 6 6 11 13 14 30 44 92 80 71 56 42 55
58 62 68 75 68 58 58 62 58 62 63 63 62 61 61 59 56 46 36 25 23 21 18 14 10 7 6 5 5 5 5 6 7 6 11 13 43 71 71 61 54 52 42
60 66 70 61 60 69 64 61 58 64 63 61 57 52 34 25 24 24 24 24 23 20 17 13 9 6 6 6 6 6 8 9 10 11 11 11 18 22 34 72 65 59 36
61 64 70 75 75 64 63 64 60 63 64 64 57 35 23 22 22 23 25 26 25 23 20 15 10 6 6 6 7 10 12 13 13 13 13 14 20 17 17 42 61 59 49
59 63 64 58 59 67 61 54 56 60 64 64 50 32 24 23 24 27 29 31 30 28 24 19 13 7 6 6 9 13 13 13 14 14 15 18 20 20 23 24 39 75 68
56 57 59 59 50 43 44 47 50 55 53 41 35 26 24 25 28 30 33 35 36 35 31 25 18 10 6 7 11 14 13 14 15 16 15 17 19 20 24 23 25 50 79
45 44 38 34 36 40 43 47 53 54 45 40 30 25 25 27 30 33 36 37 38 39 38 34 26 15 7 8 13 14 14 16 17 17 18 16 19 24 30 36 47 68 82
42 44 46 49 53 46 45 45 50 63 58 54 43 31 29 30 32 35 38 40 42 43 43 42 36 23 9 8 13 14 15 16 16 17 18 19 26 23 32 49 60 73 87
26 27 31 36 48 52 57 62 61 57 62 67 58 46 37 33 34 36 39 42 44 46 47 46 44 34 15 8 14 14 15 16 19 21 21 21 24 26 47 50 65 79 90
24 27 30 32 36 42 50 57 63 59 56 60 63 54 45 41 38 40 42 44 46 49 51 51 49 44 25 9 13 15 16 17 22 22 23 22 26 32 37 47 60 86 92
26 30 33 35 37 39 44 52 46 56 60 64 65 55 51 50 47 45 49 51 51 52 53 54 54 50 37 12 12 16 17 18 22 28 32 30 29 32 38 38 37 54 69
28 30 34 36 37 40 37 32 32 36 49 56 58 62 63 60 55 49 50 55 57 56 56 57 57 54 46 19 12 16 17 17 24 28 31 33 35 36 34 37 44 50 67
32 34 35 35 38 44 38 31 32 34 38 46 54 66 71 71 64 60 54 55 58 59 59 59 60 58 51 27 13 17 16 15 17 23 25 29 42 54 48 52 68 89 99
36 38 38 41 43 46 46 43 38 37 37 47 57 67 80 84 85 77 67 59 61 64 61 60 61 61 55 32 13 17 17 16 17 21 28 36 43 55 78 73 92 92 99
46 46 44 44 39 43 54 48 40 39 40 48 55 64 73 73 86 83 76 70 66 68 66 62 62 63 57 32 14 18 18 16 18 24 34 47 53 63 98 100 98 97 98
52 51 51 46 50 45 40 38 36 36 36 40 47 53 62 70 76 74 76 79 78 74 72 64 63 63 56 29 15 19 19 17 19 30 38 57 69 89 100 100 100 98 95
53 45 43 46 47 46 44 42 41 39 39 39 42 49 54 60 73 82 85 86 84 80 76 66 74 68 54 25 16 20 18 18 22 31 47 64 94 99 100 100 100 96 98
51 51 50 46 45 44 44 40 40 41 40 40 38 46 54 57 62 78 85 86 84 83 76 66 98 64 51 20 18 20 19 20 26 35 62 83 95 100 100 100 99 99 99
57 52 46 38 36 38 43 44 45 48 48 48 47 55 59 61 68 79 86 86 87 85 73 92 70 59 38 17 19 20 20 22 32 47 53 87 100 100 100 100 100 99 98
48 44 42 41 43 46 48 50 49 51 52 52 58 63 62 63 68 76 83 85 84 76 68 67 64 51 25 19 22 20 21 28 37 47 64 84 100 100 100 100 95 87 87
46 46 45 44 43 43 44 46 47 51 55 58 62 65 65 66 68 70 75 75 73 69 68 66 55 35 20 22 24 23 26 31 45 89 100 100 96 95 95 97 93 90 94
38 37 37 39 42 42 42 44 45 49 52 55 61 64 66 66 68 69 70 71 71 71 68 59 46 30 23 26 24 24 50 52 89 96 98 94 96 99 98 96 89 91 96

GFSMW_850_rhum_132.txt.gz
RH
38 52 61 60 43 42 40 43 48 50 51 52 61 88 80 65 78 76 76 75 72 71 72 70 65 60 57 60 59 61 62 62 59 55 52 75 80 89 82 88 88 84 90
36 48 59 58 51 47 43 47 50 53 54 55 63 70 64 72 78 78 74 72 71 70 67 61 55 54 56 56 55 56 55 56 58 68 58 66 81 78 96 92 84 80 76
25 39 49 51 52 52 49 51 55 57 56 59 65 70 67 78 87 74 65 65 60 58 56 54 51 45 35 21 20 26 23 25 35 68 64 80 95 62 94 94 87 73 68
25 27 34 46 50 60 63 58 60 60 56 61 65 70 92 96 79 64 60 57 55 52 44 30 19 14 12 9 7 6 6 6 6 20 23 61 91 88 70 72 50 63 53
34 35 36 40 54 68 64 61 59 59 56 61 62 64 67 65 62 60 57 49 32 20 19 17 13 9 8 6 5 5 5 5 6 7 7 8 16 90 80 65 21 11 14
48 49 48 50 62 69 61 58 60 56 56 60 60 60 60 60 56 47 31 20 20 19 17 14 12 9 6 6 6 6 6 8 10 10 11 11 16 23 32 35 18 22 21
56 56 58 60 62 60 55 57 59 53 54 58 57 56 55 46 27 20 19 21 22 21 19 16 13 9 6 6 6 7 10 13 14 13 13 13 14 17 18 24 29 28 14
57 60 61 60 58 56 54 53 51 48 52 56 55 52 48 32 20 19 21 24 26 26 24 21 16 12 7 6 6 9 14 14 13 13 14 15 16 17 19 21 31 20 17
53 51 51 49 46 43 41 43 46 47 52 57 56 50 40 25 20 22 24 27 29 30 30 28 23 17 10 7 7 11 14 13 13 14 16 16 16 15 15 17 23 44 58
40 36 33 30 29 30 33 35 36 39 44 53 54 47 33 25 22 23 26 29 32 33 35 35 32 26 18 9 7 11 14 13 14 15 15 16 15 14 15 17 18 29 54
38 37 36 37 39 43 40 40 38 39 44 48 48 39 30 25 24 26 29 32 35 37 38 39 39 36 29 17 8 9 14 13 15 15 16 16 19 18 20 20 23 27 42
28 27 27 29 36 43 47 51 49 50 48 54 57 49 43 34 28 28 30 33 36 39 42 44 44 43 40 29 13 9 14 15 16 17 20 21 24 26 26 33 42 40 47
23 25 27 26 30 33 43 49 51 52 56 61 63 63 58 53 39 33 32 33 36 40 43 46 48 49 47 42 27 10 12 15 16 17 20 20 22 24 30 43 48 51 62
24 27 30 33 33 36 38 40 43 51 58 62 63 64 64 62 59 51 42 37 37 40 44 48 50 52 54 51 43 20 11 15 16 17 22 24 23 22 26 32 38 43 52
26 30 32 34 35 37 38 37 42 46 52 61 64 60 63 68 73 72 64 53 43 43 47 49 52 54 56 56 52 36 12 14 17 17 21 23 22 21 25 33 33 40 43
30 32 35 36 36 38 42 42 39 38 40 39 40 48 58 66 70 74 78 73 60 49 50 53 54 55 57 58 58 49 20 13 16 16 16 20 26 28 34 35 40 44 69
35 36 40 40 40 40 42 41 36 35 38 38 37 40 53 65 70 76 82 82 77 65 56 57 58 58 58 60 60 56 31 14 17 18 17 22 25 32 38 44 52 66 82
42 48 48 47 43 38 40 44 44 40 39 37 37 43 56 64 73 82 85 86 85 80 71 62 63 62 60 60 62 58 34 15 17 18 17 20 23 31 43 48 58 64 80
52 54 50 48 45 46 46 44 42 42 41 40 41 42 49 56 64 74 79 83 88 86 83 75 68 67 64 61 63 58 37 17 18 18 18 22 26 35 47 78 90 95 96
52 50 47 48 48 46 46 44 42 42 42 41 40 40 41 48 56 66 79 90 96 95 91 86 78 73 68 62 62 98 40 18 19 19 18 22 32 50 74 100 100 99 92
50 49 46 44 40 33 30 30 33 36 37 39 40 42 43 46 55 61 67 82 92 96 92 89 86 80 72 65 95 98 39 20 21 19 18 22 37 58 92 98 98 99 99
46 42 40 39 42 43 45 45 46 47 48 49 48 47 49 54 59 62 67 77 89 94 93 91 88 84 74 75 100 63 28 22 23 19 20 25 39 52 90 98 98 100 99
43 42 41 40 42 42 42 40 40 41 40 41 44 47 52 58 59 60 63 68 78 85 88 90 89 84 75 99 70 47 23 23 23 21 24 31 40 46 99 99 94 100 100
41 38 37 36 36 39 41 44 44 44 45 45 46 50 54 57 59 59 62 64 68 77 83 85 84 77 68 66 59 38 23 25 23 24 35 43 53 63 96 98 88 93 92
32 31 30 29 31 34 35 38 42 43 43 47 47 48 51 54 55 57 60 64 65 68 70 71 71 69 68 78 67 52 27 25 25 42 64 68 60 66 78 80 88 93 98
24 22 22 22 21 21 21 23 30 37 41 45 46 51 53 56 56 54 55 59 63 69 72 72 72 73 86 81 94 86 31 28 34 97 93 70 71 76 85 91 91 94 93

GFSMW_850_rhum_135.txt.gz
RH
24 34 42 43 44 40 39 42 42 47 49 50 54 60 64 67 62 65 74 72 68 66 68 64 60 53 51 52 53 54 51 38 34 45 54 91 90 83 78 89 87 83 79
29 38 46 45 44 44 40 40 42 50 51 52 53 58 64 64 68 71 68 63 65 63 60 56 53 50 44 33 29 32 25 19 12 18 42 52 84 82 87 93 87 72 67
26 37 43 38 43 45 44 44 44 52 53 52 56 60 67 72 69 66 61 61 60 58 56 52 45 28 16 11 9 7 6 6 7 9 15 41 72 28 89 99 85 68 61
25 36 39 41 40 42 50 48 49 54 54 52 58 64 71 76 73 65 58 52 50 43 35 26 16 13 9 7 6 6 7 7 7 9 8 18 47 66 47 41 80 27 31
28 32 36 38 43 48 50 50 53 54 54 52 58 62 63 63 61 58 54 44 26 18 16 16 13 11 8 6 6 7 7 8 10 12 13 11 11 31 80 72 28 14 15
37 41 42 42 46 47 48 51 53 52 52 52 58 60 59 56 54 49 36 21 17 18 18 16 14 12 9 6 6 8 8 11 14 15 14 14 14 15 21 22 15 15 16
42 44 46 48 49 48 48 50 49 49 48 49 54 56 56 54 49 31 19 19 20 20 21 20 18 15 11 7 7 8 9 14 15 14 14 14 15 16 20 21 20 22 14
50 48 49 48 45 44 43 40 40 41 46 47 52 55 54 50 42 24 19 20 22 24 26 26 24 20 16 10 7 7 9 15 15 14 15 15 15 14 16 19 22 21 18
46 41 39 35 33 33 35 38 41 40 43 46 50 53 54 51 42 25 20 21 24 26 28 30 31 29 24 18 11 8 9 14 14 14 15 15 14 13 14 16 21 28 36
36 35 35 35 35 36 39 40 40 42 44 48 53 55 56 53 40 29 23 23 26 29 32 34 35 36 34 30 22 13 8 12 15 14 15 15 14 14 13 15 20 26 37
31 32 33 31 33 39 37 38 42 46 44 46 50 56 54 52 42 32 26 25 28 31 34 37 39 41 41 40 36 27 14 9 14 14 15 15 14 14 13 15 18 23 35
24 25 25 24 25 31 37 45 46 44 43 48 54 54 55 57 53 49 42 31 29 31 34 38 41 44 46 47 46 41 30 15 11 14 15 16 16 16 16 18 19 23 36
25 27 27 27 30 31 36 40 48 46 46 51 52 50 49 52 50 52 56 56 43 34 34 36 39 44 47 50 51 50 44 30 13 13 15 16 18 19 21 23 25 29 37
27 29 29 30 33 36 36 35 37 42 45 45 46 42 41 43 48 54 61 69 70 61 43 38 38 42 46 50 53 54 53 46 27 13 15 16 18 20 21 21 24 28 34
31 32 33 32 35 36 38 42 42 40 40 42 46 45 48 53 59 64 68 73 79 80 75 57 45 43 46 50 53 56 57 54 40 16 15 17 19 22 23 22 25 35 40
35 35 33 35 42 42 40 38 40 41 43 44 45 44 45 49 57 62 67 73 78 82 84 79 67 52 49 52 53 55 57 58 51 32 15 17 18 22 27 32 32 39 48
34 34 41 43 44 43 43 45 45 44 42 40 38 38 40 44 52 61 70 76 81 85 89 87 80 73 60 56 56 55 57 60 57 38 18 17 19 21 26 30 38 52 59
41 48 47 43 42 45 46 46 45 44 42 40 40 40 39 39 41 47 54 64 80 87 91 93 90 83 79 66 62 58 58 61 89 41 21 19 20 23 29 32 33 38 49
50 48 46 47 47 47 42 36 32 31 30 30 32 34 36 36 37 37 43 51 63 76 87 94 96 92 88 81 70 66 68 67 88 89 30 21 20 20 27 39 41 43 52
48 47 45 41 36 33 33 37 37 36 35 35 36 39 41 41 40 41 45 48 55 59 69 82 93 96 93 87 79 72 87 62 68 100 28 23 22 22 30 49 70 82 68
43 41 41 42 42 40 39 38 39 39 39 39 39 41 42 43 48 50 54 56 58 62 68 78 87 92 91 88 82 81 86 92 99 92 27 24 23 27 40 57 90 94 95
42 42 40 39 38 37 36 36 40 41 40 39 41 41 42 46 48 50 52 54 57 61 67 77 82 87 90 88 84 89 78 95 99 52 25 24 26 30 36 61 64 94 99
37 36 34 31 31 31 32 33 34 36 38 39 40 44 45 46 50 51 51 51 52 56 60 66 71 75 85 89 88 79 90 89 81 46 27 29 29 32 46 59 76 96 93
24 21 19 17 13 13 15 22 23 23 24 27 32 39 43 47 50 54 55 55 52 54 56 62 66 69 71 74 76 73 75 95 73 46 33 32 35 46 56 76 66 83 90
24 21 17 13 11 11 9 11 19 24 25 25 23 23 28 39 46 51 57 59 54 57 56 57 64 65 68 70 71 69 83 84 93 84 53 38 44 67 91 95 78 76 84
11 11 10 10 9 7 6 7 12 17 20 24 24 26 27 30 37 42 49 55 64 62 60 58 58 59 65 70 71 72 84 87 98 84 42 38 65 93 96 84 68 76 90

GFSMW_850_rhum_138.txt.gz
RH
22 30 35 35 34 36 36 35 37 38 47 52 51 52 58 60 58 58 60 62 58 56 60 58 53 48 45 34 32 33 26 16 20 64 89 97 90 84 83 83 82 78 69
23 30 33 36 40 46 45 44 40 39 48 52 51 53 61 61 58 58 57 56 58 59 57 54 50 42 28 15 9 7 7 7 8 9 35 54 78 84 87 86 83 61 43
20 23 31 35 43 43 46 46 46 42 51 53 49 55 61 59 57 57 55 55 56 54 52 47 38 21 12 9 7 6 7 8 8 9 10 20 41 16 69 97 84 73 43
18 19 29 37 39 42 47 45 48 47 52 54 49 54 58 58 60 58 55 51 47 40 26 18 16 13 10 8 6 6 8 8 9 11 11 12 16 24 21 31 45 35 17
24 22 30 37 42 49 46 49 50 52 53 54 49 52 56 59 60 58 54 50 35 18 17 17 16 13 11 8 6 7 8 9 12 15 15 15 14 16 30 38 19 15 14
33 33 36 40 45 50 46 49 51 52 51 49 48 52 55 58 56 54 47 32 19 18 19 19 18 16 13 10 7 7 8 10 14 16 15 14 15 15 16 17 15 14 15
45 44 43 42 42 45 49 49 48 45 45 44 44 50 54 56 54 52 40 20 18 18 21 22 23 21 18 15 10 8 8 9 14 16 14 15 16 15 15 14 13 14 15
46 46 46 46 45 44 42 42 40 39 42 41 44 48 55 55 52 47 36 21 20 22 24 26 27 27 26 23 18 12 8 8 12 15 14 15 16 15 14 14 13 13 14
44 39 36 34 36 36 35 37 37 38 40 43 43 45 49 53 54 53 41 26 21 22 25 28 30 32 33 32 28 22 15 10 10 14 15 15 16 16 15 14 14 17 19
37 39 39 36 32 33 37 38 41 42 46 48 45 43 47 52 53 53 41 32 26 24 26 29 32 35 37 38 37 35 28 18 11 11 15 15 16 16 16 16 17 19 24
34 28 26 25 24 24 28 37 44 48 44 45 48 50 49 52 53 51 46 44 38 29 27 29 32 36 40 42 43 43 41 36 27 16 12 14 16 17 18 18 18 21 25
26 27 27 26 26 28 31 34 36 47 49 52 54 54 57 58 58 58 57 60 61 59 44 32 32 34 38 42 45 47 49 48 43 30 17 13 15 16 18 18 18 20 26
28 29 28 27 29 32 34 34 37 39 44 51 52 51 52 55 54 53 54 59 65 68 73 70 53 38 36 39 43 47 50 52 52 46 33 18 15 16 19 22 21 23 27
29 31 30 30 30 34 37 39 42 44 42 40 39 38 41 48 50 52 56 62 65 70 72 76 78 74 57 42 41 45 48 52 54 54 48 32 17 17 21 23 24 26 26
32 32 33 32 31 36 37 37 36 37 38 40 41 42 42 43 43 43 45 51 63 71 76 80 83 84 80 67 51 45 47 50 54 56 55 46 25 19 21 23 23 28 27
35 34 32 35 39 43 41 38 37 38 40 41 41 40 38 37 37 38 40 45 51 58 72 79 85 88 88 82 72 58 50 52 53 55 57 51 43 22 22 26 25 23 25
31 32 39 43 44 44 44 43 42 42 41 39 37 36 36 36 37 38 39 40 45 53 59 71 84 89 90 90 84 74 61 56 56 55 57 58 81 44 23 24 29 37 44
38 42 44 44 45 45 42 36 32 31 31 32 33 34 33 33 34 34 34 35 36 39 46 53 64 80 85 92 92 84 70 65 63 60 59 92 98 47 57 27 29 29 32
46 48 48 43 35 32 34 36 36 36 36 35 36 38 38 36 37 37 38 42 43 44 48 52 57 69 77 91 96 89 80 73 78 77 86 99 84 100 44 32 29 28 27
45 39 35 37 40 40 38 37 37 36 36 36 35 37 40 41 42 43 45 46 49 49 51 53 58 65 71 82 93 95 88 83 77 84 83 75 97 100 33 33 33 38 27
37 38 40 40 38 37 34 33 32 33 33 34 35 37 39 42 45 45 45 48 48 50 51 53 53 59 71 79 89 92 88 84 78 89 94 93 100 96 39 34 44 48 72
42 39 36 35 29 22 17 16 17 16 17 18 20 23 30 37 43 49 49 50 54 53 49 52 51 54 62 70 78 87 87 82 80 82 84 95 98 60 41 36 37 72 98
35 30 22 17 17 15 11 9 10 11 11 11 12 17 22 23 25 34 42 49 52 57 56 54 52 49 57 62 69 73 84 87 86 79 80 93 96 58 45 39 47 96 98
23 21 16 13 16 13 10 8 9 11 11 13 13 13 15 14 18 26 30 36 44 51 61 64 58 55 55 55 65 70 74 76 76 74 78 97 88 64 48 52 59 89 96
14 13 14 15 14 10 8 7 9 14 15 16 16 16 17 20 27 30 34 36 34 44 52 58 68 68 63 56 67 68 70 71 71 70 81 85 91 84 85 66 58 89 97
14 14 12 10 9 9 9 8 10 13 16 19 21 22 23 26 40 52 46 42 45 48 50 53 56 64 71 70 70 69 71 71 68 71 79 86 96 95 76 48 71 97 96